[[{"header":{"parameterUnit":"m.s-1","parameterCategory":1,"la1":30.6,"la2":29.2853,"lo1":-89.7004,"lo2":-87.6739,"dy":0.0162,"dx":0.0183,"nx":112,"ny":82,"refTime":"2024-06-07T12:00:00:Z","depth":0,"parameterNumber":2,"parameterNumberName":"U-component_of_WINDS"},"data":[0.0,0.0,0.0,0.0,0.0,0.0,0.0,0.0,0.0,0.0,0.0,0.0,0.0,0.0,0.0,0.0,0.0,0.0,0.0,0.0,0.0,0.0,0.0,0.0,0.0,0.0,0.0,0.0,0.0,0.0,0.0,0.0,0.0,0.0,0.0,0.0,0.0,0.0,0.0,0.0,0.0,0.0,0.0,0.0,0.0,0.0,0.0,0.0,0.0,0.0,0.0,0.0,0.0,0.0,0.0,0.0,0.0,0.0,0.0,0.0,0.0,0.0,0.0,0.0,0.0,0.0,0.0,0.0,0.0,0.0,0.0,0.0,0.0,0.0,0.0,0.0,0.0,0.0,0.0,0.0,0.0,0.0,0.0,0.0,0.0,0.0,0.0,0.0,0.0,0.0,0.0543,-0.498,-0.7127,-0.6875,-0.3676,0.0037,0.3227,0.5584,0.0,0.0,0.0,0.0,0.0,0.0,0.0,0.0,0.0,0.0,0.0,0.0,0.0,0.0,0.0,0.0,0.0,0.0,0.0,0.0,0.0,0.0,0.0,0.0,0.0,0.0,0.0,0.0,0.0,0.0,0.0,0.0,0.0,0.0,0.0,0.0,0.0,0.0,0.0,0.0,0.0,0.0,0.0,0.0,0.0,0.0,0.0,0.0,0.0,0.0,0.0,0.0,0.0,0.0,0.0,0.0,0.0,0.0,0.0,0.0,0.0,0.0,0.0,0.0,0.0,0.0,0.0,0.0,0.0,0.0,0.0,0.0,0.0,0.0,0.0,0.0,0.0,0.0,0.0,0.0,0.0,0.0,0.0,0.0,0.0,0.0,0.0,0.0,0.0,0.0,0.0,0.0,0.0,0.0,0.0,0.0,0.0,0.0,0.0,0.0,0.0,0.0,0.0,0.0,-0.3192,-0.8475,-0.9167,-0.808,-0.5119,-0.2385,0.0943,0.5107,0.0,0.0,0.0,0.0,0.0,0.0,0.0,0.0,0.0,0.0,0.0,0.0,0.0,0.0,0.0,0.0,0.0,0.0,0.0,0.0,0.0,0.0,0.0,0.0,0.0,0.0,0.0,0.0,0.0,0.0,0.0,0.0,0.0,0.0,0.0,0.0,0.0,0.0,0.0,0.0,0.0,0.0,0.0,0.0,0.0,0.0,0.0,0.0,0.0,0.0,0.0,0.0,0.0,0.0,0.0,0.0,0.0,0.0,0.0,0.0,0.0,0.0,0.0,0.0,0.0,0.0,0.0,0.0,0.0,0.0,0.0,0.0,0.0,0.0,0.0,0.0,0.0,0.0,0.0,0.0,0.0,0.0,0.0,0.0,0.0,0.0,0.0,0.0,0.0,0.0,0.0,0.0,0.0,0.0,0.0,0.0,0.0,0.0,0.0,0.0,0.0,0.0,0.0,-0.4864,-0.8626,-0.9789,-0.9697,-0.8366,-0.5453,-0.2919,0.0368,0.4797,0.7611,0.0,0.0,0.0,0.0,0.0,0.0,0.0,0.0,0.0,0.0,0.0,0.0,0.0,0.0,0.0,0.0,0.0,0.0,0.0,0.0,0.0,0.0,0.0,0.0,0.0,0.0,0.0,0.0,0.0,0.0,0.0,0.0,0.0,0.0,0.0,0.0,0.0,0.0,0.0,0.0,0.0,0.0,0.0,0.0,0.0,0.0,0.0,0.0,0.0,0.0,0.0,0.0,0.0,0.0,0.0,0.0,0.0,0.0,0.0,0.0,0.0,0.0,0.0,0.0,0.0,0.0,0.0,0.0,0.0,0.0,0.0,0.0,0.0,0.0,0.0,0.0,0.0,0.0,0.0,0.0,0.0,0.0,0.0,0.0,0.0,0.0,0.0,0.0,0.0,0.0,0.0,0.0,0.0,0.0,0.0,0.0,0.0,0.0,0.0,0.0,0.0,0.0,-1.0136,-1.2502,-1.034,-0.9735,-0.8343,-0.5458,-0.3289,-0.0147,0.4354,0.6395,0.0,0.0,0.0,0.0,0.0,0.0,0.0,0.0,0.0,0.0,0.0,0.0,0.0,0.0,0.0,0.0,0.0,0.0,0.0,0.0,0.0,0.0,0.0,0.0,0.0,0.0,0.0,0.0,0.0,0.0,0.0,0.0,0.0,0.0,0.0,0.0,0.0,0.0,0.0,0.0,0.0,0.0,0.0,0.0,0.0,0.0,0.0,0.0,0.0,0.0,0.0,0.0,0.0,0.0,0.0,0.0,0.0,0.0,0.0,0.0,0.0,0.0,0.0,0.0,0.0,0.0,0.0,0.0,0.0,0.0,0.0,0.0,0.0,0.0,0.0,0.0,0.0,0.0,0.0,0.0,0.0,0.0,0.0,0.0,0.0,0.0,0.0,0.0,0.0,0.0,0.0,0.0,0.0,0.0,0.0,0.0,0.0,0.0,0.0,0.0,0.0,0.0,-1.0565,-1.2405,-1.0571,-0.9687,-0.8134,-0.5442,-0.4367,-0.1608,0.3558,0.6851,0.0,0.0,0.0,0.0,0.0,0.0,0.0,0.0,0.0,0.0,0.0,0.0,0.0,0.0,0.0,0.0,0.0,0.0,0.0,0.0,0.0,0.0,0.0,0.0,0.0,0.0,0.0,0.0,0.0,0.0,0.0,0.0,0.0,0.0,0.0,0.0,0.0,0.0,0.0,0.0,0.0,0.0,0.0,0.0,0.0,0.0,0.0,0.0,0.0,0.0,0.0,0.0,0.0,0.0,0.0,0.0,0.0,0.0,0.0,0.0,0.0,0.0,0.0,0.0,0.0,0.0,0.0,0.0,0.0,0.0,0.0,0.0,0.0,0.0,0.0,0.0,0.0,0.0,0.0,0.0,0.0,0.0,0.0,0.0,0.0,0.0,0.0,0.0,0.0,0.0,0.0,0.0,0.0,0.0,0.0,0.0,0.0,0.0,0.0,0.0,0.0,0.0,-1.1449,-1.3295,-1.118,-1.0125,-0.8394,-0.5462,-0.445,-0.2046,0.2506,0.0,0.0,0.0,0.0,0.0,0.0,0.0,0.0,0.0,0.0,0.0,0.0,0.0,0.0,0.0,0.0,0.0,0.0,0.0,0.0,0.0,0.0,0.0,0.0,0.0,0.0,0.0,0.0,0.0,0.0,0.0,0.0,0.0,0.0,0.0,0.0,0.0,0.0,0.0,0.0,0.0,0.0,0.0,0.0,0.0,0.0,0.0,0.0,0.0,0.0,0.0,0.0,0.0,0.0,0.0,0.0,0.0,0.0,0.0,0.0,0.0,0.0,0.0,0.0,0.0,0.0,0.0,0.0,0.0,0.0,0.0,0.0,0.0,0.0,0.0,0.0,0.0,0.0,0.0,0.0,0.0,0.0,0.0,0.0,0.0,0.0,0.0,0.0,0.0,0.0,0.0,0.0,0.0,0.0,0.0,0.0,0.0,0.0,0.0,0.0,0.0,0.0,-0.8093,-1.1901,-1.3623,-1.1556,-1.0196,-0.8291,-0.542,-0.4199,-0.1929,0.1966,0.0,0.0,0.0,0.0,0.0,0.0,0.0,0.0,0.0,0.0,0.0,0.0,0.0,0.0,0.0,0.0,0.0,0.0,0.0,0.0,0.0,0.0,0.0,0.0,0.0,0.0,0.0,0.0,0.0,0.0,0.0,0.0,0.0,0.0,0.0,0.0,0.0,0.0,0.0,0.0,0.0,0.0,0.0,0.0,0.0,0.0,0.0,0.0,0.0,0.0,0.0,0.0,0.0,0.0,0.0,0.0,0.0,0.0,0.0,0.0,0.0,0.0,0.0,0.0,0.0,0.0,0.0,0.0,0.0,0.0,0.0,0.0,0.0,0.0,0.0,0.0,0.0,0.0,0.0,0.0,0.0,0.0,0.0,0.0,0.0,0.0,0.0,0.0,0.0,0.0,0.0,0.0,0.0,0.0,0.0,0.0,0.0,0.0,0.0,0.0,0.0,0.0,-0.8635,-1.1762,-1.3187,-1.1565,-0.9799,-0.774,-0.5314,-0.3628,-0.1312,0.0,0.0,0.0,0.0,0.0,0.0,0.0,0.0,0.0,0.0,0.0,0.0,0.0,0.0,0.0,0.0,0.0,0.0,0.0,0.0,0.0,0.0,0.0,0.0,0.0,0.0,0.0,0.0,0.0,0.0,0.0,0.0,0.0,0.0,0.0,0.0,0.0,0.0,0.0,0.0,0.0,0.0,0.0,0.0,0.0,0.0,0.0,0.0,0.0,0.0,0.0,0.0,0.0,0.0,0.0,0.0,0.0,0.0,0.0,0.0,0.0,0.0,0.0,0.0,0.0,0.0,0.0,0.0,0.0,0.0,0.0,0.0,0.0,0.0,0.0,0.0,0.0,0.0,0.0,0.0,0.0,0.0,0.0,0.0,0.0,0.0,0.0,0.0,0.0,0.0,0.0,0.0,0.0,0.0,0.0,0.0,0.0,0.0,0.0,0.0,0.0,0.0,0.0,-0.9096,-1.2104,-1.3363,-1.1642,-1.0074,-0.8056,-0.5411,-0.4199,-0.2117,0.133,0.0,0.0,0.0,0.0,0.0,0.0,0.0,0.0,0.0,0.0,0.0,0.0,0.0,0.0,0.0,0.0,0.0,0.0,0.0,0.0,0.0,0.0,0.0,0.0,0.0,0.0,0.0,0.0,0.0,0.0,0.0,0.0,0.0,0.0,0.0,0.0,0.0,0.0,0.0,0.0,0.0,0.0,0.0,0.0,0.0,0.0,0.0,0.0,0.0,0.0,0.0,0.0,0.0,0.0,0.0,0.0,0.0,0.0,0.0,0.0,0.0,0.0,0.0,0.0,0.0,0.0,0.0,0.0,0.0,0.0,0.0,0.0,0.0,0.0,0.0,0.0,0.0,0.0,0.0,0.0,0.0,0.0,0.0,0.0,0.0,0.0,0.0,0.0,0.0,0.0,0.0,0.0,0.0,0.0,0.0,0.0,0.0,0.0,0.0,0.0,0.0,0.0,-0.9725,-1.2395,-1.3483,-1.2009,-1.0241,-0.8174,-0.5838,-0.4647,-0.2516,0.0998,0.0,0.0,0.0,0.0,0.0,0.0,0.0,0.0,0.0,0.0,0.0,0.0,0.0,0.0,0.0,0.0,0.0,0.0,0.0,0.0,0.0,0.0,0.0,0.0,0.0,0.0,0.0,0.0,0.0,0.0,0.0,0.0,0.0,0.0,0.0,0.0,0.0,0.0,0.0,0.0,0.0,0.0,0.0,0.0,0.0,0.0,0.0,0.0,0.0,0.0,0.0,0.0,0.0,0.0,0.0,0.0,0.0,0.0,0.0,0.0,0.0,0.0,0.0,0.0,0.0,0.0,0.0,0.0,0.0,0.0,0.0,0.0,0.0,0.0,0.0,0.0,0.0,0.0,0.0,0.0,0.0,0.0,0.0,0.0,0.0,0.0,0.0,0.0,0.0,0.0,0.0,0.0,0.0,0.0,0.0,0.0,0.0,0.0,0.0,0.0,0.0,0.0,-1.0481,-1.2617,-1.3516,-1.2457,-1.0259,-0.8169,-0.6466,-0.4859,-0.2563,0.067,0.0,0.0,0.0,0.0,0.0,0.0,0.0,0.0,0.0,0.0,0.0,0.0,0.0,0.0,0.0,0.0,0.0,0.0,0.0,0.0,0.0,0.0,0.0,0.0,0.0,0.0,0.0,0.0,0.0,0.0,0.0,0.0,0.0,0.0,0.0,0.0,0.0,0.0,0.0,0.0,0.0,0.0,0.0,0.0,0.0,0.0,0.0,0.0,0.0,0.0,0.0,0.0,0.0,0.0,0.0,0.0,0.0,0.0,0.0,0.0,0.3076,0.3085,0.0,0.0,0.0,0.0,0.0,0.0,0.0,0.0,0.0,0.0,0.0,0.0,0.0,0.0,0.0,0.0,0.0,0.0,0.0,0.0,0.0,0.0,0.0,0.0,0.0,0.0,0.0,0.0,0.0,0.0,0.0,0.0,0.0,0.0,0.0,0.0,0.0,0.0,0.0,0.0,-1.1188,-1.25,-1.2881,-1.2022,-0.9968,-0.8041,-0.6508,-0.4679,-0.2841,-0.1063,0.114,0.0,0.0,0.0,0.0,0.0,0.0,0.0,0.0,0.0,0.0,0.0,0.0,0.0,0.0,0.0,0.0,0.0,0.0,0.0,0.0,0.0,0.0,0.0,0.0,0.0,0.0,0.0,0.0,0.0,0.0,0.0,0.0,0.0,0.0,0.0,0.0,0.0,0.0,0.0,0.0,0.0,0.0,0.0,0.0,0.0,0.0,0.0,0.0,0.0,0.0,0.0,0.0,0.0,0.0,0.0,0.0,0.0,0.0,0.0,-0.2062,-0.011,0.0,0.0,0.0,0.0,0.0,0.0,0.0,0.0,0.0,0.0,0.0,0.0,0.0,0.0,0.0,0.0,0.0,0.0,0.0,0.0,0.0,0.0,0.0,0.0,0.0,0.0,0.0,0.0,0.0,0.0,0.0,0.0,0.0,0.0,0.0,0.0,0.0,0.0,0.0,0.0,-1.1375,-1.2288,-1.2281,-1.0892,-0.9327,-0.7783,-0.6251,-0.4771,-0.3273,-0.1752,0.0104,0.0,0.0,0.0,0.0,0.0,0.0,0.0,0.0,0.0,0.0,0.0,0.0,0.0,0.0,0.0,0.0,0.0,0.0,0.0,0.0,0.0,0.0,0.0,0.0,0.0,0.0,0.0,0.0,0.0,0.0,0.0,0.0,0.0,0.0,0.0,0.0,0.0,0.0,0.0,0.0,0.0,0.0,0.0,0.0,0.0,0.0,0.0,0.0,0.0,0.0,0.0,0.0,0.0,-1.2893,-1.351,-1.442,-1.355,-1.3584,-1.3904,-0.6007,-0.2688,-0.2832,-0.2501,0.0,0.0,0.0,0.0,0.0,0.0,0.0,0.0,0.0,0.0,0.0,0.0,0.0,0.0,0.0,0.0,0.0,0.0,0.0,0.0,0.0,0.0,-1.5612,-1.5035,-1.4502,-1.1911,-0.3789,0.0,0.0,0.0,0.0,0.0,0.0,0.0,0.0,0.0,0.0,0.0,-1.1675,-1.219,-1.1806,-1.0027,-0.8861,-0.7629,-0.6137,-0.5111,-0.3837,-0.2213,-0.093,0.0167,0.0,0.0,0.0,0.0,0.0,0.0,0.0,0.0,0.0,0.0,0.0,0.0,0.0,0.0,0.0,0.0,0.0,0.0,0.0,0.0,0.0,0.0,0.0,0.0,0.0,0.0,0.0,0.0,0.0,0.0,0.0,0.0,-0.527,-0.8386,0.0,0.0,0.0,0.0,0.0,0.0,0.0,0.0,0.0,0.0,0.0,0.0,0.0,-1.4136,-1.4401,-1.4746,-1.5197,-1.5704,-1.4959,-1.4882,-1.5383,-1.4271,-1.3756,-1.3634,-1.2278,0.0,-1.3699,-1.2065,0.0,0.0,0.0,0.0,0.0,0.0,0.0,0.0,0.0,0.0,0.0,0.0,0.0,0.0,0.0,0.0,0.0,0.0,0.0,0.0,0.0,0.0,-1.7735,-1.6723,-1.6181,-1.55,-1.4093,-1.0539,-0.9056,-1.3907,-1.1976,-1.0096,0.0,0.0,0.0,0.0,0.0,0.0,-1.3077,-1.2464,-1.169,-1.0902,-0.929,-0.7884,-0.6937,-0.5755,-0.4575,-0.3338,-0.1927,-0.0752,0.0144,0.0181,0.0,0.0,0.0,0.0,0.0,0.0,0.0,0.0,0.0,0.0,0.0,0.0,0.0,0.0,0.0,0.0,0.0,0.0,0.0,0.0,0.0,0.0,0.0,0.0,0.0,0.0,0.0,0.0,0.0,-0.6141,-1.1856,-1.5228,-1.536,-1.4804,0.0,0.0,0.0,0.0,0.0,0.0,0.0,0.0,0.0,-1.6705,-1.6577,-1.6509,-1.6569,-1.6624,-1.6771,-1.6965,-1.6016,-1.564,-1.5727,-1.4583,-1.3955,-1.3768,-1.3588,-1.4127,-1.5047,-1.4231,-1.4247,-1.4572,0.0,0.0,0.0,0.0,-0.9145,-0.9354,-1.2247,-1.3703,-1.4488,-1.5661,0.0,0.0,0.0,0.0,0.0,0.0,0.0,-1.8377,-1.8544,-1.8478,-1.8186,-1.7522,-1.6881,-1.6514,-1.6781,-1.4554,-1.3362,-1.6237,-1.5697,-1.4749,-1.4843,-1.4761,0.0,0.0,0.0,-1.3925,-1.3561,-1.2473,-1.1173,-0.9695,-0.8583,-0.7551,-0.6484,-0.5453,-0.446,-0.357,-0.2603,-0.1458,-0.007,-0.0,0.0559,0.0,0.0,0.0,0.0,0.0,0.0,0.0,0.0,0.0,0.0,0.0,0.0,0.0,0.0,0.0,0.0,0.0,0.0,0.0,0.0,0.0,0.0,0.0,0.0,0.0,0.0,0.0,0.0,-1.224,-1.6694,-1.9716,-2.0233,-1.9606,0.0,0.0,0.0,0.0,0.0,0.0,-1.8153,-1.8418,-1.8583,-1.8667,-1.8081,-1.7747,-1.7702,-1.7702,-1.7727,-1.7729,-1.6848,-1.6315,-1.6114,-1.5012,-1.4289,-1.3899,-1.3693,-1.3938,-1.4494,-1.4494,-1.5576,-1.712,-1.5789,-1.513,-1.5015,-1.5737,-1.5679,-1.5443,-1.715,-1.7876,-1.8017,-1.755,-1.7458,-1.7504,-1.7166,0.0,0.0,0.0,0.0,-1.8963,-1.941,-1.905,-1.8486,-1.8234,-1.7736,-1.7403,-1.7854,-1.7124,-1.6583,-1.7123,-1.7638,-1.7709,-1.6845,-1.6899,0.0,-1.6005,-1.5548,-1.4855,-1.3575,-1.2411,-1.088,-0.8839,-0.8152,-0.7353,-0.614,-0.5165,-0.4317,-0.3677,-0.3047,-0.2086,-0.0738,-0.0248,-0.0,-0.0,0.0,0.0,0.0,0.0,0.0,0.0,0.0,0.0,0.0,0.0,0.0,0.0,0.0,0.0,0.0,0.0,0.0,0.0,0.0,0.0,0.0,0.0,0.0,0.0,0.0,0.0,0.0,0.0,0.0,-1.9954,-2.0293,0.0,0.0,0.0,0.0,-1.9993,-1.9346,-1.8973,-1.9037,-1.8271,-1.7821,-1.7774,-1.7728,-1.7702,-1.7702,-1.7702,-1.7955,-1.8448,-1.7639,-1.7094,-1.6817,-1.581,-1.4805,-1.3899,-1.3693,-1.3938,-1.4494,-1.4494,-1.4986,-1.5764,-1.6366,-1.6597,-1.666,-1.7418,-1.7647,-1.7653,-1.7772,-1.7811,-1.7861,-1.8069,-1.8494,-1.8929,-1.9086,-1.9331,0.0,0.0,-1.9429,-1.9513,-1.9365,-1.9268,-1.925,-1.9234,-1.9198,-1.9164,-1.9201,-1.9146,-1.9129,-1.9225,-1.8214,-1.766,-1.8673,0.0,-1.721,-1.6477,-1.592,-1.4947,-1.3152,-1.2332,-1.1219,-0.9438,-0.8612,-0.7722,-0.6575,-0.5318,-0.4419,-0.3988,-0.3187,-0.2663,-0.256,-0.092,-0.0,-0.0,0.0041,0.0,0.0,0.0,0.0,0.0,0.0,0.0,0.0,0.0,0.0,0.0,0.0,0.0,0.0,0.0,0.0,0.0,0.0,0.0,0.0,0.0,0.0,0.0,0.0,0.0,0.0,0.0,0.0,-2.006,-2.0351,0.0,-1.959,-1.9521,-1.9288,-1.8668,-1.8871,-1.9043,-1.9046,-1.9277,-1.9391,-1.9369,-1.9369,-1.9369,-1.9369,-1.9241,-1.924,-1.9326,-1.8437,-1.7895,-1.7624,-1.6227,-1.5532,-1.5382,-1.4282,-1.4051,-1.4494,-1.4494,-1.5206,-1.6292,-1.6069,-1.6559,-1.7439,-1.771,-1.7811,-1.7811,-1.7811,-1.7811,-1.7839,-1.8103,-1.845,-1.8789,-1.9034,-1.9246,-1.938,-1.932,-1.935,-1.938,-1.932,-1.9305,-1.9305,-1.9305,-1.8904,-1.8665,-1.9179,-1.8482,-1.8116,-1.9295,-1.9113,-1.8764,-1.8745,-1.8444,-1.7879,-1.6873,-1.5859,-1.4755,-1.3511,-1.2056,-1.0564,-0.9068,-0.8014,-0.7073,-0.6183,-0.4928,-0.4215,-0.4269,-0.329,-0.27,-0.2706,-0.2065,-0.1193,-0.0039,-0.0775,-0.1748,0.0,0.0,0.0,0.0,0.0,0.0,0.0,0.0,0.0,0.0,0.0,0.0,0.0,0.0,0.0,0.0,0.0,0.0,0.0,0.0,0.0,0.0,0.0,0.0,0.0,-1.9332,-2.0526,-2.0657,-2.0558,-2.0207,-1.9573,-1.9497,-1.9246,-1.8626,-1.91,-1.9434,-1.9434,-1.9985,-2.0312,-2.0312,-2.0312,-2.0312,-2.0312,-2.0161,-1.985,-1.9386,-1.8768,-1.8205,-1.7642,-1.6245,-1.5709,-1.5823,-1.4405,-1.3929,-1.4141,-1.4141,-1.4851,-1.5917,-1.568,-1.6204,-1.7101,-1.7337,-1.7422,-1.7456,-1.7726,-1.7811,-1.7878,-1.8208,-1.845,-1.866,-1.9,-1.9198,-1.9305,-1.9305,-1.9305,-1.9305,-1.9305,-1.9305,-1.9305,-1.9305,-1.8886,-1.8647,-1.9179,-1.8404,-1.7969,-1.9147,-1.9291,-1.9139,-1.8911,-1.8836,-1.8379,-1.7142,-1.6025,-1.4757,-1.3251,-1.1757,-1.0199,-0.8536,-0.754,-0.6648,-0.5743,-0.4654,-0.4029,-0.4086,-0.2914,-0.2364,-0.2679,-0.2102,-0.1216,-0.004,-0.1188,-0.2394,-0.3588,0.0,0.0,0.0,0.0,0.0,0.0,0.0,0.0,0.0,0.0,0.0,0.0,0.0,0.0,0.0,0.0,0.0,0.0,0.0,0.0,0.0,0.0,0.0,-2.0381,-2.1814,-2.2477,-2.1709,-2.0886,-2.0362,-2.0308,-2.0312,-2.0312,-2.0312,-2.0312,-2.0312,-2.0312,-2.0312,-2.0312,-2.0312,-2.0312,-2.0312,-2.0312,-2.0285,-1.9724,-1.8604,-1.8594,-1.8004,-1.6872,-1.5851,-1.5304,-1.5092,-1.4055,-1.3526,-1.343,-1.343,-1.3853,-1.4562,-1.5291,-1.5578,-1.568,-1.6428,-1.6716,-1.6851,-1.7557,-1.7811,-1.79,-1.841,-1.8585,-1.8698,-1.9164,-1.9289,-1.9305,-1.9305,-1.9305,-1.9305,-1.9305,-1.9289,-1.9289,-1.9271,-1.9253,-1.9253,-1.9216,-1.9079,-1.8948,-1.8948,-1.8647,-1.8596,-1.9266,-1.9247,-1.8661,-1.7276,-1.6363,0.0,-1.2302,-1.1433,-1.018,-0.7908,-0.7229,-0.646,-0.5293,-0.4436,-0.3861,-0.3539,-0.2139,-0.169,-0.2573,-0.0925,-0.0036,-0.0126,-0.1225,-0.2415,-0.3598,0.0,0.0,0.0,0.0,0.0,0.0,0.0,0.0,0.0,0.0,0.0,0.0,0.0,0.0,0.0,0.0,0.0,0.0,0.0,0.0,0.0,-2.0988,-2.2722,-2.2672,-2.2326,-2.1965,-2.1698,-2.0928,-2.0362,-2.0308,-2.0312,-2.0312,-2.0312,-2.0312,-2.0312,-2.0312,-2.0312,-2.0312,-2.0312,-2.0312,-2.0312,-2.0312,-2.0069,-1.9482,-1.8604,-1.8342,-1.777,-1.6872,-1.5851,-1.5612,-1.5878,-1.4284,-1.3834,-1.4208,-1.4208,-1.4327,-1.4511,-1.4714,-1.5138,-1.568,-1.6428,-1.7033,-1.754,-1.7743,-1.7811,-1.7856,-1.8187,-1.845,-1.866,-1.8983,-1.9182,-1.9305,-1.9305,-1.9305,-1.9305,-1.9305,-1.9198,-1.8972,-1.8529,-1.8211,-1.7887,-1.7436,-1.7635,-1.7914,-1.7914,-1.8057,-1.8324,-1.8752,-1.8093,-1.723,-1.6369,-1.5166,-1.363,-1.1607,-1.0533,-0.9231,-0.7394,-0.6287,-0.5442,-0.4814,-0.413,-0.375,-0.386,-0.2243,-0.1132,-0.0773,-0.0248,-0.0828,-0.2568,-0.2059,-0.2413,0.0,0.0,0.0,0.0,0.0,0.0,0.0,0.0,0.0,0.0,0.0,0.0,0.0,0.0,0.0,0.0,0.0,0.0,0.0,0.0,0.0,0.0,-2.2539,-2.3994,-2.4308,-2.3198,-2.2324,-2.2247,-2.1154,-2.0362,-2.0308,-2.0312,-2.0312,-2.0312,-2.0312,-2.0312,-2.0312,-2.0312,-2.0312,-2.0312,-2.0312,-2.0312,-2.0312,-1.9697,-1.8951,-1.8086,-1.7472,-1.6896,-1.6358,-1.5275,-1.5163,-1.5701,-1.417,-1.3718,-1.4039,-1.4039,-1.4039,-1.4073,0.0,0.0,0.0,0.0,-1.6695,-1.7371,-1.7693,-1.7811,-1.7839,-1.8103,-1.8391,-1.8659,-1.8914,-1.9134,-1.9274,-1.9198,-1.9246,-1.9185,-1.8681,-1.8592,-1.8411,-1.7578,-1.7255,-1.7016,-1.6599,-1.6689,-1.6835,-1.6729,-1.7036,0.0,-1.7185,-1.6925,-1.6524,-1.5878,-1.4607,-1.3081,-1.1348,-1.0077,-0.8674,-0.6987,-0.5845,-0.5004,-0.4477,-0.3845,0.0,0.0,0.0,-0.1295,-0.0765,-0.076,0.0,0.0,0.0,0.0,0.0,-0.453,0.0,0.0,-0.7186,-0.8745,0.0,0.0,0.0,0.0,0.0,0.0,0.0,0.0,0.0,0.0,0.0,0.0,0.0,0.0,0.0,0.0,-2.3209,-2.4176,-2.5215,-2.4042,-2.3083,-2.3014,-2.1473,-2.0366,-2.0304,-2.0292,-2.0312,-2.0312,-2.0312,-2.0312,-2.0312,-2.0312,0.0,0.0,0.0,-2.0285,-2.0269,-1.9379,-1.8431,-1.75,-1.6498,-1.5892,-1.563,-1.4436,-1.4285,-1.4869,-1.3851,-1.3396,-1.3396,-1.3396,-1.3396,-1.3464,-1.4124,-1.4427,-1.4579,-1.524,-1.5933,-1.6682,-1.732,0.0,0.0,-1.7841,-1.8161,-1.8518,-1.8753,-1.9028,-1.9246,-1.9052,-1.9063,-1.8854,-1.7788,-1.7669,-1.7588,-1.6501,-1.6304,-1.6315,-1.6118,-1.5923,-1.5727,-1.5473,-1.5716,-1.5773,-1.523,-1.5842,-1.6171,-1.5474,-1.4301,-1.2852,-1.1094,-0.9745,-0.8285,-0.6546,-0.5581,0.0,-0.4147,-0.3572,-0.3186,-0.2993,-0.2313,-0.1979,-0.2015,-0.1997,-0.2008,-0.2023,-0.3069,-0.3932,-0.4683,-0.5125,-0.5798,-0.6736,-0.7974,-0.9826,0.0,0.0,0.0,0.0,0.0,0.0,0.0,0.0,0.0,0.0,0.0,0.0,0.0,0.0,0.0,-2.3093,-2.4272,-2.4902,-2.4521,-2.3667,-2.3102,-2.3088,-2.149,-2.0361,-2.0314,-2.0299,-2.0312,-2.0312,-2.0312,-2.0312,-2.0312,-2.0312,-2.0312,-2.0312,-2.0312,-2.0214,-2.0069,-1.976,-1.9137,-1.8179,-1.7194,0.0,-1.5424,-1.4381,-1.3897,-1.387,-1.3546,-1.3396,-1.3396,-1.3396,-1.3396,-1.3413,-1.3566,-1.3971,-1.4511,-1.4646,-1.5189,-1.5832,-1.5984,-1.6035,-1.6018,-1.6078,-1.6825,-1.7719,-1.7772,-1.8393,0.0,-1.9001,-1.8429,-1.7788,-1.7559,-1.6958,-1.6236,-1.552,-1.5119,-1.4762,-1.4254,-1.4297,-1.446,-1.4386,-1.4329,-1.4387,-1.4732,-1.5337,-1.5387,-1.4186,-1.325,-1.1923,-0.9776,-0.8701,-0.7431,-0.5648,-0.4712,-0.4031,-0.3506,-0.3186,-0.2909,-0.275,-0.281,-0.2951,-0.3225,-0.3262,-0.3232,-0.3265,-0.3473,-0.3884,-0.4439,-0.5256,-0.6259,-0.7428,-0.8933,-1.0031,0.0,0.0,0.0,0.0,0.0,0.0,0.0,0.0,0.0,0.0,0.0,-2.0159,-2.1456,0.0,-2.3235,-2.4113,-2.4451,-2.4508,-2.4238,-2.3151,-2.2403,-2.245,-2.1277,-2.0425,-2.0352,-2.0349,-2.0352,-2.0352,-2.0352,-2.0334,-2.0308,-2.0301,-2.0299,-2.0292,-2.0312,-2.0249,-2.0152,-1.9115,-1.8356,-1.7877,-1.6306,-1.5288,-1.4778,-1.4058,-1.3709,-1.3601,-1.3462,-1.3396,-1.3396,-1.3396,-1.3396,-1.3396,-1.3396,-1.3633,-1.3988,-1.4359,-1.4714,-1.5105,-1.5477,-1.5595,-1.5595,-1.5595,-1.6124,-1.6765,-1.6765,-1.7436,-1.8127,-1.763,-1.7506,-1.7259,-1.6273,-1.5784,-1.5326,-1.446,-1.4075,-1.3785,-1.3379,-1.3193,-1.3055,-1.2934,-1.2955,-1.2935,-1.273,-1.3235,-1.3503,-1.3108,-1.1959,-1.0587,-0.9018,-0.7862,-0.669,-0.5327,-0.4494,-0.3837,-0.3496,-0.3106,-0.2846,-0.27,-0.2905,-0.3139,-0.3335,-0.3497,-0.3609,-0.3622,-0.3581,-0.388,-0.4391,-0.5149,-0.6058,-0.7128,-0.8701,-0.993,0.0,0.0,0.0,0.0,0.0,0.0,0.0,-2.0472,-2.1167,-2.1327,-2.1405,-2.1868,-2.326,-2.3542,-2.3814,-2.4626,-2.4217,-2.3784,-2.3722,-2.2542,-2.1656,-2.156,-2.0923,-2.048,-2.0429,-2.0414,-2.041,-2.041,-2.041,-2.039,-2.0316,-2.0319,-2.0296,-2.0304,-2.03,-2.0192,-1.9967,-1.8412,-1.7519,-1.7288,-1.5398,-1.4449,-1.4352,-1.388,-1.3632,-1.3556,-1.3446,-1.3396,-1.3396,-1.3396,-1.3396,-1.3396,-1.3396,-1.3396,-1.3481,-1.4073,-1.4257,-1.4304,-1.495,-1.5172,-1.5172,-1.5172,-1.5447,-1.5801,-1.5801,-1.6449,-1.7029,-1.622,-1.6431,-1.6554,-1.4911,-1.4623,-1.4539,-1.3549,-1.3278,-1.3142,-1.2745,-1.2332,-1.1892,-1.1442,-1.1572,-1.1454,-1.0608,-1.078,-1.1216,-1.1756,-1.0531,-0.9185,-0.8233,-0.7031,-0.5931,-0.5042,-0.4301,-0.3732,-0.3442,-0.3075,-0.2812,-0.2723,-0.286,-0.2997,-0.3076,-0.3387,-0.3549,-0.3531,-0.3565,-0.388,-0.4387,-0.5038,-0.5754,-0.6541,-0.8075,-0.9683,-1.4717,-1.4747,-1.5786,-1.8299,-1.967,-2.0578,0.0,-2.1651,-2.2154,-2.2805,-2.3169,-2.3585,-2.4242,-2.4364,-2.4267,-2.3985,-2.3873,-2.3371,-2.2144,-2.1822,-2.1438,-2.0726,-2.0565,-2.0506,-2.0484,-2.0435,-2.041,-2.041,-2.041,-2.0406,-2.0379,-2.0327,-2.0307,-2.0295,-2.0299,-1.9799,-1.8808,-1.8569,-1.7963,-1.6938,-1.5986,-1.536,-1.4962,-1.4214,-1.3711,-1.343,-1.3413,-1.3396,-1.3396,-1.3396,-1.3396,-1.3396,-1.3396,-1.3396,-1.3413,-1.3498,-1.3377,-1.3218,-1.353,-1.365,-1.365,-1.365,-1.428,-1.5017,-1.5017,-1.5575,-1.6133,-1.6027,-1.5433,-1.4772,-1.4546,-1.4058,-1.3498,-1.3137,-1.3049,-1.2745,-1.1723,-1.1605,-1.1406,-1.0328,-1.008,-0.9979,-0.9672,-0.9092,-0.8857,-0.9404,-0.8997,-0.8188,-0.6885,-0.5931,-0.5023,-0.4215,-0.3686,-0.3208,-0.2837,-0.274,-0.2733,-0.2716,-0.2825,-0.2917,-0.293,-0.3202,-0.3316,-0.3333,-0.351,-0.388,-0.4391,-0.5226,-0.5873,-0.6286,-0.7786,-0.92,-1.4542,-1.5447,-1.6907,-1.8354,-1.9546,-2.057,-2.1316,-2.1469,-2.1558,-2.1856,-2.2371,-2.2761,-2.2758,-2.346,-2.3768,-2.2932,-2.2834,-2.2563,-2.164,-2.1158,-2.0755,-2.037,-1.9818,-1.9709,-2.0375,-2.0207,-2.0157,-2.0449,-2.0467,-2.0462,-2.045,-2.0432,-2.0374,-2.0294,-2.0296,-2.0065,-1.9591,-1.8934,-1.835,-1.7875,-1.6751,-1.6063,-1.577,-1.4881,-1.4101,-1.3396,-1.3396,-1.3396,-1.3396,-1.3396,-1.3396,-1.3379,-1.3226,-1.3069,-1.2913,-1.2673,-1.2506,-1.2373,-1.2056,-1.2237,-1.2606,-1.2721,-1.3326,-1.4023,-1.4023,-1.4538,-1.4931,-1.3939,-1.3969,-1.4039,-1.3082,-1.288,-1.2908,-1.2797,-1.2501,-1.1971,-1.1047,-1.0699,-1.0322,-0.939,-0.9032,-0.8778,-0.8506,-0.795,-0.7372,-0.69,-0.7112,-0.6949,-0.5891,-0.5228,-0.452,-0.3686,-0.32,-0.2874,-0.2716,-0.2712,-0.2712,-0.2712,-0.2747,-0.2822,-0.2907,-0.3029,-0.3174,-0.3303,-0.337,-0.3573,-0.3921,-0.4958,-0.5525,-0.5712,-0.7171,-0.8397,-1.4387,-1.5524,-1.6788,-1.8052,-1.9157,-2.0131,-2.0841,-2.0852,-2.0701,-2.06,-2.101,-2.1207,-2.0584,-2.1548,-2.2164,-2.1228,-2.1243,-2.1339,-2.1244,-2.0482,-1.9896,-1.9741,-1.8814,-1.8551,-1.9469,-1.9458,-1.9684,-2.0317,-2.0405,-2.0435,-2.0449,-2.0453,-2.0429,-2.0327,-2.032,-2.0145,-1.9826,-1.9011,-1.8448,-1.8113,-1.7064,-1.6366,-1.5947,-1.4929,-1.4091,-1.3396,-1.3396,-1.3396,-1.3396,-1.3329,-1.3294,-1.326,-1.2997,-1.2665,-1.226,-1.171,-1.1613,-1.1712,-1.1316,-1.1396,-1.174,-1.1913,-1.2331,-1.282,-1.3041,-1.343,-1.3562,-1.2573,-1.2947,-1.3394,-1.2079,-1.21,-1.2423,-1.2285,-1.1812,-1.114,-1.0126,-0.9702,-0.92,-0.8213,-0.793,-0.7685,-0.7121,-0.6747,-0.6128,-0.5048,-0.5392,-0.5583,-0.4953,-0.4488,-0.3946,-0.32,-0.2882,-0.2686,-0.2686,-0.2686,-0.2686,-0.2686,-0.2693,-0.2744,-0.2846,-0.289,-0.3008,-0.3185,-0.3266,-0.3363,-0.3517,-0.4544,-0.513,-0.5351,-0.6659,-0.7596,-1.5919,-1.6278,-1.6448,-1.8534,-1.9429,-1.9847,-2.0007,-2.004,-1.9924,-1.9612,-1.956,-1.9247,-1.8119,-1.8704,-1.9142,-1.8601,-1.8949,-1.9655,-2.0682,-1.98,-1.892,-1.8599,-1.7555,-1.701,-1.7355,-1.8028,-1.8877,-1.9946,-2.0191,-2.0313,-2.0317,-2.0365,-2.0391,-2.0406,-2.0334,-1.9779,-1.8653,-1.8623,-1.8064,-1.694,-1.6642,-1.6013,-1.5109,-1.3952,-1.343,-1.3396,-1.3396,-1.3396,-1.3379,-1.3121,-1.3013,-1.2995,-1.2722,-1.2212,-1.1522,-1.06,-1.0671,-1.1286,-1.171,-1.1464,-1.0962,-1.1087,-1.1147,-1.1316,-1.2094,-1.2172,-1.2124,-1.2783,-1.2815,-1.2553,-1.2182,-1.2102,-1.1979,-1.1461,-1.1036,-1.0295,-0.8804,-0.861,-0.8229,-0.6587,-0.6684,-0.667,-0.5473,-0.5269,-0.4985,-0.4151,-0.4064,-0.4064,-0.4026,-0.3626,-0.3171,-0.2763,-0.2696,-0.2696,-0.2696,-0.2696,-0.2696,-0.2696,-0.2696,-0.27,-0.2706,-0.2692,-0.2766,-0.292,-0.3162,-0.3309,-0.3313,-0.405,-0.4739,-0.5313,-0.6214,-0.6968,-1.3805,-1.5324,-1.6503,-1.6779,-1.77,-1.8351,-1.7646,-1.7486,-1.7343,-1.6866,-1.6675,-1.6367,-1.5722,-1.6268,-1.709,-1.7934,-1.8179,-1.8795,-2.0252,-1.9623,-1.9169,-1.9652,-1.8621,-1.8051,-1.8534,-1.7229,-1.7003,-1.8615,-1.8685,-1.8926,-1.96,-2.0158,-2.0427,-2.0336,-2.0351,-2.016,-1.9732,-1.9522,-1.8945,-1.8015,-1.6907,-1.5876,-1.4941,-1.4384,-1.3765,-1.3138,-1.3138,-1.3033,-1.2871,-1.2778,-1.2724,-1.2654,-1.18,-1.1415,-1.1208,-1.0131,-0.9716,-0.9662,-0.9602,-0.976,-0.9996,-1.0184,-1.0572,-1.0991,-1.1134,-1.1253,-1.1298,-1.0968,-1.1296,-1.1568,-1.0842,-1.0775,-1.0791,-1.0334,-0.9792,-0.9026,-0.7684,-0.7204,-0.6709,-0.5617,-0.5215,-0.4953,-0.4553,-0.4352,-0.4121,-0.3719,-0.3677,-0.3677,-0.3677,-0.3216,-0.2856,-0.273,-0.215,-0.1778,-0.1778,-0.1778,-0.2047,-0.2663,-0.2117,-0.1778,-0.1778,-0.2361,-0.2704,-0.2759,-0.2988,-0.3172,-0.3306,-0.4431,-0.5087,-0.5308,-0.6385,-0.6952,-1.2718,-1.4388,-1.5861,-1.533,-1.5828,-1.617,-1.5152,-1.4659,-1.4256,-1.3741,-1.3024,-1.2318,-1.1771,-1.2598,-1.3848,-1.5372,-1.6329,-1.762,-1.9757,-1.9074,-1.8734,-1.9774,-1.8603,-1.8045,-1.896,-1.6753,-1.598,-1.7746,-1.7815,-1.8153,-1.907,-1.9819,-2.0231,-2.0253,-2.0021,-1.9837,-1.9726,-1.9181,-1.8531,-1.7757,-1.6435,-1.5433,-1.4744,-1.4314,-1.3748,-1.3138,-1.3138,-1.2997,-1.2741,-1.2501,-1.2349,-1.2167,-1.1012,-1.0525,-1.032,-0.9387,-0.8816,-0.853,-0.8612,-0.8799,-0.9042,-0.9224,-0.9618,-1.0027,-1.0092,-1.0329,-1.0455,-0.9979,-1.037,-1.075,-0.9917,-0.9714,-0.964,-0.9255,-0.8513,-0.7605,-0.6609,-0.5967,-0.5381,-0.4788,-0.4367,-0.3891,-0.3284,-0.2775,-0.2474,-0.2557,-0.2639,-0.2709,-0.2709,-0.2417,-0.2323,-0.267,-0.2156,-0.1544,-0.0905,-0.0838,-0.1106,-0.1713,-0.1782,-0.151,-0.0871,-0.141,-0.1877,-0.2186,-0.264,-0.3008,-0.3317,-0.4169,-0.4843,-0.5303,-0.6033,-0.6592,-1.26,-1.3514,-1.4438,-1.4153,-1.3803,-1.3344,-1.2484,-1.156,-1.0725,-1.0195,-0.8625,-0.7164,-0.652,-0.787,-0.96,-1.1279,-1.3543,-1.6108,-1.9127,-1.8248,-1.7776,-1.9019,-1.7646,-1.7145,-1.864,-1.6618,-1.5842,-1.7344,-1.7535,-1.7914,-1.8663,-1.9306,-1.9808,-2.0189,-1.9423,-1.8906,-1.8729,-1.771,-1.6886,-1.6216,-1.5275,-1.4693,-1.4392,-1.37,-1.3363,-1.3346,-1.3312,-1.3157,-1.2887,-1.2273,-1.1875,-1.154,-1.0399,-0.9592,-0.9018,-0.8374,-0.7985,-0.79,-0.8713,-0.8618,-0.8158,-0.8335,-0.8374,-0.8459,-0.8965,-0.9302,-0.9561,-0.9737,-0.9962,-0.9994,-0.9353,-0.8882,-0.8508,-0.8168,-0.7221,-0.6215,-0.5472,-0.4767,-0.4199,-0.3967,-0.391,-0.3359,-0.1698,-0.0602,-0.0132,-0.0734,-0.1003,-0.1204,-0.1338,-0.1306,-0.1577,-0.2472,-0.2475,-0.172,-0.0,0.0067,-0.0,-0.0,-0.1619,-0.1789,-0.0067,-0.0,-0.0402,-0.1204,-0.2156,-0.2834,-0.3299,-0.332,-0.4009,-0.526,-0.5303,-0.5905,-1.1818,-1.1974,-1.1885,-1.1321,-1.0784,-0.997,-0.8429,-0.719,-0.6012,-0.4855,-0.3756,-0.3183,-0.3747,-0.467,-0.6829,-1.1374,-1.2781,-1.4599,-1.826,-1.8827,-1.8849,-1.8917,-1.9027,-1.8917,-1.854,-1.743,-1.6709,-1.6612,-1.6225,-1.6435,-1.748,-1.8397,-1.9233,-2.0027,-1.9427,-1.9036,-1.8916,-1.7098,-1.5864,-1.5257,-1.4357,-1.3734,-1.3385,-1.3186,-1.2887,-1.2491,-1.2234,-1.1989,-1.1702,-1.1349,-1.1159,-1.0968,-0.9567,-0.907,-0.8944,-0.7694,-0.7407,-0.765,-0.7673,-0.7959,-0.8335,-0.8374,-0.8187,-0.7955,-0.8005,-0.8184,-0.8342,-0.811,-0.8063,-0.798,-0.7599,-0.7289,-0.6971,-0.6631,-0.6525,-0.5802,-0.3278,-0.2594,-0.2259,-0.1606,-0.117,-0.0783,-0.0448,0.0329,0.0793,0.0498,0.0568,-0.01,-0.2091,-0.1176,-0.0436,-0.0672,0.0504,0.1516,0.196,0.0773,-0.0,-0.0,-0.0437,-0.0471,-0.0034,-0.0,-0.0101,-0.0335,-0.1201,-0.2122,-0.306,-0.3681,-0.4219,-0.4652,-0.5087,-0.5696,-1.0806,-1.0259,-0.9527,-0.8333,-0.711,-0.5737,-0.4139,-0.2679,-0.1413,-0.0708,0.0481,0.1008,-0.034,-0.1977,-0.4498,-0.8518,-1.1142,-1.3593,-1.6319,-1.7319,-1.7955,-1.8395,-1.8696,-1.8871,-1.8873,-1.7321,-1.6192,-1.5906,-1.5381,-1.5486,-1.6435,-1.7046,-1.7723,-1.8476,-1.8032,-1.7558,-1.707,-1.5762,-1.4717,-1.3956,-1.3379,-1.2865,-1.2392,-1.2392,-1.2142,-1.1713,-1.1511,-1.1189,-1.0782,-1.0315,-1.0032,-0.978,-0.8259,-0.7816,-0.7921,-0.6815,-0.6776,-0.7241,-0.7071,-0.7369,-0.7836,-0.7866,-0.7651,-0.7407,-0.7428,-0.7355,-0.7248,-0.6952,-0.6752,-0.6599,-0.6504,-0.5792,-0.488,-0.4252,-0.3876,-0.3159,-0.1322,-0.0701,-0.0375,0.01,0.1042,0.1764,0.1672,0.2089,0.2339,0.2082,0.2159,0.176,0.0399,0.0434,0.057,0.057,0.1479,0.2262,0.2673,0.1785,0.1007,0.0603,0.057,0.0402,-0.0,-0.0,-0.0,-0.0,-0.0863,-0.1893,-0.306,-0.3486,-0.3975,-0.4391,-0.4735,-0.5216,-0.9203,-0.8048,-0.683,-0.4962,-0.2967,-0.1122,0.0275,0.1951,0.3152,0.3008,0.4334,0.5012,0.3283,0.0682,-0.1942,-0.4127,-0.8297,-1.1763,-1.3059,-1.4372,-1.5626,-1.6833,-1.6961,-1.7383,-1.8443,-1.6004,-1.447,-1.4764,-1.4138,-1.4204,-1.5245,-1.5352,-1.5667,-1.6207,-1.595,-1.5371,-1.4523,-1.4287,-1.3768,-1.297,-1.2806,-1.2309,-1.1593,-1.1593,-1.1408,-1.1056,-1.0959,-1.0336,-0.9305,-0.861,-0.8074,-0.7562,-0.6322,-0.5984,-0.6156,-0.5901,-0.6218,-0.6765,-0.6778,-0.6885,-0.7026,-0.7073,-0.6913,-0.6749,-0.6986,-0.6673,-0.6199,-0.5782,-0.5506,-0.5292,-0.5146,-0.3837,-0.227,-0.1266,-0.016,0.0767,0.1028,0.1305,0.1532,0.1496,0.2788,0.3861,0.3861,0.4031,0.4043,0.3704,0.3635,0.3746,0.3976,0.2534,0.1471,0.1471,0.1473,0.1811,0.263,0.2696,0.2356,0.154,0.1475,0.1141,0.0403,0.0134,-0.0,-0.0,-0.0737,-0.1761,-0.3033,-0.312,-0.3505,-0.4267,-0.4295,-0.4609,-0.5882,-0.4074,-0.2071,-0.0247,0.1541,0.324,0.4795,0.661,0.7869,0.7602,0.799,0.789,0.6202,0.4445,0.2403,-0.0206,-0.2756,-0.5109,-0.7103,-1.0218,-1.2141,-1.1606,-1.3353,-1.4324,-1.3686,-1.207,-1.1176,-1.1567,-0.989,-1.0072,-1.298,-1.326,-1.3629,-1.4261,-1.4234,-1.4168,-1.4101,-1.4064,-1.398,-1.3871,-1.3837,-1.3047,-1.1605,-1.1605,-1.136,-1.0911,-1.0296,-0.811,-0.4963,-0.4512,-0.3567,-0.2477,-0.3211,-0.3519,-0.3745,-0.5298,-0.6192,-0.663,-0.6637,-0.6628,-0.6596,-0.655,-0.6133,-0.5738,-0.6096,-0.5917,-0.5194,-0.3414,-0.3124,-0.2942,-0.1024,0.0268,0.1331,0.223,0.3398,0.4534,0.5451,0.464,0.363,0.3189,0.3692,0.4218,0.4218,0.4656,0.4872,0.4471,0.4407,0.4322,0.4026,0.3093,0.2465,0.2465,0.2447,0.2526,0.2696,0.2696,0.263,0.2456,0.2466,0.2402,0.2234,0.0808,-0.0,-0.0,-0.0134,-0.1073,-0.2774,-0.3118,-0.3342,-0.3514,-0.3644,-0.4052,-0.1982,-0.0332,0.1563,0.3515,0.534,0.6954,0.8166,0.9496,1.0205,0.9287,0.9683,0.9702,0.8026,0.646,0.4904,0.32,0.0855,-0.1383,-0.3172,-0.5882,-0.7571,-0.7175,-0.8842,-0.9763,-0.918,-0.7798,-0.7287,-0.8137,-0.6544,-0.6827,-0.9838,-0.9108,-0.8825,-0.9357,-0.8634,-0.8213,-0.8172,-0.7524,-0.696,-0.6495,-0.6011,-0.5195,-0.4114,-0.4316,-0.4192,-0.375,-0.3578,-0.2331,-0.0378,0.0026,0.0593,0.1188,0.0594,0.0219,-0.013,-0.1231,-0.1846,-0.2075,-0.1726,-0.1489,-0.1293,-0.1019,-0.2067,-0.3418,-0.3413,-0.2715,-0.1737,-0.0971,-0.0413,0.0264,0.177,0.2829,0.3957,0.574,0.6386,0.6677,0.6915,0.6466,0.5795,0.5047,0.5386,0.5796,0.5796,0.6002,0.6089,0.5876,0.5714,0.5512,0.5338,0.4714,0.4076,0.3453,0.3372,0.3282,0.3047,0.301,0.2915,0.2723,0.27,0.2466,0.1988,0.1617,0.0976,0.0034,-0.0,-0.0414,-0.1307,-0.2452,-0.3139,-0.3448,-0.3557,-0.3751,0.2194,0.3588,0.517,0.729,0.894,1.0212,1.093,1.1556,1.1592,1.0183,1.0664,1.0905,0.9409,0.8146,0.716,0.6549,0.444,0.2371,0.0977,-0.0857,-0.2329,-0.3002,-0.3949,-0.4679,-0.4953,-0.3484,-0.2923,-0.391,-0.2609,-0.3101,-0.6185,-0.4656,-0.3899,-0.4364,-0.3052,-0.2483,-0.2774,-0.1419,-0.0005,0.1428,0.2162,0.3535,0.5396,0.5151,0.5134,0.5271,0.4927,0.4857,0.4987,0.5252,0.5291,0.5165,0.5245,0.4933,0.4414,0.4328,0.4323,0.4419,0.5047,0.5434,0.5664,0.5699,0.3013,-0.0201,0.0166,0.1186,0.2266,0.2403,0.3141,0.4023,0.4598,0.5217,0.6282,0.8561,0.8832,0.8401,0.768,0.7772,0.7759,0.6873,0.7199,0.7621,0.7621,0.7552,0.7473,0.7386,0.7064,0.6832,0.6743,0.6326,0.5707,0.4732,0.4333,0.3983,0.3612,0.3421,0.3163,0.2841,0.2756,0.2286,0.1338,0.1818,0.1449,0.0034,-0.0,-0.0,-0.0,-0.1444,-0.2478,-0.3115,-0.3457,-0.3585,0.665,0.8023,0.9634,1.1835,1.2519,1.2774,1.3196,1.3078,1.251,1.1325,1.1441,1.1522,1.0754,1.0468,1.0394,1.0335,0.9489,0.8403,0.699,0.5414,0.3503,0.107,0.0932,0.04,-0.123,0.0672,0.1962,0.1831,0.335,0.2345,-0.21,-0.113,-0.0731,-0.1364,-0.0442,-0.0812,-0.2691,-0.1021,0.1368,0.4405,0.4488,0.7819,1.3902,1.4093,1.3873,1.3323,1.2982,1.2509,1.1953,1.1802,1.1408,1.0888,1.1236,1.0807,1.0045,1.0621,1.1298,1.1972,1.2466,1.2756,1.2722,1.141,0.7838,0.4078,0.4358,0.4806,0.5668,0.7892,0.8444,0.8415,0.8399,0.838,0.863,0.9799,1.0447,1.0464,0.9182,0.9124,0.9122,0.8433,0.8635,0.8926,0.8926,0.9006,0.897,0.8612,0.8259,0.7923,0.7531,0.7143,0.6839,0.675,0.5428,0.4541,0.4477,0.3742,0.3294,0.3261,0.2885,0.2286,0.1338,0.0637,0.0168,-0.0,-0.0,-0.0,-0.0,-0.0149,-0.0666,-0.154,-0.2936,-0.3595,1.0794,1.1443,1.2232,1.4493,1.467,1.4365,1.4563,1.4077,1.3097,1.1519,1.1861,1.2246,1.1516,1.2052,1.2502,1.2138,1.2141,1.1527,0.9789,0.8606,0.723,0.549,0.4987,0.4385,0.3403,0.4156,0.4764,0.492,0.6582,0.6617,0.4448,0.4229,0.4134,0.4053,0.5524,0.5996,0.5382,0.6979,0.8503,0.9919,1.0488,1.217,1.4818,1.49,1.4704,1.4329,1.4202,1.395,1.361,1.3618,1.3423,1.3081,1.2884,1.2475,1.2039,1.2096,1.2373,1.2793,1.3406,1.3761,1.3868,1.3281,1.1808,0.9973,0.8405,0.8137,0.8576,0.9566,0.9947,1.0184,1.0604,1.0655,1.0678,1.1085,1.1246,1.107,1.0148,1.041,1.0627,0.9962,1.0027,1.0191,1.0191,1.0027,0.9856,0.9678,0.9221,0.8804,0.8645,0.8297,0.8094,0.8094,0.6678,0.5543,0.501,0.463,0.4124,0.3355,0.2937,0.2377,0.1642,0.1072,0.0536,-0.0,-0.0,-0.0,-0.0,-0.0,-0.0196,-0.0548,-0.1893,-0.2509,1.4028,1.4488,1.495,1.6524,1.6518,1.6066,1.5797,1.502,1.397,1.2536,1.2845,1.3266,1.2735,1.3416,1.3873,1.3238,1.3505,1.3168,1.1364,1.0797,1.0049,0.8556,0.8362,0.7997,0.7088,0.7471,0.7763,0.7805,0.9264,1.0035,0.9763,0.8757,0.8157,0.8074,0.9728,1.0662,1.0734,1.2329,1.3108,1.3076,1.3945,1.4441,1.4549,1.4506,1.4434,1.4366,1.4355,1.4287,1.4199,1.435,1.4352,1.4237,1.3886,1.365,1.3492,1.3281,1.3251,1.3412,1.393,1.4207,1.433,1.4335,1.4294,1.3908,1.1978,1.1348,1.1315,1.1308,1.1486,1.1835,1.2302,1.2274,1.2162,1.2271,1.2075,1.1745,1.1368,1.1753,1.2007,1.1447,1.1317,1.1279,1.1279,1.0912,1.0599,1.0599,1.012,0.9766,0.9766,0.9468,0.92,0.912,0.8045,0.6887,0.5837,0.5418,0.4764,0.3746,0.322,0.2761,0.2335,0.217,0.1702,0.0802,0.0534,0.0368,0.0369,0.0486,0.0548,0.0509,-0.0343,-0.0937,1.6062,1.7211,1.8222,1.8207,1.8222,1.7988,1.6917,1.6127,1.5426,1.4812,1.4652,1.4698,1.4652,1.4698,1.4468,1.3909,1.3815,1.3341,1.1999,1.2421,1.2029,0.9762,1.1069,1.1367,0.9359,1.0683,1.1428,1.0887,1.179,1.2526,1.2931,1.1821,1.0703,0.9717,1.0923,1.1333,1.0813,1.2536,1.3103,1.2526,1.3253,1.3827,1.4206,1.4207,1.4311,1.4493,1.449,1.4456,1.4404,1.462,1.4689,1.4715,1.4921,1.4978,1.4984,1.5057,1.5061,1.5089,1.5232,1.5199,1.5097,1.5097,1.5007,1.4882,1.4862,1.4429,1.3961,1.3869,1.3858,1.3838,1.3711,1.3293,1.2991,1.3395,1.3078,1.2781,1.3105,1.3227,1.3193,1.2917,1.2501,1.2205,1.2205,1.1688,1.1296,1.1296,1.1071,1.0873,1.0873,1.053,1.0158,0.983,0.947,0.8634,0.7104,0.5891,0.5023,0.4596,0.3904,0.3477,0.3473,0.3803,0.3574,0.2695,0.1753,0.1293,0.1273,0.1605,0.1763,0.1767,0.176,0.1114,1.706,1.793,1.8887,1.9602,1.9308,1.8692,1.8064,1.7023,1.588,1.488,1.4376,1.419,1.4606,1.4376,1.411,1.4178,1.3978,1.3453,1.2424,1.265,1.2203,1.0349,1.0763,1.1032,1.0424,1.1473,1.2137,1.2018,1.2586,1.2839,1.2596,1.2274,1.1911,1.1496,1.1607,1.178,1.2028,1.2758,1.316,1.3253,1.3496,1.3678,1.3813,1.4033,1.4096,1.4033,1.4267,1.4367,1.4405,1.4419,1.4448,1.4495,1.4513,1.4612,1.4738,1.4756,1.4847,1.4971,1.5012,1.5037,1.5041,1.5095,1.5064,1.5054,1.5156,1.4845,1.4462,1.4402,1.4373,1.4392,1.4505,1.3858,1.3241,1.3464,1.3193,1.2926,1.3053,1.3331,1.3496,1.3227,1.2896,1.2619,1.2494,1.232,1.2138,1.1946,1.1659,1.1379,1.1196,1.0893,1.0678,1.0567,0.9687,0.8653,0.7569,0.7121,0.6364,0.5086,0.4789,0.4413,0.3853,0.3928,0.3966,0.3868,0.318,0.2616,0.2266,0.2365,0.2497,0.2682,0.2933,0.2827,1.7726,1.8714,1.9805,2.0299,2.0115,1.9597,1.8775,1.7637,1.6409,1.5264,1.456,1.4236,1.4606,1.4376,1.4146,1.4146,1.3957,1.3433,1.2379,1.2632,1.2522,1.1459,1.1712,1.181,1.1446,1.2423,1.2906,1.2544,1.2943,1.315,1.298,1.2911,1.2816,1.2632,1.2141,1.2123,1.2591,1.2778,1.2982,1.3211,1.3211,1.3261,1.3327,1.3578,1.3669,1.3641,1.3904,1.4028,0.0,1.4105,1.4174,1.4204,1.4247,1.44,1.4569,1.4621,1.471,1.4827,1.4887,1.4928,1.4968,1.5018,1.5063,1.5116,1.5206,1.507,1.4922,1.489,1.487,1.4877,1.4954,1.4257,1.3612,1.3948,1.3626,1.3315,1.3637,1.3881,1.3969,1.3757,1.3435,1.316,1.297,1.2824,1.2654,1.2498,1.2229,1.1968,1.1809,1.1343,1.0958,1.0848,1.0062,0.9198,0.8357,0.7873,0.7158,0.6158,0.5953,0.5645,0.5155,0.5017,0.4941,0.4922,0.4413,0.3894,0.3408,0.3332,0.3374,0.361,0.3928,0.4049,0.0,1.9483,2.0862,2.0416,2.0583,2.0518,1.906,1.7917,0.0,1.574,1.505,1.4652,1.4709,1.4606,1.4329,1.3905,1.3695,1.314,1.195,1.2363,1.2774,1.2978,1.3468,1.3466,1.2521,1.3396,1.3594,1.2615,1.2943,1.3391,1.3835,1.3597,1.337,1.3173,1.2583,1.2365,1.2572,1.2572,1.2591,1.261,1.261,1.2727,1.2898,1.2998,1.3139,1.3312,1.3507,1.3526,1.3446,1.3741,1.387,1.3899,1.4065,1.4257,1.4446,1.4574,1.4637,1.4658,1.4804,1.485,1.4868,1.4895,1.4985,1.5087,1.5093,1.5192,1.5298,1.5295,1.5306,1.5262,1.5155,1.4549,1.4137,1.4774,1.4295,1.3925,1.4732,1.4766,1.4584,1.4445,1.4039,1.3694,1.3569,1.3226,1.2953,1.2953,1.2785,1.2617,1.2549,1.1769,1.1088,1.0692,1.0474,1.0088,0.9434,0.8294,0.7638,0.7674,0.7338,0.7104,0.7055,0.6734,0.635,0.5891,0.5473,0.5048,0.4636,0.4361,0.4295,0.438,0.4724,0.4788,1.7504,0.0,2.0449,2.0348,2.0112,1.9596,0.0,1.7303,1.628,1.5141,1.4422,1.4143,1.4606,1.349,1.2891,1.4084,1.2693,1.1512,1.1558,1.1404,1.1864,1.3399,1.3328,1.3271,1.3579,1.3403,1.3202,1.3052,1.3129,1.3267,1.3357,1.3168,1.3037,1.2981,1.2977,1.276,1.2307,1.2291,1.2412,1.261,1.2797,1.2942,1.298,1.3208,1.3329,1.3379,1.3429,1.3494,1.3556,1.3527,1.3589,1.3678,1.3605,1.3682,1.3827,1.3835,1.3965,1.4113,1.4296,1.4356,1.4414,1.4776,1.4957,1.5037,1.5152,1.5236,1.5299,1.5295,1.5293,1.5295,1.5265,1.5042,1.4883,1.5146,1.494,1.4737,1.4939,1.4909,1.4766,1.4584,1.4301,1.4051,1.3971,1.38,1.3596,1.3387,1.3227,1.2855,1.2088,1.1649,1.1132,1.032,1.0061,0.9986,1.0144,0.981,0.9274,0.8492,0.8354,0.806,0.7492,0.7386,0.7152,0.6729,0.6014,0.5473,0.5048,0.4784,0.4477,0.4088,0.4396,0.4442,1.6451,1.8021,1.9626,1.9626,1.9192,1.8564,1.7687,1.6262,1.4879,1.3996,1.3062,1.2531,1.286,1.176,1.1133,1.2081,1.1141,1.06,1.149,1.1141,1.1466,1.317,1.3142,1.3055,1.3226,1.3179,1.3085,1.2899,1.3094,1.3198,1.3198,1.3039,1.2935,1.2886,1.3109,1.291,1.2209,1.2372,1.2457,1.2431,1.2451,1.251,1.2626,1.2908,1.3016,1.3051,1.3295,1.3446,1.3493,1.3429,1.3478,1.3601,1.3526,1.3588,1.3736,1.3736,1.3813,1.3927,1.4024,1.4123,1.4252,1.4595,1.4785,1.489,1.5023,1.5106,1.5171,1.5263,1.5297,1.5301,1.5292,1.5243,1.5202,1.5287,1.5223,1.5133,1.5133,1.5085,1.4981,1.4818,1.4672,1.4532,1.4412,1.4289,1.4149,1.3926,1.3454,1.2933,1.2368,1.1736,1.1124,1.0607,1.0601,1.0699,1.0933,1.1201,1.0884,0.978,0.9537,0.9265,0.8866,0.8552,0.8034,0.7346,0.6725,0.6182,0.5798,0.5634,0.5442,0.5156,0.5424,0.5404,1.5227,1.6426,1.7752,1.8026,1.754,1.6809,1.6207,1.4563,1.2979,1.2435,1.149,1.0762,1.0653,0.9951,0.9409,0.9519,0.9526,1.0046,1.1458,1.1166,1.1375,1.2861,1.2965,1.2853,1.2605,1.2941,1.303,1.2615,1.2978,1.316,1.3073,1.2974,1.2852,1.2706,1.3052,1.2903,1.2164,1.2687,1.2773,1.2451,1.2152,1.2134,1.2344,1.2522,1.261,1.263,1.3122,1.3346,1.3346,1.3379,1.3462,1.357,1.357,1.3678,1.3827,1.3827,1.3827,1.3827,1.3856,1.3983,1.4188,1.4368,1.4519,1.4629,1.4776,1.4873,1.4985,1.5152,1.5254,1.5308,1.5291,1.5291,1.5291,1.5307,1.5289,1.5294,1.5303,1.5248,1.5151,1.5049,1.5026,1.4946,1.4785,1.469,1.4602,1.4478,1.3728,1.3122,1.2973,1.2038,1.1322,1.1148,1.1478,1.171,1.1693,1.2286,1.2229,1.1273,1.0766,1.0465,1.0381,0.9728,0.8966,0.8114,0.7598,0.7189,0.6854,0.6743,0.6691,0.6661,0.6793,0.6673,1.3964,1.3351,1.3037,1.4545,1.4072,1.2889,1.1705,1.1275,1.098,1.0327,1.0527,1.0594,1.0003,0.882,0.813,0.8768,0.886,0.9349,1.0754,1.0864,1.1507,1.3437,1.2882,1.2707,1.3668,1.3031,1.2669,1.305,1.3163,1.2998,1.2567,1.2506,1.2285,1.1804,1.2598,1.2727,1.2038,1.3116,1.3625,1.3545,1.3168,1.3012,1.3041,1.2744,1.261,1.261,1.2924,1.3067,1.3085,1.3311,1.3413,1.3429,1.3429,1.3446,1.3479,1.3479,1.3479,1.3478,1.3619,1.3783,1.3965,1.4098,1.4186,1.4217,1.4338,1.4526,1.4673,1.476,1.5047,1.5303,1.5308,1.5294,1.5296,1.5307,1.5254,1.5224,1.5295,1.5193,1.5149,1.5234,1.5114,1.5017,1.5037,1.4936,1.486,1.4822,1.4559,1.4077,1.333,1.2927,1.2359,1.1449,1.1909,1.2229,1.2126,1.2573,1.2789,1.259,1.1902,1.1283,1.0835,1.0108,0.9779,0.9907,0.9016,0.8485,0.8365,0.7781,0.7482,0.7424,0.6824,0.6668,1.1675,1.0789,0.9923,0.9532,0.9854,1.0025,0.8948,0.8273,0.7854,0.7961,0.7927,0.7945,0.8035,0.7175,0.6582,0.6897,0.7298,0.8205,0.9959,1.0543,1.1416,1.3132,1.2451,1.2087,1.2637,1.2311,1.2158,1.2413,1.2908,1.296,1.2441,1.2128,1.1989,1.2027,1.2381,1.2724,1.3019,1.4026,1.42,1.3634,1.3172,1.3144,1.3398,1.2852,1.2668,1.2815,1.2942,1.3317,1.381,1.3775,1.41,1.4599,1.4599,1.4599,1.453,1.4141,1.3735,1.343,1.3556,1.3646,1.3766,1.3948,1.4069,1.4185,1.4306,1.4481,1.4671,1.4783,1.497,1.5159,1.526,1.5299,1.5295,1.5295,1.5287,1.5268,1.5292,1.5229,1.5182,1.5287,1.5235,1.5149,1.5104,1.5114,1.5095,1.5017,1.4538,1.4015,1.3613,1.3299,1.2924,1.2433,1.2877,1.319,1.3133,1.3311,1.3244,1.2785,1.2388,1.1927,1.1357,1.0829,1.0473,1.0294,0.9677,0.9315,0.9305,0.8985,0.8727,0.8508,0.8175,0.7789,0.9644,0.8704,0.7482,0.5645,0.6385,0.7264,0.6338,0.5496,0.5069,0.5623,0.5591,0.5612,0.6027,0.576,0.5483,0.5479,0.6249,0.7587,0.9688,1.0434,1.1334,1.2725,1.2145,1.164,1.177,1.1683,1.17,1.1957,1.2615,1.2846,1.2409,1.2015,1.1914,1.2203,1.2221,1.2681,1.3526,1.4495,1.4587,1.3865,1.3317,1.326,1.3634,1.279,1.2553,1.2813,1.2887,1.3427,1.4274,1.4142,1.4592,1.5362,1.5178,1.507,1.4944,1.4611,1.4141,1.3701,1.3972,1.4056,1.4089,1.4249,1.4297,1.4296,1.4378,1.4429,1.4482,1.4661,1.4774,1.492,1.5151,1.5229,1.5223,1.5223,1.525,1.5274,1.5293,1.5262,1.5246,1.5293,1.5307,1.5293,1.5165,1.5248,1.5289,1.5157,1.4583,1.4125,1.408,1.3815,1.3605,1.3553,1.3878,1.4119,1.4246,1.409,1.3743,1.3218,1.292,1.2521,1.1932,1.1576,1.1203,1.0753,1.0352,1.0143,1.0143,1.0007,0.9843,0.9664,0.9496,0.905,0.8999,0.727,0.5554,0.4692,0.458,0.4303,0.2881,0.3044,0.3479,0.3534,0.4569,0.5287,0.4696,0.5093,0.5479,0.5504,0.672,0.8343,1.045,1.0762,1.1334,1.2725,1.2145,1.177,1.2223,1.1514,1.1431,1.2389,1.2508,1.2491,1.2409,1.2366,1.2128,1.1663,1.2134,1.2411,1.2499,1.3848,1.4679,1.4976,1.4133,1.376,1.374,1.2456,1.2003,1.2271,1.2514,1.3031,1.3673,1.3909,1.4286,1.461,1.3983,1.3508,1.3299,1.4185,1.4461,1.453,1.5225,1.5445,1.5465,1.5465,1.5026,1.4465,1.4483,1.4108,1.3748,1.4067,1.4294,1.4511,1.4831,1.4965,1.5021,1.5021,1.5114,1.5212,1.5295,1.5301,1.5287,1.5292,1.5353,1.5371,1.5293,1.5351,1.5371,1.5306,1.5228,1.5127,1.4952,1.4885,1.4793,1.4605,1.4621,1.4825,1.5257,1.4603,1.4383,1.4889,1.3868,1.3037,1.2556,1.2198,1.2051,1.205,1.1476,1.1185,1.119,1.0575,1.0443,1.0763,1.007,1.0016,0.77,0.6779,0.5801,0.4161,0.339,0.2781,0.1729,0.1728,0.1947,0.1947,0.2717,0.3657,0.4336,0.505,0.5483,0.5525,0.673,0.8283,0.9908,1.0493,1.1189,1.2311,1.1934,1.1704,1.1912,1.1668,1.1774,1.2461,1.2768,1.2778,1.2409,1.2416,1.2316,1.2102,1.2303,1.2416,1.2416,1.3545,1.4024,1.3816,1.4236,1.4302,1.4023,1.3077,1.2592,1.2467,1.2811,1.3457,1.4335,1.4879,1.5302,1.5525,1.5044,1.4619,1.4344,1.4725,1.4865,1.4914,1.518,1.5439,1.5595,1.5595,1.5505,1.5292,1.483,1.4587,1.4392,1.4058,1.4108,1.4379,1.4785,1.4919,1.4933,1.4933,1.4976,1.5023,1.5106,1.5101,1.5152,1.528,1.5318,1.5335,1.535,1.5352,1.5327,1.5303,1.5294,1.5452,1.5888,1.5393,1.5384,1.6402,1.6344,1.6332,1.6503,1.6138,1.5705,1.5318,1.4156,1.3361,1.3054,1.2801,1.2594,1.2455,1.2225,1.2107,1.2102,1.1687,1.1454,1.1402,1.138,1.1249,0.6743,0.6188,0.5571,0.3901,0.2809,0.2063,0.1563,0.1062,0.0839,0.1062,0.1898,0.2954,0.4239,0.5222,0.5873,0.5873,0.7069,0.8501,0.9857,1.0493,1.1137,1.2089,1.1836,1.1644,1.1673,1.161,1.1799,1.2461,1.2803,1.2886,1.2659,1.2634,1.2634,1.2634,1.2634,1.2634,1.2634,1.3487,1.3689,1.3311,1.4238,1.4414,1.386,1.3313,1.2845,1.2487,1.277,1.3508,1.4576,1.5098,1.5464,1.5735,1.555,1.5207,1.4853,1.5168,1.5354,1.5474,1.5709,1.6004,1.6289,1.6289,1.6067,1.5705,1.5208,1.4779,1.4403,1.4012,1.3997,1.4208,1.4658,1.4813,1.4832,1.4832,1.4877,1.4902,1.4965,1.4962,1.5011,1.5159,1.5216,1.5357,1.5726,1.5757,1.5835,1.6078,1.6126,1.6316,1.6875,1.6336,1.6345,1.7485,1.7406,1.7363,1.7615,1.7244,1.6809,1.6355,1.4981,1.3951,1.3507,1.3362,1.3159,1.2898,1.284,1.2783,1.2692,1.2455,1.222,1.2004,1.2509,1.2473,0.6164,0.5239,0.4541,0.3804,0.2915,0.2174,0.2174,0.1062,0.0224,0.095,0.2343,0.3624,0.4349,0.566,0.6588,0.6588,0.783,0.9256,1.061,1.0813,1.1137,1.2089,1.1836,1.1644,1.1683,1.1292,1.142,1.2437,1.2508,1.272,1.3163,1.3198,1.3198,1.3198,1.3198,1.3198,1.3185,1.3648,1.3888,1.3888,1.431,1.4046,1.318,1.2908,1.2591,1.2205,1.2205,1.2957,1.4208,1.4208,1.445,1.4836,1.5082,1.4795,1.4349,1.532,1.5902,1.6312,1.7049,1.7526,1.7789,1.7789,1.6813,1.5612,1.5595,1.4563,1.3479,1.3815,1.3899,1.3983,1.4387,1.4592,1.4707,1.4707,1.4794,1.4895,1.4904,1.4904,1.4919,1.4992,1.5063,1.5432,1.6418,1.6656,1.6982,1.7785,1.7907,1.7907,1.7907,1.7909,1.783,1.7649,1.7507,1.7757,1.8558,1.7768,1.7564,1.8336,1.6542,1.4976,1.3949,1.3913,1.3792,1.3511,1.3376,1.3159,1.2916,1.2692,1.261,1.2626,1.3368,1.3649,0.5848,0.5056,0.433,0.3562,0.2809,0.2174,0.2174,0.1452,0.1006,0.173,0.3056,0.4326,0.505,0.6416,0.7396,0.7396,0.856,0.9814,1.0661,1.1216,1.1679,1.2136,1.1836,1.1762,1.2153,1.1828,1.1945,1.2908,1.2978,1.3047,1.3198,1.3198,1.3198,1.3198,1.3198,1.301,1.2622,1.3167,1.3234,1.2838,1.367,1.3653,1.2857,1.2782,1.2206,1.1345,1.2487,1.3188,1.3638,1.4526,1.5102,1.5393,1.4947,1.4818,1.4933,1.5236,1.5738,1.6297,1.6528,1.6977,1.7439,1.7439,1.7311,1.6948,1.5917,1.5291,1.4753,1.3819,1.3619,1.3736,1.4011,1.4208,1.4374,1.4526,1.46,1.4666,1.4868,1.4904,1.4963,1.5107,1.5658,1.6182,1.6534,1.712,1.7628,1.786,1.79,1.7905,1.7905,1.8939,1.9419,1.8789,1.9062,1.9405,1.9618,1.9273,1.8896,1.8557,1.7894,1.6746,1.5026,1.4282,1.3867,1.3774,1.36,1.3474,1.3393,1.3053,1.2887,1.292,1.3923,1.4384,0.5326,0.4643,0.3966,0.3524,0.3042,0.2621,0.2286,0.2063,0.212,0.2565,0.3831,0.4984,0.5429,0.6686,0.7771,0.8078,0.9072,1.0115,1.1065,1.1566,1.1819,1.194,1.1773,1.1733,1.2125,1.1942,1.2174,1.3129,1.3198,1.3198,1.3198,1.3198,1.3198,1.3198,1.3198,1.3035,1.271,1.3035,1.3035,1.2743,1.3326,1.3134,1.2283,1.2706,1.2366,1.1482,1.2903,1.3642,1.3989,1.5007,1.5549,1.5713,1.5257,1.5222,1.5457,1.5457,1.581,1.6301,1.6301,1.6644,1.7101,1.7101,1.7139,1.6937,1.575,1.5278,1.4937,1.3803,1.354,1.3663,1.3856,1.4038,1.4257,1.4453,1.4488,1.4556,1.4776,1.4813,1.4979,1.5534,1.6066,1.6662,1.7465,1.8052,1.8527,1.8886,1.8959,1.8851,1.85,1.9626,2.0252,1.976,2.0025,2.0218,2.0177,2.0031,1.9696,1.9199,1.8719,1.7764,1.6188,1.5152,1.4455,1.4136,1.3941,1.3795,1.3706,1.3394,1.336,1.3622,1.4591,1.5152,0.4728,0.4143,0.3558,0.3558,0.348,0.3231,0.2565,0.2952,0.3508,0.3508,0.4608,0.5597,0.5706,0.6848,0.7978,0.8587,0.9377,1.0312,1.1566,1.1814,1.1851,1.1723,1.1655,1.1662,1.1886,1.183,1.2174,1.3129,1.3198,1.3198,1.3198,1.3198,1.3198,1.3198,1.3198,1.3198,1.3198,1.3198,1.3198,1.3198,1.3198,1.2672,1.1769,1.269,1.2807,1.2337,1.3297,1.4127,1.4807,1.5458,1.5741,1.5741,1.577,1.5799,1.5799,1.5799,1.5983,1.6246,1.6246,1.6474,1.6773,1.6709,1.6484,1.6116,1.5286,1.4791,1.438,1.3764,1.3586,1.3632,1.3838,1.4038,1.4232,1.4453,1.4488,1.4533,1.4677,1.4763,1.5104,1.6119,1.6418,1.7068,1.8804,1.9216,1.9575,2.0371,2.0566,2.0312,1.9512,2.0059,2.0508,2.0508,2.0445,2.0381,2.032,2.0192,2.009,2.0031,1.9209,1.8308,1.7367,1.6299,1.5319,1.4506,1.4295,1.4123,1.3927,1.3739,1.3902,1.4446,1.5261,1.5812,0.4766,0.4002,0.3439,0.3439,0.3363,0.3456,0.3901,0.4556,0.4878,0.432,0.5366,0.6529,0.7122,0.7937,0.8586,0.8738,0.9806,1.0669,1.0965,1.199,1.2648,1.2617,1.2028,1.1895,1.2674,1.2184,1.2174,1.3129,1.3198,1.3198,1.3198,1.3198,1.3198,1.3198,1.3198,1.3198,1.3198,1.3198,1.3198,1.3198,1.3198,1.3073,1.2868,1.2673,1.2655,1.2839,1.3079,1.3698,1.46,1.5077,1.5255,1.5285,1.5668,1.5799,1.5799,1.5799,1.5856,1.5913,1.5913,1.6301,1.6693,1.6109,1.6226,1.6357,1.5025,1.4575,1.4344,1.365,1.3446,1.351,1.3813,1.3941,1.4069,1.4411,1.4488,1.4533,1.4677,1.52,1.5777,1.6206,1.7352,1.8436,1.8996,1.9643,2.0152,2.0466,2.0566,2.0527,2.0332,2.0469,2.0586,2.0586,2.0526,2.0463,2.0455,2.0336,2.0238,2.0241,1.9907,1.9326,1.8498,1.6776,1.544,1.4517,1.4295,1.4175,1.4136,1.3941,1.3826,1.3832,1.5209,1.5799,0.5159,0.4446,0.3889,0.3901,0.4119,0.4443,0.4889,0.5546,0.6032,0.5964,0.6568,0.7235,0.7616,0.8321,0.9008,0.9666,1.0364,1.1023,1.1692,1.2461,1.2803,1.2598,1.2158,1.2007,1.2347,1.2218,1.2281,1.2815,1.3082,1.3198,1.3198,1.3198,1.3198,1.3198,1.3198,1.3198,1.3198,1.3198,1.3198,1.3198,1.3198,1.3198,1.3185,1.2819,1.2953,1.3519,1.3519,1.4118,1.5134,1.5104,1.5225,1.5448,1.5448,1.561,1.5799,1.5799,1.5799,1.5799,1.5799,1.6039,1.6266,1.5867,1.5966,1.6011,1.4899,1.4519,1.436,1.3616,1.3396,1.3446,1.362,1.3786,1.3955,1.4162,1.4362,1.4644,1.5168,1.5301,1.5627,1.6673,1.7619,1.8406,1.8958,1.9754,2.0192,1.989,1.9898,1.9922,1.9922,1.9961,2.0137,2.0566,2.0566,2.0527,2.0508,2.0436,2.0371,2.03,2.0197,1.9732,1.8837,1.7824,1.6617,1.5206,1.5072,1.4739,1.4188,1.4078,1.4119,1.428,1.5037,1.5691,0.5916,0.5171,0.4597,0.4673,0.5109,0.5538,0.5651,0.6253,0.6966,0.7557,0.7723,0.7723,0.7883,0.8474,0.9361,1.0466,1.0813,1.1375,1.2559,1.2822,1.2744,1.2383,1.2229,1.2113,1.1944,1.2196,1.2438,1.2591,1.2957,1.3198,1.3198,1.3198,1.3198,1.3198,1.3198,1.3198,1.3198,1.3198,1.3198,1.3198,1.3198,1.3198,1.3185,1.3038,1.3316,1.3951,1.3951,1.4469,1.5329,1.5013,1.5165,1.5551,1.5225,1.5389,1.5799,1.5799,1.5799,1.5799,1.5799,1.5827,1.587,1.5749,1.5624,1.5392,1.4706,1.4378,1.4121,1.3565,1.3396,1.3396,1.3429,1.3634,1.387,1.3941,1.4219,1.4683,1.5484,1.5232,1.5345,1.6923,1.743,1.7841,1.8609,1.9489,1.9868,1.9202,1.9294,1.9428,1.9414,1.9473,1.9805,2.0527,2.0605,2.0586,2.0527,2.0508,2.0451,2.0347,2.0311,1.9934,1.9092,1.9054,1.8212,1.6436,1.6215,1.5584,1.4456,1.4601,1.4814,1.5061,1.5222,1.5871,0.7157,0.611,0.5374,0.5378,0.5433,0.5651,0.6312,0.702,0.7563,0.767,0.7723,0.7883,0.8533,0.9204,0.9718,0.9917,1.0914,1.1715,1.1922,1.251,1.2861,1.2803,1.2461,1.2351,1.2785,1.2587,1.2574,1.2974,1.313,1.3198,1.3198,1.3198,1.3198,1.3198,1.3198,1.3198,1.3198,1.3198,1.3198,1.3198,1.3198,1.3198,1.3198,1.3191,1.3221,1.331,1.331,1.3416,1.3581,1.3934,1.431,1.469,1.4982,1.5389,1.5799,1.5799,1.5799,1.5799,1.5799,1.5983,1.6126,1.5499,1.5086,1.4742,1.4226,1.3664,1.3236,1.3345,1.3396,1.343,1.354,1.3617,1.3721,1.4083,1.4201,1.4313,1.4616,1.5147,1.5679,1.6036,1.6914,1.7644,1.7775,1.8608,1.9223,1.9119,1.9798,2.0332,2.033,2.0371,2.0469,2.0586,2.0605,2.0605,2.0586,2.0527,2.0488,2.0464,2.036,2.0246,2.0104,2.0104,1.9575,1.843,1.7503,1.652,1.5502,1.6204,1.6142,1.5378,1.6705,1.6986,0.8257,0.723,0.6346,0.6173,0.6416,0.6794,0.7128,0.7777,0.8315,0.8315,0.8315,0.8427,0.8752,0.9361,0.9917,1.0312,1.1166,1.1922,1.2344,1.2715,1.2881,1.2881,1.2715,1.2715,1.3017,1.2849,1.2862,1.3179,1.2951,1.2803,1.2803,1.2803,1.2803,1.2803,1.3047,1.3198,1.3198,1.3198,1.3198,1.3198,1.3198,1.3198,1.3198,1.3198,1.3323,1.3581,1.3581,1.3702,1.3934,1.3901,1.4149,1.4501,1.4438,1.4814,1.5418,1.5418,1.558,1.5799,1.5799,1.5898,1.5966,1.5634,1.5397,1.5128,1.4507,1.4103,1.3778,1.3481,1.3396,1.3413,1.3478,1.354,1.363,1.381,1.4261,1.4709,1.4948,1.5373,1.6011,1.71,1.7729,1.8269,1.8753,1.9269,1.9609,1.9609,1.9679,1.9883,2.0331,2.0026,1.9967,2.0488,2.0547,2.0566,2.0605,2.0566,2.0547,2.0508,2.0445,2.0371,2.03,2.0312,1.983,1.8818,1.8247,1.7498,1.6534,1.6778,1.6666,1.6265,1.6823,1.7077,0.9468,0.8622,0.7929,0.7747,0.8051,0.8385,0.8404,0.8732,0.9008,0.8857,0.8956,0.9061,0.9061,0.9614,1.0218,1.0712,1.1525,1.2295,1.2822,1.2881,1.2881,1.2881,1.2881,1.2936,1.3022,1.3173,1.3238,1.3236,1.3033,1.2794,1.2508,1.2508,1.2508,1.2508,1.2838,1.3094,1.3198,1.3198,1.3198,1.3198,1.3198,1.3198,1.3198,1.3198,1.3391,1.3702,1.3702,1.3967,1.431,1.4019,1.4214,1.4627,1.431,1.4627,1.5285,1.5285,1.5507,1.5799,1.5799,1.5799,1.5799,1.5799,1.5703,1.5486,1.4805,1.4516,1.4271,1.3599,1.3396,1.3396,1.3396,1.3598,1.3849,1.388,1.4581,1.53,1.5605,1.585,1.6404,1.7764,1.8092,1.8298,1.8734,1.9252,1.9563,1.9411,1.9358,1.9576,2.0218,1.9793,1.9713,2.0423,2.0505,2.0527,2.0586,2.0605,2.0586,2.0527,2.0508,2.0453,2.0344,2.0325,1.9953,1.9197,1.904,1.8512,1.7566,1.7577,1.7485,1.7283,1.7282,1.747,1.0806,1.0442,1.0346,1.0687,1.0529,1.0264,1.0324,1.0038,0.9562,0.8903,0.9316,0.9762,0.9762,1.0312,1.0762,1.0813,1.195,1.2881,1.2881,1.2881,1.2881,1.2881,1.2881,1.292,1.289,1.3475,1.3638,1.3043,1.3634,1.3592,1.2567,1.2508,1.2508,1.2508,1.2508,1.2756,1.3198,1.3198,1.3198,1.3198,1.3198,1.3198,1.3198,1.3198,1.3198,1.3232,1.3232,1.348,1.3934,1.3901,1.4374,1.5074,1.5043,1.5359,1.577,1.577,1.577,1.5799,1.5799,1.5799,1.5799,1.5799,1.5582,1.523,1.4758,1.4374,1.4015,1.3531,1.3396,1.3396,1.3396,1.3921,1.4499,1.4693,1.5314,1.5958,1.6355,1.6646,1.6872,1.6958,1.7089,1.6939,1.6232,1.7476,1.8369,1.781,1.9057,2.0111,2.0281,2.0319,2.0385,2.0496,2.0503,2.0527,2.0586,2.0605,2.0605,2.0605,2.0547,2.0508,2.0487,2.0429,2.035,2.0227,2.0084,1.9543,1.8537,1.9151,1.9061,1.8342,1.89,1.8761,1.141,1.119,1.1046,1.1274,1.121,1.1193,1.1453,1.0856,1.0287,1.0492,1.0165,0.9909,1.0364,1.0965,1.1466,1.1466,1.2246,1.2881,1.2881,1.2881,1.2881,1.2881,1.2881,1.3065,1.342,1.3359,1.3411,1.3584,1.322,1.2834,1.2472,1.2494,1.2508,1.2508,1.2791,1.3012,1.3198,1.3198,1.3198,1.3198,1.3198,1.3198,1.3198,1.3198,1.3198,1.3198,1.3198,1.3301,1.3459,1.3459,1.3802,1.4342,1.4342,1.4752,1.5359,1.5359,1.5551,1.5799,1.5799,1.5799,1.5799,1.5799,1.5872,1.5754,1.4669,1.471,1.4951,1.4095,1.3818,1.3837,1.4053,1.431,1.4768,1.5778,1.6362,1.6844,1.7464,1.7503,1.7609,1.8306,1.847,1.8421,1.8126,1.8719,1.9126,1.8918,1.9533,2.0049,2.0087,2.0252,2.035,2.0369,2.0415,2.0451,2.0527,2.0586,2.0605,2.0605,2.0586,2.0547,2.0508,2.0471,2.0422,2.0366,2.0275,1.9988,1.9506,1.9658,1.9575,1.9305,1.9433,1.9351,1.2269,1.222,1.2123,1.2484,1.2502,1.2404,1.2642,1.1986,1.1415,1.1497,1.1072,1.0772,1.1091,1.1674,1.208,1.1814,1.2403,1.2881,1.2881,1.2881,1.2881,1.2881,1.2881,1.3065,1.3467,1.3367,1.3345,1.3586,1.3032,1.2512,1.2189,1.2218,1.233,1.2508,1.2943,1.3198,1.3198,1.3198,1.3198,1.3198,1.3198,1.3198,1.3198,1.3198,1.3198,1.3198,1.3198,1.3301,1.3459,1.3581,1.3901,1.431,1.447,1.4845,1.5329,1.5329,1.5551,1.5799,1.5799,1.5799,1.5769,1.5544,1.5704,1.5743,1.4547,1.4758,1.5222,1.4611,1.4225,1.4133,1.4725,1.5054,1.5544,1.6779,1.7219,1.7483,1.8083,1.8179,1.8348,1.9073,1.9243,1.9198,1.8941,1.9228,1.9434,1.9242,1.9593,1.9901,2.0003,2.0115,2.0233,2.0285,2.0341,2.0395,2.0488,2.0547,2.0586,2.0605,2.0605,2.0586,2.0547,2.0527,2.05,2.043,2.0363,2.0265,2.0106,1.9943,1.9869,1.9869,1.9726,1.9649,0.0,0.0,0.0,1.4541,1.4434,1.4067,1.3885,1.3423,1.2797,1.1786,1.2079,1.2362,1.1904,1.2412,1.2666,1.1972,1.2452,1.2881,1.2881,1.2881,1.2881,1.2881,1.2881,1.2881,1.2881,1.342,1.3543,1.3059,1.3129,1.2732,1.1753,1.1779,1.2029,1.2508,1.2943,1.3198,1.3198,1.3198,1.3198,1.3198,1.3198,1.3198,1.3198,1.3198,1.3198,1.3198,1.3198,1.3459,1.3901,1.431,1.4721,1.5134,1.561,1.5799,1.5799,1.5799,1.5799,1.5799,1.5799,1.5799,1.5694,1.5049,1.5038,1.5185,1.4439,1.4452,1.4774,1.5043,1.4595,1.4295,1.5328,1.6153,1.6864,1.7625,1.7811,1.7861,1.8125,1.8604,1.8966,1.9002,1.915,1.9051,1.8265,1.8775,1.9107,1.8503,1.9093,1.9695,1.9973,2.0012,2.0078,2.0277,2.0312,2.0357,2.0486,2.0508,2.0527,2.0605,2.0605,2.0605,2.0605,2.0605,2.0579,2.0496,2.043,2.0366,2.0312,2.0106,2.0012,2.0012,1.9869,1.9726,1.3027,0.0,0.0,0.0,0.0,0.0,1.4388,1.3541,1.2903,1.3708,1.2862,1.22,1.2909,1.2977,1.2822,1.2618,1.2774,1.2881,1.2881,1.2881,1.2881,1.2881,1.2881,1.2881,1.2881,1.3065,1.3102,1.2934,1.2679,1.2415,1.2163,1.1916,1.2174,1.2978,1.2791,1.2873,1.3198,1.3198,1.3198,1.3198,1.3198,1.3198,1.3198,1.3198,1.3198,1.3198,1.3198,1.3267,1.3425,1.3868,1.431,1.4721,1.5134,1.5507,1.5799,1.5799,1.5799,1.5799,1.5799,1.5799,1.5769,1.5589,1.5585,1.5533,1.4841,1.5042,1.545,1.5299,1.5065,1.5051,1.5835,1.6182,1.6581,1.7558,1.7811,1.7833,1.7883,1.8166,1.8469,1.866,1.8913,1.9013,1.8796,1.9068,1.9246,1.9085,1.9365,1.9656,1.9836,1.9953,2.0078,2.0277,2.0312,2.0337,2.0416,2.0465,2.0527,2.0605,2.0605,2.0605,2.0605,2.0605,2.0585,2.056,2.0503,2.0448,2.0369,2.026,2.0225,2.0205,2.0031,1.9813,1.2822,1.2881,1.2988,1.3408,0.0,0.0,1.4355,1.38,1.3374,1.4126,1.3698,1.335,1.3862,1.378,1.3608,1.3608,1.3223,1.2881,1.2881,1.2881,1.2881,1.2881,1.2881,1.2881,1.2881,1.2881,1.2881,1.2881,1.2493,1.2185,1.2048,1.1883,1.2138,1.2873,1.2826,1.2908,1.3198,1.3198,1.3198,1.3198,1.3198,1.3198,1.3198,1.3198,1.3198,1.3198,1.3198,1.3198,1.3232,1.3702,1.4019,1.431,1.4876,1.5255,1.5551,1.5741,1.5799,1.5799,1.5799,1.5799,1.5754,1.5484,1.5394,1.5319,1.4929,1.5052,1.542,1.5664,1.5801,1.5877,1.5967,1.6324,1.6809,1.7449,1.7704,1.7811,1.7811,1.7927,1.8103,1.8391,1.8659,1.8878,1.8966,1.9102,1.9214,1.9289,1.9394,1.9523,1.9707,1.9778,1.9931,2.0152,2.0169,2.0225,2.0342,2.039,2.0456,2.0547,2.0566,2.0566,2.0605,2.0605,2.0605,2.0605,2.0538,2.0437,2.0369,2.0331,2.0312,2.0304,2.0087,1.989,1.251,1.2725,1.2861,1.3229,1.3377,0.0,1.4018,1.4076,1.4011,1.3828,1.4532,1.5073,1.4722,1.4708,1.4686,1.4633,1.3813,1.3115,1.2939,1.2881,1.2881,1.2881,1.2881,1.2881,1.2881,1.2881,1.2881,1.2881,1.2432,1.2009,1.1724,1.1665,1.192,1.2461,1.2838,1.3094,1.3198,1.3198,1.3198,1.3198,1.3198,1.3198,1.3198,1.3198,1.3198,1.3198,1.3198,1.3198,1.3232,1.3702,1.3901,1.4,1.4752,1.5074,1.5165,1.558,1.577,1.5799,1.5799,1.5799,1.5709,1.5109,1.4902,1.4902,1.4902,1.4902,1.5104,1.5994,1.6448,1.6543,1.5932,1.6467,1.7224,1.7296,1.7526,1.7749,1.7789,1.7811,1.7861,1.8103,1.8371,1.8623,1.8878,1.8949,1.9069,1.9227,1.9289,1.9365,1.9569,1.9614,1.9707,1.9964,1.9993,2.0078,2.0277,2.0296,2.0359,2.0482,2.0507,2.0527,2.0586,2.0605,2.0605,2.0605,2.0536,2.0434,2.0331,2.0312,2.0312,2.0304,2.0115,1.9963,1.1174,1.1592,1.2017,1.2122,1.2565,0.0,1.4143,1.4107,1.4181,1.5286,1.5132,1.4879,1.5119,1.5233,1.5159,1.4771,1.4865,1.45,1.3115,1.2881,1.2881,1.2881,1.2881,1.2881,1.2881,1.2881,1.2881,1.2881,1.2194,1.1714,1.1703,1.1009,1.1169,1.2473,1.221,1.2437,1.3198,1.3198,1.3198,1.3198,1.3198,1.3198,1.3198,1.3198,1.3198,1.3198,1.3198,1.3198,1.3232,1.3702,1.3901,1.3967,1.4438,1.4814,1.5104,1.5195,1.5477,1.5799,1.5799,1.5799,1.5784,1.5649,1.5604,1.5604,1.5604,1.5604,1.5634,1.5839,1.5926,1.6037,1.6157,1.6354,1.6617,1.7158,1.7344,1.7479,1.7726,1.7811,1.7811,1.7861,1.8082,1.829,1.8351,1.8715,1.9001,1.9052,1.9198,1.9365,1.9569,1.9614,1.9707,1.9964,1.9993,2.0078,2.0277,2.0296,2.0332,2.0418,2.048,2.0508,2.0527,2.0566,2.0605,2.0605,2.0522,2.0499,2.0465,2.035,2.0312,2.0304,2.0269,2.0143,1.072,1.1275,1.1783,1.1814,1.2344,0.0,0.0,1.3936,1.4095,1.5145,1.5472,1.5591,1.5798,1.5891,1.5869,1.5603,1.5301,1.4802,1.3915,1.3563,1.3238,1.2929,1.2881,1.2881,1.2881,1.2881,1.2881,1.2881,1.2266,1.193,1.1964,1.1592,1.1675,1.2433,1.2495,1.272,1.3198,1.3198,1.3198,1.3198,1.3198,1.3198,1.3198,1.3198,1.3198,1.3198,1.3198,1.3198,1.3232,1.3459,1.338,1.3246,1.4391,1.4708,1.4674,1.5228,1.561,1.5799,1.5799,1.5799,1.5799,1.5799,1.5799,1.5799,1.5799,1.5799,1.5799,1.5799,1.5799,1.5827,1.6011,1.6163,1.6394,1.6722,1.706,1.7344,1.7526,1.7681,1.7811,1.7811,1.7905,1.81,1.8351,1.8623,1.8878,1.9117,1.9246,1.9335,1.9442,1.9456,1.9559,1.988,1.9901,2.0002,2.0277,2.0312,2.0312,2.035,2.0418,2.047,2.0508,2.0566,2.0605,2.0605,2.0566,2.0539,2.0508,2.0404,2.0328,2.0312,2.0312,2.0197,1.0415,1.1116,1.1616,1.1616,1.2246,1.3007,0.0,0.0,0.0,1.4744,1.5522,1.6125,1.6356,1.6394,1.6383,1.6426,1.5728,1.5131,1.4892,1.4457,1.3905,1.3272,1.3184,1.3135,1.3047,1.293,1.2881,1.2881,1.248,1.218,1.218,1.2131,1.2217,1.2413,1.2733,1.3012,1.3198,1.3198,1.3198,1.3198,1.3198,1.3198,1.3198,1.3198,1.3198,1.3198,1.3198,1.3198,1.3198,1.3301,1.293,1.2481,1.4087,1.4449,1.4141,1.5169,1.5668,1.5799,1.5799,1.5799,1.5799,1.5799,1.5799,1.5799,1.5799,1.5799,1.5799,1.5799,1.5799,1.5799,1.5799,1.6011,1.6219,1.6301,1.6773,1.7224,1.7296,1.7549,1.7811,1.7811,1.7811,1.7949,1.8371,1.8528,1.8734,1.9097,1.9243,1.9305,1.9305,1.9305,1.9419,1.9738,1.9778,1.992,2.0225,2.0277,2.0312,2.0312,2.0369,2.0416,2.0483,2.0566,2.0605,2.0605,2.0605,2.0566,2.0527,2.0453,2.0385,2.0312,2.0312,2.0205,0.971,1.0415,1.0914,1.0914,1.1891,1.291,1.2938,0.0,1.4133,1.5276,0.0,1.5245,1.6281,0.0,0.0,1.6455,1.6841,1.6716,1.5659,1.5454,1.512,1.4324,1.4229,1.4041,1.3478,1.3096,1.2881,1.2881,1.248,1.218,1.218,1.1473,1.146,1.2374,1.2095,1.2354,1.3198,1.3198,1.3198,1.3198,1.3198,1.3198,1.3198,1.3198,1.3198,1.3198,1.3198,1.3198,1.3232,1.3648,1.3114,1.2147,1.3057,1.3544,1.3821,1.4435,1.5134,1.5799,1.5799,1.5799,1.5799,1.5799,1.5799,1.5799,1.5799,1.5799,1.5799,1.5799,1.5799,1.5799,1.5799,1.5827,1.5926,1.6219,1.6581,1.6942,1.7248,1.7549,1.7811,1.7811,1.7811,1.7833,1.7883,1.829,1.8623,1.8679,1.9031,1.9305,1.9305,1.9305,1.938,1.9596,1.9726,1.9858,2.0022,2.0197,2.0312,2.0312,2.0369,2.0405,2.0402,2.0539,2.0605,2.0605,2.0605,2.0605,2.0586,2.0511,2.0424,2.0312,2.0312,2.0285,0.8402,0.8738,0.9134,0.9997,1.0956,1.1886,1.2619,1.3321,1.405,1.4915,0.0,0.0,0.0,0.0,0.0,0.0,1.6722,1.6698,1.6175,1.582,1.5314,1.4486,1.45,1.4482,1.4217,1.3714,1.342,1.342,1.2934,1.2607,1.2607,1.2308,1.217,1.2358,1.2212,1.2353,1.2803,1.2791,1.2943,1.3198,1.3198,1.3198,1.3198,1.3198,1.3198,1.3198,1.3198,1.3198,1.3232,1.3425,1.3019,1.2303,1.2952,1.2991,1.2803,1.4048,1.4527,1.4645,1.4945,1.5195,1.5448,1.5712,1.5799,1.5799,1.5799,1.5799,1.5799,1.5799,1.5799,1.5799,1.5799,1.5799,1.5827,1.5983,1.6394,1.6841,1.6977,1.7432,1.7811,1.7811,1.7811,1.7811,1.7811,1.8121,1.8469,1.8789,1.9,1.9166,1.9274,1.9305,1.9365,1.9569,1.9713,1.9858,2.0003,2.0169,2.0312,2.0312,2.0354,2.0428,2.0453,2.0545,2.0605,2.0605,2.0605,2.0605,2.0605,2.0521,2.0472,2.0427,2.0389,2.035,0.687,0.7175,0.7588,0.8874,0.9841,1.0797,1.1975,1.2783,1.3474,1.4283,1.4468,0.0,0.0,0.0,1.5983,1.6423,0.0,1.6625,1.6281,1.5864,1.5359,1.4731,1.4627,1.4667,1.4853,1.4219,1.3815,1.3815,1.3238,1.2881,1.2881,1.2816,1.2762,1.2754,1.2535,1.259,1.2938,1.2758,1.2873,1.3198,1.3198,1.3198,1.3198,1.3198,1.3198,1.3198,1.3198,1.3198,1.3198,1.3198,1.2872,1.2467,1.2985,1.2639,1.2007,1.352,1.3932,1.3748,1.4131,1.4642,1.5165,1.5507,1.5712,1.5799,1.5799,1.5799,1.5799,1.5799,1.5799,1.5799,1.5799,1.5799,1.5799,1.5799,1.6246,1.6686,1.6789,1.7264,1.7681,1.7789,1.7811,1.7811,1.7811,1.8082,1.845,1.8825,1.9001,1.9134,1.9274,1.9305,1.935,1.9499,1.9638,1.979,1.9924,2.0106,2.0241,2.0304,2.0359,2.0425,2.0508,2.0566,2.0605,2.0605,2.0605,2.0605,2.0605,2.0547,2.0527,2.0538,2.0431,2.0372,0.528,0.5984,0.6696,0.7495,0.8716,0.9944,1.0695,1.1366,1.2258,1.3569,1.3815,1.4179,1.5365,1.6003,1.6403,1.6509,1.6951,0.0,0.0,1.5632,1.5507,1.5311,1.4774,1.4616,1.52,1.4355,1.3815,1.3815,1.3238,1.2881,1.2881,1.2471,1.2701,1.3817,1.2914,1.2942,1.4023,1.3461,1.3198,1.3198,1.3198,1.3198,1.3198,1.3198,1.3198,1.3198,1.3198,1.3198,1.3198,1.3198,1.2872,1.2467,1.2985,1.2542,1.1746,1.2681,1.332,1.3692,1.3706,1.432,1.5104,1.5134,1.5418,1.5799,1.5799,1.5799,1.5799,1.5799,1.5799,1.5799,1.5799,1.5799,1.5799,1.5799,1.6052,1.6394,1.6738,1.7076,1.7415,1.7743,1.7811,1.7811,1.7811,1.8229,1.8585,1.8604,1.8998,1.9289,1.9289,1.9305,1.9305,1.9305,1.9499,1.9656,1.9809,1.9933,2.0087,2.0285,2.0358,2.0438,2.0508,2.0566,2.0605,2.0605,2.0605,2.0605,2.0605,2.0605,2.0605,2.0585,2.0467,2.0402,0.3796,0.4184,0.4685,0.5918,0.7253,0.8495,0.9245,1.0637,1.1913,1.2395,1.3178,1.4168,1.5306,1.5728,1.6102,1.6896,1.6544,1.6058,0.0,1.5276,1.5244,1.5936,1.5835,1.5635,1.551,1.4834,1.4236,1.3815,1.3238,1.2881,1.2881,1.2744,1.2886,1.3354,1.269,1.2736,1.3556,1.3022,1.2908,1.3198,1.3198,1.3198,1.3198,1.3198,1.3198,1.3198,1.3198,1.3198,1.3173,1.281,1.276,1.2897,1.2722,1.2467,1.219,1.2895,1.3019,1.2938,1.3592,1.4196,1.4752,1.5013,1.5418,1.5741,1.5418,1.5551,1.5741,1.5418,1.5551,1.5799,1.5799,1.5799,1.5799,1.5799,1.6067,1.6328,1.6448,1.6901,1.7344,1.7439,1.7658,1.7811,1.7811,1.81,1.8391,1.8566,1.8734,1.8947,1.9259,1.9305,1.9305,1.9305,1.9485,1.9643,1.9797,2.0041,2.0233,2.0304,2.0331,2.0347,2.0363,2.0425,2.0492,2.0527,2.0527,2.0566,2.0605,2.0605,2.0605,2.0605,2.0543,2.0518,0.1994,0.2536,0.3167,0.4338,0.594,0.7488,0.8442,1.0086,1.1516,1.1724,1.3034,1.4354,1.5095,1.5772,1.6318,1.6617,1.6232,1.5752,0.0,1.4971,1.505,1.6003,1.6077,1.6025,1.592,1.5186,1.4468,1.3862,1.3238,1.2881,1.2881,1.2881,1.3022,1.3328,1.2675,1.2704,1.3528,1.2865,1.272,1.3198,1.3198,1.3098,1.291,1.311,1.3098,1.2922,1.3123,1.3085,1.2885,1.2522,1.2584,1.2872,1.2522,1.2529,1.2672,1.2634,1.2429,1.2247,1.3277,1.3934,1.4342,1.4596,1.4968,1.5329,1.5165,1.5329,1.5477,1.5195,1.5448,1.577,1.558,1.5668,1.5799,1.5799,1.5955,1.6163,1.6274,1.6722,1.715,1.7272,1.7572,1.7811,1.7811,1.7949,1.8187,1.8547,1.8678,1.8878,1.9259,1.9305,1.9305,1.9305,1.9427,1.9577,1.9778,2.0041,2.0214,2.0304,2.0312,2.0311,2.0308,2.0363,2.0424,2.0467,2.0483,2.0527,2.0566,2.0586,2.0605,2.0605,2.0605,2.0586]},{"header":{"parameterUnit":"m.s-1","parameterCategory":1,"la1":30.6,"la2":29.2853,"lo1":-89.7004,"lo2":-87.6739,"dy":0.0162,"dx":0.0183,"nx":112,"ny":82,"refTime":"2024-06-07T12:00:00:Z","depth":0,"parameterNumber":3,"parameterNumberName":"V-component_of_WINDS"},"data":[0.0,0.0,0.0,0.0,0.0,0.0,0.0,0.0,0.0,0.0,0.0,0.0,0.0,0.0,0.0,0.0,0.0,0.0,0.0,0.0,0.0,0.0,0.0,0.0,0.0,0.0,0.0,0.0,0.0,0.0,0.0,0.0,0.0,0.0,0.0,0.0,0.0,0.0,0.0,0.0,0.0,0.0,0.0,0.0,0.0,0.0,0.0,0.0,0.0,0.0,0.0,0.0,0.0,0.0,0.0,0.0,0.0,0.0,0.0,0.0,0.0,0.0,0.0,0.0,0.0,0.0,0.0,0.0,0.0,0.0,0.0,0.0,0.0,0.0,0.0,0.0,0.0,0.0,0.0,0.0,0.0,0.0,0.0,0.0,0.0,0.0,0.0,0.0,0.0,0.0,1.3094,1.0153,-0.0171,-0.9248,-1.5166,-1.6758,-1.72,-1.6688,0.0,0.0,0.0,0.0,0.0,0.0,0.0,0.0,0.0,0.0,0.0,0.0,0.0,0.0,0.0,0.0,0.0,0.0,0.0,0.0,0.0,0.0,0.0,0.0,0.0,0.0,0.0,0.0,0.0,0.0,0.0,0.0,0.0,0.0,0.0,0.0,0.0,0.0,0.0,0.0,0.0,0.0,0.0,0.0,0.0,0.0,0.0,0.0,0.0,0.0,0.0,0.0,0.0,0.0,0.0,0.0,0.0,0.0,0.0,0.0,0.0,0.0,0.0,0.0,0.0,0.0,0.0,0.0,0.0,0.0,0.0,0.0,0.0,0.0,0.0,0.0,0.0,0.0,0.0,0.0,0.0,0.0,0.0,0.0,0.0,0.0,0.0,0.0,0.0,0.0,0.0,0.0,0.0,0.0,0.0,0.0,0.0,0.0,0.0,0.0,0.0,0.0,0.0,0.0,1.1316,0.247,-0.3134,-0.8515,-1.4162,-1.6449,-1.7279,-1.6575,0.0,0.0,0.0,0.0,0.0,0.0,0.0,0.0,0.0,0.0,0.0,0.0,0.0,0.0,0.0,0.0,0.0,0.0,0.0,0.0,0.0,0.0,0.0,0.0,0.0,0.0,0.0,0.0,0.0,0.0,0.0,0.0,0.0,0.0,0.0,0.0,0.0,0.0,0.0,0.0,0.0,0.0,0.0,0.0,0.0,0.0,0.0,0.0,0.0,0.0,0.0,0.0,0.0,0.0,0.0,0.0,0.0,0.0,0.0,0.0,0.0,0.0,0.0,0.0,0.0,0.0,0.0,0.0,0.0,0.0,0.0,0.0,0.0,0.0,0.0,0.0,0.0,0.0,0.0,0.0,0.0,0.0,0.0,0.0,0.0,0.0,0.0,0.0,0.0,0.0,0.0,0.0,0.0,0.0,0.0,0.0,0.0,0.0,0.0,0.0,0.0,0.0,0.0,1.2589,0.7699,-0.0556,-0.4888,-0.913,-1.3932,-1.5946,-1.6871,-1.6728,-1.578,0.0,0.0,0.0,0.0,0.0,0.0,0.0,0.0,0.0,0.0,0.0,0.0,0.0,0.0,0.0,0.0,0.0,0.0,0.0,0.0,0.0,0.0,0.0,0.0,0.0,0.0,0.0,0.0,0.0,0.0,0.0,0.0,0.0,0.0,0.0,0.0,0.0,0.0,0.0,0.0,0.0,0.0,0.0,0.0,0.0,0.0,0.0,0.0,0.0,0.0,0.0,0.0,0.0,0.0,0.0,0.0,0.0,0.0,0.0,0.0,0.0,0.0,0.0,0.0,0.0,0.0,0.0,0.0,0.0,0.0,0.0,0.0,0.0,0.0,0.0,0.0,0.0,0.0,0.0,0.0,0.0,0.0,0.0,0.0,0.0,0.0,0.0,0.0,0.0,0.0,0.0,0.0,0.0,0.0,0.0,0.0,0.0,0.0,0.0,0.0,0.0,0.0,0.9831,0.4305,-0.2174,-0.6202,-1.0031,-1.4035,-1.5814,-1.6796,-1.699,-1.7105,0.0,0.0,0.0,0.0,0.0,0.0,0.0,0.0,0.0,0.0,0.0,0.0,0.0,0.0,0.0,0.0,0.0,0.0,0.0,0.0,0.0,0.0,0.0,0.0,0.0,0.0,0.0,0.0,0.0,0.0,0.0,0.0,0.0,0.0,0.0,0.0,0.0,0.0,0.0,0.0,0.0,0.0,0.0,0.0,0.0,0.0,0.0,0.0,0.0,0.0,0.0,0.0,0.0,0.0,0.0,0.0,0.0,0.0,0.0,0.0,0.0,0.0,0.0,0.0,0.0,0.0,0.0,0.0,0.0,0.0,0.0,0.0,0.0,0.0,0.0,0.0,0.0,0.0,0.0,0.0,0.0,0.0,0.0,0.0,0.0,0.0,0.0,0.0,0.0,0.0,0.0,0.0,0.0,0.0,0.0,0.0,0.0,0.0,0.0,0.0,0.0,0.0,0.8144,0.2411,-0.3614,-0.7299,-1.0745,-1.4271,-1.6442,-1.7504,-1.7294,-1.8082,0.0,0.0,0.0,0.0,0.0,0.0,0.0,0.0,0.0,0.0,0.0,0.0,0.0,0.0,0.0,0.0,0.0,0.0,0.0,0.0,0.0,0.0,0.0,0.0,0.0,0.0,0.0,0.0,0.0,0.0,0.0,0.0,0.0,0.0,0.0,0.0,0.0,0.0,0.0,0.0,0.0,0.0,0.0,0.0,0.0,0.0,0.0,0.0,0.0,0.0,0.0,0.0,0.0,0.0,0.0,0.0,0.0,0.0,0.0,0.0,0.0,0.0,0.0,0.0,0.0,0.0,0.0,0.0,0.0,0.0,0.0,0.0,0.0,0.0,0.0,0.0,0.0,0.0,0.0,0.0,0.0,0.0,0.0,0.0,0.0,0.0,0.0,0.0,0.0,0.0,0.0,0.0,0.0,0.0,0.0,0.0,0.0,0.0,0.0,0.0,0.0,0.0,0.6216,0.0813,-0.4803,-0.7946,-1.094,-1.4138,-1.5913,-1.6967,-1.728,0.0,0.0,0.0,0.0,0.0,0.0,0.0,0.0,0.0,0.0,0.0,0.0,0.0,0.0,0.0,0.0,0.0,0.0,0.0,0.0,0.0,0.0,0.0,0.0,0.0,0.0,0.0,0.0,0.0,0.0,0.0,0.0,0.0,0.0,0.0,0.0,0.0,0.0,0.0,0.0,0.0,0.0,0.0,0.0,0.0,0.0,0.0,0.0,0.0,0.0,0.0,0.0,0.0,0.0,0.0,0.0,0.0,0.0,0.0,0.0,0.0,0.0,0.0,0.0,0.0,0.0,0.0,0.0,0.0,0.0,0.0,0.0,0.0,0.0,0.0,0.0,0.0,0.0,0.0,0.0,0.0,0.0,0.0,0.0,0.0,0.0,0.0,0.0,0.0,0.0,0.0,0.0,0.0,0.0,0.0,0.0,0.0,0.0,0.0,0.0,0.0,0.0,0.9603,0.442,-0.0893,-0.5668,-0.8632,-1.1359,-1.4028,-1.5536,-1.6607,-1.7252,0.0,0.0,0.0,0.0,0.0,0.0,0.0,0.0,0.0,0.0,0.0,0.0,0.0,0.0,0.0,0.0,0.0,0.0,0.0,0.0,0.0,0.0,0.0,0.0,0.0,0.0,0.0,0.0,0.0,0.0,0.0,0.0,0.0,0.0,0.0,0.0,0.0,0.0,0.0,0.0,0.0,0.0,0.0,0.0,0.0,0.0,0.0,0.0,0.0,0.0,0.0,0.0,0.0,0.0,0.0,0.0,0.0,0.0,0.0,0.0,0.0,0.0,0.0,0.0,0.0,0.0,0.0,0.0,0.0,0.0,0.0,0.0,0.0,0.0,0.0,0.0,0.0,0.0,0.0,0.0,0.0,0.0,0.0,0.0,0.0,0.0,0.0,0.0,0.0,0.0,0.0,0.0,0.0,0.0,0.0,0.0,0.0,0.0,0.0,0.0,0.0,0.0,0.8903,0.2878,-0.2683,-0.6247,-0.9422,-1.209,-1.4027,-1.5559,-1.6667,0.0,0.0,0.0,0.0,0.0,0.0,0.0,0.0,0.0,0.0,0.0,0.0,0.0,0.0,0.0,0.0,0.0,0.0,0.0,0.0,0.0,0.0,0.0,0.0,0.0,0.0,0.0,0.0,0.0,0.0,0.0,0.0,0.0,0.0,0.0,0.0,0.0,0.0,0.0,0.0,0.0,0.0,0.0,0.0,0.0,0.0,0.0,0.0,0.0,0.0,0.0,0.0,0.0,0.0,0.0,0.0,0.0,0.0,0.0,0.0,0.0,0.0,0.0,0.0,0.0,0.0,0.0,0.0,0.0,0.0,0.0,0.0,0.0,0.0,0.0,0.0,0.0,0.0,0.0,0.0,0.0,0.0,0.0,0.0,0.0,0.0,0.0,0.0,0.0,0.0,0.0,0.0,0.0,0.0,0.0,0.0,0.0,0.0,0.0,0.0,0.0,0.0,0.0,0.7138,0.1863,-0.3239,-0.7169,-0.9728,-1.2,-1.4095,-1.5536,-1.6643,-1.7391,0.0,0.0,0.0,0.0,0.0,0.0,0.0,0.0,0.0,0.0,0.0,0.0,0.0,0.0,0.0,0.0,0.0,0.0,0.0,0.0,0.0,0.0,0.0,0.0,0.0,0.0,0.0,0.0,0.0,0.0,0.0,0.0,0.0,0.0,0.0,0.0,0.0,0.0,0.0,0.0,0.0,0.0,0.0,0.0,0.0,0.0,0.0,0.0,0.0,0.0,0.0,0.0,0.0,0.0,0.0,0.0,0.0,0.0,0.0,0.0,0.0,0.0,0.0,0.0,0.0,0.0,0.0,0.0,0.0,0.0,0.0,0.0,0.0,0.0,0.0,0.0,0.0,0.0,0.0,0.0,0.0,0.0,0.0,0.0,0.0,0.0,0.0,0.0,0.0,0.0,0.0,0.0,0.0,0.0,0.0,0.0,0.0,0.0,0.0,0.0,0.0,0.0,0.596,0.0812,-0.3994,-0.7577,-0.9976,-1.2062,-1.3838,-1.5082,-1.6113,-1.6924,0.0,0.0,0.0,0.0,0.0,0.0,0.0,0.0,0.0,0.0,0.0,0.0,0.0,0.0,0.0,0.0,0.0,0.0,0.0,0.0,0.0,0.0,0.0,0.0,0.0,0.0,0.0,0.0,0.0,0.0,0.0,0.0,0.0,0.0,0.0,0.0,0.0,0.0,0.0,0.0,0.0,0.0,0.0,0.0,0.0,0.0,0.0,0.0,0.0,0.0,0.0,0.0,0.0,0.0,0.0,0.0,0.0,0.0,0.0,0.0,0.0,0.0,0.0,0.0,0.0,0.0,0.0,0.0,0.0,0.0,0.0,0.0,0.0,0.0,0.0,0.0,0.0,0.0,0.0,0.0,0.0,0.0,0.0,0.0,0.0,0.0,0.0,0.0,0.0,0.0,0.0,0.0,0.0,0.0,0.0,0.0,0.0,0.0,0.0,0.0,0.0,0.0,0.5197,-0.0083,-0.472,-0.7633,-1.0125,-1.2112,-1.3405,-1.4418,-1.5314,-1.6158,0.0,0.0,0.0,0.0,0.0,0.0,0.0,0.0,0.0,0.0,0.0,0.0,0.0,0.0,0.0,0.0,0.0,0.0,0.0,0.0,0.0,0.0,0.0,0.0,0.0,0.0,0.0,0.0,0.0,0.0,0.0,0.0,0.0,0.0,0.0,0.0,0.0,0.0,0.0,0.0,0.0,0.0,0.0,0.0,0.0,0.0,0.0,0.0,0.0,0.0,0.0,0.0,0.0,0.0,0.0,0.0,0.0,0.0,0.0,0.0,-0.0549,-0.0705,0.0,0.0,0.0,0.0,0.0,0.0,0.0,0.0,0.0,0.0,0.0,0.0,0.0,0.0,0.0,0.0,0.0,0.0,0.0,0.0,0.0,0.0,0.0,0.0,0.0,0.0,0.0,0.0,0.0,0.0,0.0,0.0,0.0,0.0,0.0,0.0,0.0,0.0,0.0,0.0,0.4634,-0.0027,-0.4404,-0.7845,-0.9753,-1.1537,-1.3493,-1.4293,-1.5146,-1.6215,-1.6308,0.0,0.0,0.0,0.0,0.0,0.0,0.0,0.0,0.0,0.0,0.0,0.0,0.0,0.0,0.0,0.0,0.0,0.0,0.0,0.0,0.0,0.0,0.0,0.0,0.0,0.0,0.0,0.0,0.0,0.0,0.0,0.0,0.0,0.0,0.0,0.0,0.0,0.0,0.0,0.0,0.0,0.0,0.0,0.0,0.0,0.0,0.0,0.0,0.0,0.0,0.0,0.0,0.0,0.0,0.0,0.0,0.0,0.0,0.0,-0.2627,-0.281,0.0,0.0,0.0,0.0,0.0,0.0,0.0,0.0,0.0,0.0,0.0,0.0,0.0,0.0,0.0,0.0,0.0,0.0,0.0,0.0,0.0,0.0,0.0,0.0,0.0,0.0,0.0,0.0,0.0,0.0,0.0,0.0,0.0,0.0,0.0,0.0,0.0,0.0,0.0,0.0,0.3478,-0.094,-0.49,-0.7769,-0.9701,-1.143,-1.3032,-1.4056,-1.4919,-1.5684,-1.582,0.0,0.0,0.0,0.0,0.0,0.0,0.0,0.0,0.0,0.0,0.0,0.0,0.0,0.0,0.0,0.0,0.0,0.0,0.0,0.0,0.0,0.0,0.0,0.0,0.0,0.0,0.0,0.0,0.0,0.0,0.0,0.0,0.0,0.0,0.0,0.0,0.0,0.0,0.0,0.0,0.0,0.0,0.0,0.0,0.0,0.0,0.0,0.0,0.0,0.0,0.0,0.0,0.0,0.1726,0.0383,-0.063,-0.245,-0.3927,-0.5026,-0.4588,-0.4874,-0.5681,-0.5856,0.0,0.0,0.0,0.0,0.0,0.0,0.0,0.0,0.0,0.0,0.0,0.0,0.0,0.0,0.0,0.0,0.0,0.0,0.0,0.0,0.0,0.0,-0.2788,-0.6266,-0.763,-0.8186,-0.8361,0.0,0.0,0.0,0.0,0.0,0.0,0.0,0.0,0.0,0.0,0.0,0.1823,-0.2287,-0.5822,-0.7976,-0.9972,-1.158,-1.2653,-1.3853,-1.4703,-1.5033,-1.5206,-1.5312,0.0,0.0,0.0,0.0,0.0,0.0,0.0,0.0,0.0,0.0,0.0,0.0,0.0,0.0,0.0,0.0,0.0,0.0,0.0,0.0,0.0,0.0,0.0,0.0,0.0,0.0,0.0,0.0,0.0,0.0,0.0,0.0,1.17,0.9994,0.0,0.0,0.0,0.0,0.0,0.0,0.0,0.0,0.0,0.0,0.0,0.0,0.0,0.1113,0.0975,-0.0032,-0.1063,-0.2068,-0.2436,-0.3436,-0.4924,-0.5658,-0.6269,-0.6798,-0.7053,0.0,-0.8029,-0.8847,0.0,0.0,0.0,0.0,0.0,0.0,0.0,0.0,0.0,0.0,0.0,0.0,0.0,0.0,0.0,0.0,0.0,0.0,0.0,0.0,0.0,0.0,-0.4669,-0.5963,-0.6868,-0.7518,-0.7892,-0.9162,-0.9256,-0.5975,-0.4212,-0.1419,0.0,0.0,0.0,0.0,0.0,0.0,-0.0485,-0.3722,-0.6783,-0.9519,-1.0687,-1.1856,-1.3255,-1.3979,-1.4511,-1.4904,-1.5151,-1.5665,-1.6464,-1.6601,0.0,0.0,0.0,0.0,0.0,0.0,0.0,0.0,0.0,0.0,0.0,0.0,0.0,0.0,0.0,0.0,0.0,0.0,0.0,0.0,0.0,0.0,0.0,0.0,0.0,0.0,0.0,0.0,0.0,1.1022,0.9221,0.5999,0.5364,0.5352,0.0,0.0,0.0,0.0,0.0,0.0,0.0,0.0,0.0,0.1058,-0.0398,-0.1335,-0.1741,-0.2115,-0.2731,-0.3606,-0.3734,-0.4337,-0.5377,-0.5929,-0.6397,-0.679,-0.7187,-0.775,-0.8427,-0.8849,-0.856,-0.7995,0.0,0.0,0.0,0.0,-1.1243,-1.1551,-1.074,-1.0048,-0.9499,-0.9317,0.0,0.0,0.0,0.0,0.0,0.0,0.0,-0.2829,-0.4581,-0.5211,-0.5647,-0.6508,-0.6863,-0.7181,-0.7825,-0.8109,-0.7793,-0.6314,-0.5405,-0.3405,0.1331,0.2437,0.0,0.0,0.0,-0.0152,-0.2605,-0.5103,-0.7395,-0.9445,-1.0742,-1.191,-1.3004,-1.3932,-1.4587,-1.487,-1.5149,-1.5498,-1.5957,-1.6445,-1.7081,0.0,0.0,0.0,0.0,0.0,0.0,0.0,0.0,0.0,0.0,0.0,0.0,0.0,0.0,0.0,0.0,0.0,0.0,0.0,0.0,0.0,0.0,0.0,0.0,0.0,0.0,0.0,0.0,0.9266,0.6325,0.2072,0.1282,0.1285,0.0,0.0,0.0,0.0,0.0,0.0,0.1349,0.008,-0.1055,-0.1962,-0.2421,-0.2811,-0.3082,-0.3082,-0.3486,-0.4297,-0.4279,-0.4678,-0.5392,-0.58,-0.6176,-0.6518,-0.694,-0.7607,-0.8411,-0.8411,-0.9038,-1.0034,-1.075,-1.1402,-1.1997,-1.2185,-1.2195,-1.1957,-1.0664,-1.0011,-0.963,-0.9136,-0.88,-0.8443,-0.7688,0.0,0.0,0.0,0.0,-0.4993,-0.612,-0.6282,-0.6365,-0.6999,-0.6986,-0.7031,-0.7625,-0.7093,-0.6449,-0.6402,-0.5945,-0.4539,-0.1289,-0.0701,0.0,0.0594,-0.0747,-0.2586,-0.4608,-0.653,-0.8311,-0.986,-1.1169,-1.2238,-1.3019,-1.4,-1.4691,-1.4885,-1.5146,-1.5327,-1.5373,-1.6229,-1.7109,-1.7988,0.0,0.0,0.0,0.0,0.0,0.0,0.0,0.0,0.0,0.0,0.0,0.0,0.0,0.0,0.0,0.0,0.0,0.0,0.0,0.0,0.0,0.0,0.0,0.0,0.0,0.0,0.0,0.0,0.0,0.1352,-0.0089,0.0,0.0,0.0,0.0,-0.0524,-0.0591,-0.1077,-0.2169,-0.2324,-0.2584,-0.3014,-0.3046,-0.3082,-0.3082,-0.3082,-0.3735,-0.5029,-0.4726,-0.5145,-0.6162,-0.6228,-0.6361,-0.6518,-0.694,-0.7607,-0.8411,-0.8411,-0.8652,-0.9102,-0.9544,-0.9728,-0.9814,-1.026,-1.0447,-1.0399,-1.0312,-1.0283,-1.0157,-0.9658,-0.8772,-0.7841,-0.7231,-0.6609,0.0,0.0,-0.6501,-0.6246,-0.681,-0.6965,-0.6959,-0.7001,-0.6987,-0.7022,-0.7036,-0.7016,-0.6774,-0.6247,-0.5352,-0.4077,-0.2251,0.0,-0.2304,-0.1478,-0.2951,-0.4749,-0.645,-0.8085,-0.9839,-1.1759,-1.2472,-1.311,-1.3786,-1.4318,-1.4681,-1.4885,-1.5157,-1.5297,-1.5295,-1.6204,-1.7109,-1.7988,-1.8809,0.0,0.0,0.0,0.0,0.0,0.0,0.0,0.0,0.0,0.0,0.0,0.0,0.0,0.0,0.0,0.0,0.0,0.0,0.0,0.0,0.0,0.0,0.0,0.0,0.0,0.0,0.0,0.0,0.1227,-0.0178,0.0,-0.2145,-0.2052,-0.2027,-0.2292,-0.2401,-0.2592,-0.2974,-0.3139,-0.3288,-0.3415,-0.3415,-0.3415,-0.3415,-0.3784,-0.4354,-0.5224,-0.5287,-0.5728,-0.6458,-0.6067,-0.6394,-0.7173,-0.685,-0.7354,-0.8411,-0.8411,-0.8779,-0.9359,-0.9277,-0.9561,-1.0068,-1.0225,-1.0283,-1.0283,-1.0283,-1.0283,-1.0196,-0.9677,-0.8999,-0.8316,-0.7739,-0.7196,-0.6768,-0.6937,-0.6852,-0.6768,-0.6937,-0.6979,-0.6979,-0.6979,-0.688,-0.6794,-0.6981,-0.6727,-0.6415,-0.6223,-0.5889,-0.5204,-0.3771,-0.3878,-0.4087,-0.4012,-0.5039,-0.6377,-0.8078,-0.9377,-1.0704,-1.2144,-1.2887,-1.3515,-1.4051,-1.4518,-1.4822,-1.4888,-1.5155,-1.5311,-1.5349,-1.5685,-1.6539,-1.7969,-1.7756,-1.8158,0.0,0.0,0.0,0.0,0.0,0.0,0.0,0.0,0.0,0.0,0.0,0.0,0.0,0.0,0.0,0.0,0.0,0.0,0.0,0.0,0.0,0.0,0.0,0.0,0.0,0.5772,0.2702,0.0541,-0.0583,-0.1635,-0.2751,-0.287,-0.2962,-0.3242,-0.3368,-0.3383,-0.3383,-0.3524,-0.3581,-0.3581,-0.3581,-0.3581,-0.3581,-0.3965,-0.4492,-0.5149,-0.5337,-0.5784,-0.6465,-0.6074,-0.6427,-0.7337,-0.691,-0.7251,-0.8164,-0.8164,-0.8574,-0.9189,-0.9053,-0.9355,-0.9873,-1.001,-1.0059,-1.0078,-1.0234,-1.0283,-1.0166,-0.9478,-0.8999,-0.8553,-0.7821,-0.7321,-0.6979,-0.6979,-0.6979,-0.6979,-0.6979,-0.6979,-0.6979,-0.6979,-0.6874,-0.6787,-0.6981,-0.6881,-0.6763,-0.678,-0.6361,-0.5806,-0.5111,-0.5312,-0.5751,-0.6239,-0.7177,-0.8265,-0.954,-1.0586,-1.1578,-1.2595,-1.3193,-1.3707,-1.4216,-1.465,-1.5036,-1.5384,-1.5351,-1.5583,-1.6226,-1.57,-1.6361,-1.8398,-1.8125,-1.8498,-1.9596,0.0,0.0,0.0,0.0,0.0,0.0,0.0,0.0,0.0,0.0,0.0,0.0,0.0,0.0,0.0,0.0,0.0,0.0,0.0,0.0,0.0,0.0,0.0,0.6671,0.3945,0.1375,-0.0663,-0.1461,-0.2275,-0.349,-0.3581,-0.3581,-0.3581,-0.3581,-0.3581,-0.3581,-0.3581,-0.3581,-0.3581,-0.3581,-0.3581,-0.3581,-0.3622,-0.4058,-0.4898,-0.4939,-0.5376,-0.6182,-0.6284,-0.6535,-0.6917,-0.7046,-0.7344,-0.7715,-0.7715,-0.7998,-0.845,-0.8828,-0.8994,-0.9053,-0.9437,-0.9602,-0.968,-1.0137,-1.0283,-1.0127,-0.9079,-0.8716,-0.8472,-0.7356,-0.7021,-0.6979,-0.6979,-0.6979,-0.6979,-0.6979,-0.7021,-0.7021,-0.7014,-0.7007,-0.7007,-0.6994,-0.7467,-0.7897,-0.7897,-0.6787,-0.5908,-0.6121,-0.6674,-0.7304,-0.8056,-0.9352,0.0,-1.0884,-1.1685,-1.2515,-1.3226,-1.3454,-1.3775,-1.4348,-1.4738,-1.5342,-1.63,-1.5714,-1.6083,-1.7744,-1.6282,-1.666,-1.9257,-2.0021,-2.0404,-2.0408,0.0,0.0,0.0,0.0,0.0,0.0,0.0,0.0,0.0,0.0,0.0,0.0,0.0,0.0,0.0,0.0,0.0,0.0,0.0,0.0,0.0,0.8109,0.5982,0.5026,0.2791,0.0575,-0.1327,-0.1693,-0.2275,-0.349,-0.3581,-0.3581,-0.3581,-0.3581,-0.3581,-0.3581,-0.3581,-0.3581,-0.3581,-0.3581,-0.3581,-0.3581,-0.4403,-0.4857,-0.4898,-0.5739,-0.6162,-0.6182,-0.6284,-0.6708,-0.7404,-0.72,-0.7512,-0.8203,-0.8203,-0.8271,-0.842,-0.8538,-0.874,-0.9053,-0.9437,-0.9834,-1.0127,-1.0244,-1.0283,-1.0205,-0.9518,-0.8999,-0.8553,-0.7863,-0.7363,-0.6979,-0.6979,-0.6979,-0.6979,-0.6979,-0.7321,-0.7473,-0.6882,-0.7219,-0.7547,-0.7,-0.744,-0.7976,-0.7976,-0.8182,-0.8302,-0.8008,-0.8245,-0.8732,-0.9499,-1.0278,-1.1038,-1.176,-1.2553,-1.3183,-1.3409,-1.3876,-1.4271,-1.4598,-1.5413,-1.5771,-1.5483,-1.5956,-1.6191,-1.6095,-1.6248,-1.7246,-1.9184,-2.0011,-2.0385,0.0,0.0,0.0,0.0,0.0,0.0,0.0,0.0,0.0,0.0,0.0,0.0,0.0,0.0,0.0,0.0,0.0,0.0,0.0,0.0,0.0,0.0,0.6569,0.4718,0.3579,0.1724,-0.0049,-0.1604,-0.1804,-0.2275,-0.349,-0.3581,-0.3581,-0.3581,-0.3581,-0.3581,-0.3581,-0.3581,-0.3581,-0.3581,-0.3581,-0.3581,-0.3581,-0.4367,-0.4725,-0.4719,-0.5509,-0.5942,-0.5994,-0.6249,-0.6711,-0.7322,-0.7337,-0.7643,-0.8105,-0.8105,-0.8105,-0.8125,0.0,0.0,0.0,0.0,-0.9639,-1.0029,-1.0215,-1.0283,-1.0196,-0.9677,-0.9119,-0.8602,-0.8077,-0.7489,-0.7063,-0.7321,-0.7196,-0.7078,-0.7359,-0.7371,-0.7299,-0.7013,-0.7236,-0.7399,-0.7132,-0.7605,-0.812,-0.825,-0.9106,0.0,-0.9922,-1.0019,-1.0376,-1.1273,-1.2095,-1.2687,-1.2883,-1.3681,-1.4086,-1.3713,-1.4111,-1.4637,-1.5235,-1.5567,0.0,0.0,0.0,-1.6002,-1.5919,-1.7405,0.0,0.0,0.0,0.0,0.0,-2.0021,0.0,0.0,-2.0433,-2.0477,0.0,0.0,0.0,0.0,0.0,0.0,0.0,0.0,0.0,0.0,0.0,0.0,0.0,0.0,0.0,0.0,0.5733,0.4046,0.2428,0.0997,-0.0353,-0.1559,-0.1737,-0.223,-0.3398,-0.3578,-0.3581,-0.3581,-0.3581,-0.3581,-0.3581,-0.3581,0.0,0.0,0.0,-0.3622,-0.3711,-0.3987,-0.4298,-0.4567,-0.4887,-0.5317,-0.5766,-0.6277,-0.6661,-0.6934,-0.7481,-0.7695,-0.7695,-0.7695,-0.7695,-0.7734,-0.8154,-0.8371,-0.846,-0.8799,-0.9199,-0.9583,-1.0,0.0,0.0,-0.9587,-0.9055,-0.8537,-0.8057,-0.7543,-0.7196,-0.7746,-0.7509,-0.7237,-0.7827,-0.7409,-0.6884,-0.726,-0.7174,-0.7052,-0.7303,-0.7852,-0.8362,-0.8665,-0.9678,-1.0739,-1.1529,-1.1722,-1.213,-1.3158,-1.4177,-1.4655,-1.4135,-1.4793,-1.4947,-1.4037,-1.4259,0.0,-1.5894,-1.5472,-1.5835,-1.742,-1.6203,-1.5834,-1.6715,-1.8997,-1.9938,-1.9249,-1.9941,-2.0227,-2.0086,-1.9998,-2.022,-2.073,-2.0244,-2.0371,0.0,0.0,0.0,0.0,0.0,0.0,0.0,0.0,0.0,0.0,0.0,0.0,0.0,0.0,0.0,0.6404,0.4718,0.3278,0.2307,0.1448,0.0403,-0.0907,-0.1503,-0.2095,-0.281,-0.3306,-0.3581,-0.3581,-0.3581,-0.3581,-0.3581,-0.3581,-0.3581,-0.3581,-0.3581,-0.3792,-0.422,-0.479,-0.5173,-0.5471,-0.5795,0.0,-0.6193,-0.6403,-0.6703,-0.7067,-0.7509,-0.7695,-0.7695,-0.7695,-0.7695,-0.7705,-0.7793,-0.8066,-0.842,-0.8499,-0.877,-0.9141,-0.9228,-0.9258,-0.9248,-0.9143,-0.8666,-0.8122,-0.8006,-0.7855,0.0,-0.787,-0.787,-0.7827,-0.7956,-0.7953,-0.7744,-0.7155,-0.7538,-0.7932,-0.7302,-0.8007,-0.8775,-0.8859,-1.008,-1.1342,-1.2036,-1.2531,-1.32,-1.4373,-1.4587,-1.4723,-1.5053,-1.4845,-1.4583,-1.4338,-1.461,-1.4914,-1.5186,-1.5835,-1.6087,-1.5798,-1.6144,-1.6734,-1.7617,-1.8742,-1.9579,-2.0048,-2.0212,-2.0216,-2.0022,-2.0509,-2.0634,-2.0409,-2.0544,-2.1031,0.0,0.0,0.0,0.0,0.0,0.0,0.0,0.0,0.0,0.0,0.0,1.0383,0.8833,0.0,0.7104,0.59,0.4919,0.3827,0.2387,0.1822,0.0929,-0.0686,-0.1162,-0.1607,-0.2184,-0.2544,-0.2679,-0.2679,-0.2679,-0.2812,-0.3126,-0.317,-0.3306,-0.3578,-0.3581,-0.3707,-0.4008,-0.4545,-0.4919,-0.5042,-0.5734,-0.6061,-0.6121,-0.6593,-0.691,-0.7118,-0.7539,-0.7695,-0.7695,-0.7695,-0.7695,-0.7695,-0.7695,-0.7832,-0.8076,-0.8332,-0.8538,-0.8721,-0.8936,-0.9004,-0.9004,-0.9004,-0.8573,-0.8086,-0.8086,-0.8038,-0.7976,-0.8035,-0.8024,-0.8048,-0.8158,-0.7869,-0.7517,-0.7328,-0.7682,-0.7999,-0.7764,-0.8445,-0.9141,-0.9311,-1.0351,-1.1495,-1.2347,-1.2949,-1.3621,-1.4558,-1.5169,-1.5333,-1.4861,-1.4865,-1.4766,-1.4439,-1.4699,-1.5106,-1.5609,-1.6169,-1.6138,-1.5311,-1.6068,-1.6938,-1.7776,-1.864,-1.9473,-2.0285,-2.0312,-2.0197,-2.0012,-2.0274,-2.045,-2.0557,-2.0877,-2.1295,0.0,0.0,0.0,0.0,0.0,0.0,0.0,1.0544,0.9646,0.9719,0.9642,0.9114,0.767,0.7366,0.6941,0.5685,0.5369,0.4569,0.2441,0.2071,0.1372,-0.0329,-0.0776,-0.1073,-0.1563,-0.1741,-0.1786,-0.1786,-0.1786,-0.2008,-0.2495,-0.263,-0.2943,-0.3398,-0.3534,-0.3697,-0.3836,-0.4293,-0.4571,-0.4754,-0.5491,-0.5948,-0.6129,-0.6695,-0.7059,-0.7246,-0.7569,-0.7695,-0.7695,-0.7695,-0.7695,-0.7695,-0.7695,-0.7695,-0.7744,-0.8125,-0.8314,-0.8426,-0.8675,-0.876,-0.876,-0.876,-0.8431,-0.8051,-0.8051,-0.8067,-0.8077,-0.8176,-0.8147,-0.8119,-0.835,-0.7735,-0.717,-0.7704,-0.7821,-0.7897,-0.8238,-0.8878,-0.9459,-0.9729,-1.0557,-1.1554,-1.2643,-1.3312,-1.3913,-1.4582,-1.5466,-1.5671,-1.4551,-1.4823,-1.4961,-1.4541,-1.4757,-1.5253,-1.6021,-1.6195,-1.5945,-1.5247,-1.6016,-1.6785,-1.7446,-1.8501,-1.9385,-2.0023,-2.0215,-2.0197,-1.9993,-2.002,-2.0233,-2.0588,-2.1314,-2.1622,1.0546,1.322,1.3844,1.3915,1.1936,1.0204,0.0,1.0677,1.0213,1.0573,1.0195,0.935,0.7935,0.7682,0.7131,0.5593,0.5293,0.4543,0.2327,0.2005,0.1687,0.0814,-0.0269,-0.094,-0.0984,-0.1474,-0.1786,-0.1786,-0.1786,-0.183,-0.1917,-0.2406,-0.2719,-0.2807,-0.3306,-0.3983,-0.4733,-0.4802,-0.5236,-0.5998,-0.5818,-0.6089,-0.6779,-0.6628,-0.6948,-0.7637,-0.7666,-0.7695,-0.7695,-0.7695,-0.7695,-0.7695,-0.7695,-0.7695,-0.7705,-0.7754,-0.7998,-0.8259,-0.797,-0.7841,-0.7841,-0.7841,-0.7713,-0.7569,-0.7569,-0.785,-0.8176,-0.821,-0.8292,-0.8358,-0.8398,-0.7994,-0.7715,-0.813,-0.8233,-0.8238,-0.8285,-0.9067,-0.9742,-0.9716,-1.0763,-1.1998,-1.3131,-1.3867,-1.4524,-1.5197,-1.4827,-1.4621,-1.5107,-1.4772,-1.4589,-1.4822,-1.4923,-1.5092,-1.5306,-1.5343,-1.5305,-1.5209,-1.6022,-1.6542,-1.6619,-1.8157,-1.9049,-1.9146,-1.9908,-2.0197,-2.0012,-2.0577,-2.0483,-1.9787,-2.1837,-2.2488,1.2475,1.4279,1.4186,1.2674,1.1456,1.0481,0.9883,0.9784,0.9825,1.0018,1.0019,0.9956,0.9719,0.9241,0.8651,0.7729,0.6602,0.5157,0.3331,0.2692,0.2273,0.2006,0.2214,0.1941,0.0801,0.1059,0.088,-0.0134,-0.0223,-0.0536,-0.1251,-0.1518,-0.1962,-0.2672,-0.2943,-0.3403,-0.412,-0.4633,-0.5089,-0.5465,-0.6056,-0.6695,-0.7312,-0.7138,-0.7301,-0.7695,-0.7695,-0.7695,-0.7695,-0.7695,-0.7695,-0.7725,-0.7947,-0.8166,-0.8266,-0.7728,-0.7627,-0.7731,-0.7315,-0.7317,-0.75,-0.7381,-0.7463,-0.7614,-0.7614,-0.7935,-0.8234,-0.7846,-0.8187,-0.8603,-0.8254,-0.8245,-0.8382,-0.8551,-0.8876,-0.9103,-0.8827,-0.989,-1.083,-1.0521,-1.1508,-1.2594,-1.3223,-1.3632,-1.4086,-1.4712,-1.4828,-1.4819,-1.4767,-1.4662,-1.4671,-1.4923,-1.5054,-1.514,-1.5209,-1.5189,-1.5189,-1.5189,-1.558,-1.6003,-1.6484,-1.7176,-1.8003,-1.8972,-1.9357,-1.9758,-2.0169,-2.0262,-2.0094,-1.9757,-2.0976,-2.1316,1.42,1.4796,1.4024,1.2005,1.1116,1.048,0.9608,0.9723,1.0041,1.0159,1.0475,1.0864,1.141,1.1098,1.0513,0.9842,0.8368,0.6626,0.4419,0.3842,0.3687,0.3972,0.5528,0.5983,0.4405,0.418,0.3427,0.1733,0.1337,0.0758,-0.0089,-0.0804,-0.1563,-0.2406,-0.2765,-0.3281,-0.3944,-0.4564,-0.5029,-0.528,-0.6338,-0.7031,-0.7394,-0.7525,-0.7611,-0.7695,-0.7695,-0.7695,-0.7695,-0.7812,-0.787,-0.7889,-0.828,-0.8502,-0.8505,-0.7751,-0.7578,-0.7642,-0.7174,-0.7121,-0.7195,-0.6982,-0.7119,-0.7365,-0.7491,-0.7832,-0.8108,-0.7742,-0.8248,-0.8781,-0.8458,-0.8631,-0.8985,-0.9174,-0.9651,-0.9899,-0.936,-1.0634,-1.1723,-1.1149,-1.2153,-1.3177,-1.3534,-1.3681,-1.3926,-1.4456,-1.4915,-1.5032,-1.4592,-1.4681,-1.4856,-1.5054,-1.5178,-1.5234,-1.5234,-1.5234,-1.5234,-1.5234,-1.5272,-1.5561,-1.6138,-1.6388,-1.7061,-1.8299,-1.8761,-1.9319,-1.9946,-1.9878,-1.9836,-1.9797,-2.0344,-2.0451,1.5173,1.3781,1.2282,1.2268,1.0714,0.952,1.092,1.1223,1.1388,1.1842,1.1928,1.2027,1.2395,1.2855,1.273,1.1287,1.0612,0.9009,0.5445,0.5491,0.6239,0.7139,0.9581,1.0994,1.0479,0.7514,0.5014,0.3517,0.239,0.1777,0.1733,-0.0489,-0.1784,-0.183,-0.2948,-0.3979,-0.4867,-0.4903,-0.5308,-0.6166,-0.6724,-0.6963,-0.6926,-0.7458,-0.7715,-0.7695,-0.7695,-0.7695,-0.7725,-0.8119,-0.829,-0.8319,-0.8662,-0.8472,-0.7993,-0.7772,-0.8005,-0.8389,-0.7787,-0.7233,-0.6783,-0.6498,-0.6436,-0.6533,-0.6982,-0.735,-0.7724,-0.8143,-0.8523,-0.8871,-0.918,-0.9286,-0.9444,-1.0095,-1.0473,-1.0476,-0.9735,-1.1069,-1.2142,-1.1352,-1.2439,-1.3675,-1.4259,-1.4378,-1.4478,-1.4841,-1.4905,-1.4905,-1.4895,-1.4957,-1.508,-1.528,-1.5291,-1.5291,-1.5291,-1.5291,-1.5291,-1.5291,-1.5291,-1.5311,-1.5349,-1.6085,-1.6528,-1.6561,-1.8164,-1.9011,-1.903,-1.9685,-1.9933,-1.9828,-2.0484,-2.0674,1.5742,1.4863,1.3848,1.1859,1.133,1.1135,1.0603,1.1301,1.2144,1.2537,1.3204,1.3917,1.447,1.4972,1.4725,1.303,1.1919,1.0205,0.7172,0.6661,0.6835,0.7446,0.9488,1.0686,1.0274,1.061,0.9571,0.641,0.527,0.4326,0.3456,0.1233,-0.0357,-0.1199,-0.2004,-0.2923,-0.4015,-0.4777,-0.5209,-0.5336,-0.6745,-0.7361,-0.7327,-0.7891,-0.8149,-0.8091,-0.8091,-0.8223,-0.8439,-0.8578,-0.8623,-0.8657,-0.8811,-0.8641,-0.8331,-0.8314,-0.808,-0.7651,-0.6786,-0.6521,-0.6554,-0.6333,-0.6447,-0.6735,-0.7059,-0.7662,-0.8208,-0.8228,-0.8985,-0.9793,-0.9762,-1.0181,-1.0698,-1.1033,-1.1465,-1.171,-1.1285,-1.1872,-1.2292,-1.1646,-1.2066,-1.2575,-1.2767,-1.3393,-1.4138,-1.4914,-1.5025,-1.5025,-1.5025,-1.5131,-1.5223,-1.5285,-1.5299,-1.5307,-1.5307,-1.5307,-1.5293,-1.5297,-1.5303,-1.5307,-1.5307,-1.5564,-1.5944,-1.6489,-1.7619,-1.846,-1.8992,-1.9583,-1.9847,-1.9809,-1.9797,-1.977,1.536,1.4641,1.3727,1.1395,1.1342,1.1802,1.147,1.2246,1.3294,1.4044,1.5049,1.6053,1.6889,1.75,1.741,1.5918,1.432,1.2224,0.916,0.8492,0.839,0.8598,1.0312,1.1551,1.1562,1.2913,1.2317,0.8703,0.7516,0.6428,0.5199,0.2829,0.0972,-0.0221,-0.1225,-0.2392,-0.3745,-0.4605,-0.5314,-0.5898,-0.7019,-0.7653,-0.784,-0.8057,-0.8139,-0.8091,-0.8091,-0.828,-0.8634,-0.8876,-0.9054,-0.9168,-0.924,-0.9029,-0.8698,-0.8489,-0.7868,-0.7032,-0.6519,-0.6364,-0.636,-0.6163,-0.6276,-0.6543,-0.6936,-0.7713,-0.8504,-0.8675,-0.9671,-1.0656,-1.0728,-1.1224,-1.1746,-1.1953,-1.2445,-1.2657,-1.1923,-1.2301,-1.2526,-1.1631,-1.1837,-1.2248,-1.2586,-1.3487,-1.4398,-1.5078,-1.5163,-1.517,-1.517,-1.5259,-1.5313,-1.5336,-1.5338,-1.5333,-1.5344,-1.5348,-1.5331,-1.5334,-1.5346,-1.5336,-1.5346,-1.5345,-1.5571,-1.6063,-1.6904,-1.7735,-1.8573,-1.9201,-1.9606,-1.979,-1.958,-1.9419,1.4304,1.3222,1.2115,1.1008,1.0979,1.1651,1.3329,1.4086,1.4829,1.6315,1.7393,1.8422,1.9485,2.0368,2.0587,1.9536,1.7649,1.5087,1.1436,1.0965,1.084,1.0488,1.2015,1.3395,1.411,1.4256,1.3176,1.0421,0.9079,0.7976,0.7024,0.4236,0.2126,0.1014,-0.0636,-0.228,-0.3853,-0.4375,-0.5609,-0.7605,-0.7533,-0.7812,-0.8393,-0.795,-0.7754,-0.7783,-0.7802,-0.8023,-0.8449,-0.9123,-0.9574,-0.9856,-0.9868,-0.955,-0.9018,-0.8337,-0.7446,-0.6659,-0.6993,-0.6703,-0.6147,-0.5973,-0.5918,-0.6034,-0.6634,-0.76,-0.8646,-0.9486,-1.0498,-1.1446,-1.2025,-1.2281,-1.2496,-1.2883,-1.337,-1.3329,-1.1801,-1.2417,-1.2826,-1.1359,-1.177,-1.2647,-1.3586,-1.4519,-1.5175,-1.5275,-1.5299,-1.5304,-1.5293,-1.5315,-1.5329,-1.5389,-1.5408,-1.5392,-1.5391,-1.539,-1.5391,-1.5391,-1.5403,-1.5404,-1.539,-1.5391,-1.5366,-1.5304,-1.6106,-1.6932,-1.7802,-1.8593,-1.9275,-1.9802,-1.979,-1.9619,1.4857,1.402,1.3084,1.2409,1.3258,1.4239,1.4098,1.5159,1.6518,1.7807,1.8669,1.9547,2.0719,2.197,2.1992,1.9504,1.8683,1.7018,1.3146,1.2285,1.1778,1.0867,1.1489,1.211,1.233,1.2957,1.2938,1.1959,1.0337,0.9346,0.91,0.5493,0.3046,0.2282,0.0509,-0.0998,-0.2197,-0.3908,-0.5696,-0.7524,-0.7315,-0.7613,-0.8323,-0.8199,-0.8449,-0.8992,-0.9177,-0.9494,-0.9906,-1.0309,-1.0543,-1.0545,-0.9821,-0.9351,-0.8983,-0.8073,-0.7343,-0.6858,-0.7093,-0.6649,-0.5973,-0.5918,-0.6141,-0.647,-0.6777,-0.8113,-0.9596,-0.997,-1.0847,-1.1886,-1.2774,-1.2818,-1.2839,-1.3672,-1.4154,-1.436,-1.4057,-1.3344,-1.2651,-1.2199,-1.1876,-1.1947,-1.2824,-1.3726,-1.4529,-1.5207,-1.5302,-1.5312,-1.5366,-1.5365,-1.5384,-1.5395,-1.5402,-1.5394,-1.5403,-1.5391,-1.5391,-1.5391,-1.5404,-1.5403,-1.5391,-1.5391,-1.539,-1.5367,-1.6166,-1.6977,-1.7805,-1.8505,-1.923,-1.9953,-1.9847,-1.9701,1.5011,1.425,1.3357,1.2893,1.3804,1.4848,1.4925,1.6008,1.7462,1.9069,2.0033,2.0991,2.2263,2.3178,2.3141,2.1352,2.0309,1.8708,1.5828,1.4727,1.3592,1.1946,1.1911,1.1964,1.1851,1.2412,1.2995,1.3525,1.191,1.0743,1.037,0.7279,0.5082,0.4011,0.2015,-0.0192,-0.2589,-0.4187,-0.5909,-0.7776,-0.7803,-0.8196,-0.8962,-0.8962,-0.9233,-0.9741,-0.9919,-1.0253,-1.0735,-1.1158,-1.1439,-1.1451,-1.0476,-1.0004,-0.9695,-0.8379,-0.7592,-0.7178,-0.729,-0.6932,-0.6431,-0.6455,-0.6709,-0.7091,-0.7625,-0.8922,-1.0351,-1.1018,-1.1933,-1.2881,-1.356,-1.3646,-1.3687,-1.4242,-1.4592,-1.4704,-1.4392,-1.338,-1.2279,-1.1503,-1.1614,-1.198,-1.2486,-1.3571,-1.4559,-1.5052,-1.512,-1.5152,-1.5229,-1.5306,-1.536,-1.536,-1.5359,-1.5362,-1.5355,-1.5365,-1.5358,-1.5359,-1.536,-1.5366,-1.5391,-1.5391,-1.5391,-1.5391,-1.5816,-1.6611,-1.7805,-1.8145,-1.8903,-2.0012,-1.9914,-1.9813,1.5091,1.4297,1.3333,1.3012,1.3666,1.4664,1.5779,1.6801,1.8107,2.0128,2.1302,2.2375,2.3739,2.4053,2.4004,2.3706,2.2045,2.0272,1.8824,1.759,1.5971,1.3631,1.3251,1.2922,1.244,1.273,1.3493,1.4764,1.3475,1.2239,1.1281,0.9224,0.7347,0.5779,0.3756,0.0772,-0.3253,-0.4097,-0.5703,-0.8065,-0.8396,-0.9108,-1.0122,-1.0122,-1.0272,-1.0538,-1.0583,-1.0844,-1.1338,-1.1851,-1.2199,-1.234,-1.1346,-1.0908,-1.0609,-0.9,-0.8104,-0.768,-0.7695,-0.7546,-0.7307,-0.7261,-0.7414,-0.7798,-0.8743,-0.9846,-1.1012,-1.226,-1.3131,-1.3785,-1.4235,-1.4319,-1.4333,-1.4476,-1.4687,-1.4628,-1.3829,-1.2962,-1.1835,-1.0164,-1.1181,-1.234,-1.234,-1.3717,-1.483,-1.4858,-1.4855,-1.4887,-1.4969,-1.5141,-1.5281,-1.5281,-1.53,-1.5303,-1.5303,-1.5291,-1.5308,-1.5294,-1.532,-1.5348,-1.5405,-1.541,-1.5391,-1.5391,-1.5334,-1.6076,-1.7651,-1.7696,-1.8459,-1.9859,-1.9993,-1.9963,1.5837,1.4943,1.4067,1.4158,1.4979,1.5924,1.6586,1.7797,1.9234,2.0886,2.1805,2.2753,2.4198,2.4582,2.4394,2.3573,2.2862,2.1912,2.0483,1.9629,1.8431,1.6575,1.6127,1.5564,1.4422,1.4905,1.5104,1.4607,1.439,1.3927,1.3094,1.0406,0.8149,0.6574,0.5751,0.3565,-0.0154,-0.0706,-0.326,-0.7768,-0.7829,-0.9221,-1.1707,-1.1707,-1.1918,-1.2278,-1.2546,-1.2549,-1.2361,-1.274,-1.2753,-1.2451,-1.1291,-1.0829,-1.065,-0.9412,-0.8802,-0.8601,-0.8767,-0.8676,-0.8404,-0.7737,-0.7849,-0.8427,-0.9432,-1.0565,-1.1734,-1.2855,-1.2888,-1.2871,-1.4201,-1.363,-1.2939,-1.3885,-1.4289,-1.438,-1.4016,-1.2923,-1.1512,-0.9889,-1.0875,-1.1995,-1.1995,-1.3332,-1.4455,-1.4625,-1.4644,-1.471,-1.4895,-1.5037,-1.5133,-1.5133,-1.5234,-1.5301,-1.5291,-1.5291,-1.5303,-1.5292,-1.535,-1.538,-1.5405,-1.5409,-1.5391,-1.5391,-1.539,-1.5843,-1.6804,-1.7458,-1.8251,-1.9193,-1.9903,-2.0143,1.5853,1.5211,1.4565,1.41,1.5079,1.6186,1.629,1.758,1.9194,2.0858,2.1622,2.2446,2.3986,2.411,2.3837,2.3514,2.305,2.2614,2.2216,2.1576,2.0523,1.8815,1.8331,1.7522,1.59,1.6535,1.666,1.5714,1.5703,1.5068,1.3542,1.1298,0.9423,0.7991,0.7213,0.5462,0.2596,0.131,-0.1243,-0.5074,-0.8235,-1.083,-1.2854,-1.2188,-1.2004,-1.217,-1.1794,-1.1584,-1.1537,-1.1797,-1.1802,-1.1541,-1.0452,-1.0037,-0.9921,-0.8762,-0.8413,-0.8561,-0.8777,-0.8781,-0.8654,-0.8454,-0.8864,-0.9585,-1.035,-1.142,-1.2556,-1.3461,-1.3529,-1.3454,-1.3911,-1.3456,-1.2944,-1.3201,-1.3313,-1.3104,-1.2222,-1.1846,-1.1252,-0.9747,-1.0802,-1.195,-1.195,-1.3019,-1.3922,-1.4013,-1.4143,-1.4265,-1.4373,-1.4507,-1.4699,-1.4958,-1.5057,-1.5117,-1.5146,-1.5133,-1.5172,-1.5247,-1.5311,-1.535,-1.536,-1.5384,-1.5399,-1.5391,-1.5391,-1.5795,-1.6609,-1.7446,-1.8267,-1.9066,-1.9919,-2.0241,1.6121,1.5388,1.46,1.371,1.4588,1.5725,1.5903,1.7295,1.901,2.0762,2.1505,2.2235,2.3583,2.3491,2.3238,2.3418,2.3112,2.3042,2.3554,2.3109,2.2163,2.0701,2.0084,1.9123,1.7415,1.7926,1.7947,1.6937,1.6474,1.5414,1.3494,1.2209,1.101,0.9859,0.8864,0.7263,0.5005,0.3302,0.084,-0.2377,-0.7018,-1.0123,-1.1772,-1.1239,-1.101,-1.0989,-1.033,-1.0299,-1.0756,-1.0889,-1.0849,-1.0649,-0.9864,-0.9476,-0.9255,-0.8184,-0.772,-0.7732,-0.861,-0.8696,-0.8477,-0.8735,-0.9412,-1.0252,-1.0897,-1.1776,-1.269,-1.3459,-1.3607,-1.3475,-1.3166,-1.2912,-1.2669,-1.2341,-1.21,-1.1616,-1.0523,-1.0746,-1.0827,-0.9636,-1.0623,-1.1679,-1.1679,-1.2506,-1.3208,-1.3257,-1.3498,-1.3704,-1.3748,-1.388,-1.4125,-1.4563,-1.4748,-1.4866,-1.4901,-1.4966,-1.5042,-1.5146,-1.5241,-1.5299,-1.5293,-1.5361,-1.5401,-1.5391,-1.5391,-1.5703,-1.6348,-1.7381,-1.8211,-1.8866,-1.9858,-2.0331,1.7552,1.5662,1.3759,1.3495,1.3722,1.4438,1.6079,1.7754,1.9449,2.1187,2.2096,2.2735,2.3194,2.3239,2.3209,2.3213,2.334,2.3566,2.3982,2.3686,2.3095,2.2279,2.1347,2.0387,1.9414,1.9246,1.8667,1.7424,1.5761,1.44,1.345,1.3253,1.287,1.2209,1.1261,0.9516,0.6875,0.6186,0.3407,-0.1421,-0.1545,-0.3119,-0.5937,-0.7892,-0.8795,-0.8818,-0.9346,-1.0311,-1.1493,-1.1397,-1.1017,-1.0515,-1.0432,-0.9946,-0.9245,-0.8639,-0.7129,-0.5839,-0.8892,-0.9057,-0.7873,-0.7915,-0.8554,-0.9493,-1.0456,-1.0859,-1.1185,-1.2038,-1.173,-1.1218,-1.1666,-1.1171,-1.0705,-1.1124,-1.0818,-1.0418,-1.047,-1.0313,-0.9999,-0.949,-1.0065,-1.0638,-1.0638,-1.1528,-1.2289,-1.2472,-1.2778,-1.3057,-1.3243,-1.3434,-1.3569,-1.3614,-1.4234,-1.4624,-1.4643,-1.4868,-1.5014,-1.5021,-1.5197,-1.5299,-1.5293,-1.5358,-1.5409,-1.5391,-1.5391,-1.5449,-1.5508,-1.7128,-1.7937,-1.8059,-1.9645,-2.0389,1.6231,1.4779,1.3349,1.271,1.368,1.5071,1.6245,1.81,1.9976,2.1326,2.2074,2.2554,2.2848,2.2548,2.2324,2.259,2.2478,2.2623,2.3343,2.3326,2.293,2.2021,2.16,2.0853,1.955,1.9344,1.876,1.7444,1.5793,1.452,1.3793,1.3412,1.3011,1.2566,1.1647,1.0543,0.9274,0.8063,0.6436,0.4468,0.3433,0.2587,0.1754,-0.1731,-0.3159,-0.2948,-0.458,-0.546,-0.5777,-0.5956,-0.5767,-0.5318,-0.5337,-0.5199,-0.4925,-0.4165,-0.426,-0.4879,-0.5348,-0.577,-0.6211,-0.6803,-0.7271,-0.7792,-0.9013,-0.9871,-1.0497,-1.086,-1.062,-1.0228,-1.0106,-0.9385,-0.8724,-0.8936,-0.8985,-0.8924,-0.8629,-0.925,-0.9738,-0.9249,-1.0027,-1.0739,-1.0739,-1.1235,-1.1642,-1.174,-1.2127,-1.2457,-1.252,-1.2777,-1.2953,-1.2953,-1.3693,-1.4253,-1.4449,-1.4575,-1.4747,-1.498,-1.5108,-1.5226,-1.5303,-1.5334,-1.5362,-1.5391,-1.5391,-1.5391,-1.5391,-1.7129,-1.7948,-1.7941,-1.9655,-2.0432,1.6066,1.4679,1.3402,1.2794,1.3799,1.5246,1.643,1.8221,1.9951,2.1177,2.1698,2.1969,2.2169,2.1786,2.1568,2.2032,2.1823,2.1915,2.2793,2.2894,2.2571,2.1862,2.1644,2.0968,1.9473,1.8846,1.8177,1.7327,1.5806,1.4669,1.4074,1.3293,1.2681,1.2316,1.1289,1.0523,1.0054,0.8714,0.7954,0.7741,0.6466,0.6018,0.6213,0.3416,0.2125,0.2051,-0.0063,-0.053,0.0124,-0.0846,-0.0815,-0.0155,-0.0151,-0.0238,-0.0324,0.0087,-0.0898,-0.2335,-0.1618,-0.2314,-0.3639,-0.4349,-0.4922,-0.5514,-0.647,-0.7799,-0.896,-0.8875,-0.8773,-0.8599,-0.8376,-0.7632,-0.7021,-0.7337,-0.7508,-0.7555,-0.7418,-0.8345,-0.9089,-0.8823,-0.9666,-1.0472,-1.0472,-1.077,-1.1024,-1.1024,-1.1439,-1.1743,-1.1743,-1.201,-1.2265,-1.2325,-1.2937,-1.3589,-1.4093,-1.4301,-1.4553,-1.4887,-1.499,-1.5081,-1.5173,-1.5197,-1.5237,-1.5311,-1.5303,-1.5328,-1.5367,-1.7122,-1.7941,-1.7942,-1.9665,-2.0447,1.7996,1.5909,1.3919,1.4034,1.3982,1.4502,1.6697,1.7911,1.9049,2.067,2.1023,2.0991,2.1023,2.0991,2.115,2.1521,2.1582,2.1878,2.2686,2.2525,2.2271,2.2186,2.1607,2.0719,1.9512,1.7779,1.6863,1.7172,1.5718,1.4602,1.4112,1.2957,1.2097,1.1632,1.0366,0.9342,0.8525,0.7986,0.7301,0.652,0.6899,0.6669,0.5921,0.655,0.6223,0.5061,0.3312,0.3537,0.496,0.2677,0.2623,0.3943,0.3928,0.3943,0.384,0.2995,0.2656,0.2491,0.1567,0.0697,-0.0066,-0.0066,-0.1247,-0.2658,-0.2654,-0.424,-0.5998,-0.5816,-0.574,-0.5838,-0.6321,-0.5918,-0.5682,-0.6751,-0.6556,-0.6407,-0.7377,-0.7675,-0.781,-0.815,-0.8876,-0.9408,-0.9408,-0.9983,-1.0396,-1.0396,-1.0691,-1.092,-1.092,-1.1144,-1.1432,-1.1664,-1.1958,-1.2504,-1.3432,-1.4049,-1.4486,-1.4688,-1.4827,-1.4912,-1.4893,-1.4974,-1.503,-1.5093,-1.5094,-1.516,-1.5318,-1.7054,-1.7902,-1.794,-1.9628,-2.0399,1.7135,1.5246,1.341,1.3409,1.3964,1.4935,1.6626,1.8175,1.9611,2.0766,2.1213,2.1337,2.1055,2.1213,2.1624,2.2254,2.1941,2.2061,2.3367,2.2822,2.2243,2.2069,2.1237,2.0213,1.9098,1.8095,1.7253,1.6617,1.5894,1.5233,1.4619,1.3336,1.2227,1.1346,1.0314,0.9412,0.8699,0.8325,0.7713,0.6899,0.7025,0.6969,0.67,0.6321,0.6129,0.6029,0.4878,0.4703,0.5136,0.4408,0.4383,0.4815,0.4821,0.4642,0.4366,0.4092,0.3667,0.3216,0.2918,0.2787,0.2652,0.2054,0.1484,0.0855,0.0033,-0.2285,-0.4664,-0.4784,-0.4809,-0.4815,-0.4783,-0.4806,-0.4852,-0.4867,-0.5197,-0.5587,-0.588,-0.6394,-0.7025,-0.7714,-0.8256,-0.8673,-0.8953,-0.9158,-0.9398,-0.9673,-0.9957,-1.0246,-1.0532,-1.0845,-1.1057,-1.1136,-1.1144,-1.1747,-1.3243,-1.3534,-1.3884,-1.4464,-1.4524,-1.4663,-1.49,-1.4921,-1.4931,-1.4957,-1.4959,-1.5028,-1.5164,-1.6314,-1.7222,-1.7945,-1.9626,-2.0115,1.7268,1.5496,1.3803,1.4016,1.4414,1.5174,1.6684,1.8184,1.9555,2.0534,2.1086,2.1306,2.1055,2.1213,2.1577,2.2205,2.1908,2.2028,2.3281,2.2788,2.2245,2.2131,2.102,1.995,1.9144,1.8076,1.7127,1.6347,1.5983,1.5533,1.4932,1.3785,1.265,1.1626,1.0324,0.9387,0.8816,0.8578,0.8231,0.7743,0.7743,0.7656,0.7502,0.6993,0.6815,0.6913,0.6227,0.5991,0.0,0.5807,0.5691,0.5667,0.5505,0.5206,0.4839,0.468,0.4322,0.3904,0.3746,0.3826,0.3906,0.3364,0.2962,0.2563,0.18,-0.0493,-0.2867,-0.3029,-0.3399,-0.3709,-0.3556,-0.3687,-0.3903,-0.3934,-0.4264,-0.4585,-0.4729,-0.5259,-0.593,-0.6635,-0.7181,-0.7636,-0.8065,-0.8368,-0.8657,-0.8915,-0.9215,-0.952,-0.9778,-0.9904,-1.0041,-1.016,-1.0239,-1.0817,-1.2102,-1.2538,-1.3115,-1.3913,-1.4023,-1.415,-1.4357,-1.4467,-1.4555,-1.4603,-1.4663,-1.4789,-1.4908,-1.5845,-1.6773,-1.7742,-1.9092,-1.9466,0.0,1.6494,1.488,1.5454,1.5231,1.5252,1.6863,1.8074,0.0,2.0147,2.0715,2.1023,2.1007,2.1055,2.1244,2.1617,2.1705,2.1977,2.2712,2.2535,2.2349,2.2254,2.1039,1.9965,1.9465,1.7858,1.6712,1.6292,1.5983,1.561,1.5165,1.4265,1.3312,1.2392,1.0558,0.936,0.8844,0.8844,0.8816,0.8789,0.8789,0.8584,0.8217,0.8241,0.8052,0.7686,0.7296,0.7344,0.7608,0.6889,0.6579,0.6518,0.6152,0.5797,0.5365,0.4947,0.4756,0.4692,0.428,0.4118,0.4123,0.4026,0.3425,0.2728,0.2695,0.1129,-0.0668,-0.0735,-0.1609,-0.252,-0.257,-0.2631,-0.2908,-0.3718,-0.3697,-0.3569,-0.3879,-0.4269,-0.4668,-0.508,-0.5815,-0.6495,-0.6839,-0.756,-0.8094,-0.8094,-0.8462,-0.8712,-0.8706,-0.859,-0.8585,-0.8892,-0.9266,-0.9741,-1.0296,-1.126,-1.2224,-1.3093,-1.3306,-1.3432,-1.348,-1.3731,-1.3934,-1.4049,-1.4259,-1.4456,-1.4594,-1.5593,-1.646,-1.7245,-1.8105,-1.8512,1.8688,0.0,1.541,1.5543,1.5784,1.6298,0.0,1.8555,1.9662,2.0649,2.1181,2.1368,2.1055,2.1694,2.2327,2.2429,2.2664,2.309,2.3829,2.3383,2.2669,2.1866,2.1749,2.0933,1.8863,1.8532,1.776,1.6046,1.5856,1.5741,1.5639,1.4688,1.4041,1.3799,1.2315,1.0802,0.9274,0.9262,0.9101,0.8789,0.8551,0.8365,0.8269,0.7976,0.7773,0.7686,0.7598,0.7442,0.7246,0.7383,0.7225,0.6969,0.7196,0.7047,0.6669,0.6562,0.6328,0.5991,0.5595,0.5439,0.5282,0.4307,0.3626,0.3093,0.2808,0.2311,0.1676,0.0735,-0.0067,-0.0735,-0.1201,-0.2014,-0.2758,-0.2944,-0.3176,-0.3368,-0.3449,-0.3821,-0.4269,-0.4668,-0.5418,-0.6037,-0.6075,-0.6545,-0.7002,-0.7231,-0.7675,-0.7955,-0.7887,-0.8119,-0.8237,-0.8172,-0.8368,-0.8874,-0.9711,-1.08,-1.1764,-1.253,-1.2622,-1.2836,-1.3242,-1.3324,-1.3451,-1.3646,-1.3997,-1.4259,-1.4456,-1.5407,-1.5743,-1.5526,-1.6999,-1.733,1.9519,1.7942,1.6323,1.6323,1.6683,1.7236,1.7998,1.9295,2.0574,2.1348,2.1955,2.2262,2.2051,2.2591,2.308,2.3084,2.3228,2.3394,2.3558,2.3358,2.2873,2.2027,2.1657,2.0792,1.9065,1.8477,1.7603,1.6144,1.5885,1.5799,1.5799,1.4803,1.424,1.4311,1.2882,1.1523,1.0335,1.0108,0.9689,0.9074,0.9046,0.8965,0.88,0.8382,0.8213,0.8195,0.7831,0.7569,0.7403,0.7598,0.7471,0.7118,0.7344,0.7187,0.6811,0.6811,0.67,0.6457,0.6244,0.6068,0.5758,0.4884,0.4274,0.3816,0.3434,0.3142,0.2812,0.1976,0.1507,0.0969,-0.02,-0.0966,-0.1665,-0.249,-0.2856,-0.301,-0.301,-0.3241,-0.3528,-0.3936,-0.4381,-0.4827,-0.5174,-0.5449,-0.5752,-0.6128,-0.6453,-0.6625,-0.6611,-0.7052,-0.7328,-0.7222,-0.7738,-0.8322,-0.8814,-0.9651,-1.0603,-1.1655,-1.183,-1.202,-1.2316,-1.256,-1.292,-1.3391,-1.3713,-1.3966,-1.4172,-1.4678,-1.4751,-1.446,-1.5752,-1.6151,2.0391,1.9233,1.7907,1.7714,1.8005,1.8505,1.906,2.0416,2.1709,2.2204,2.2795,2.3212,2.3241,2.3444,2.3583,2.356,2.3578,2.3382,2.2855,2.3021,2.294,2.2276,2.1261,2.0273,1.9411,1.8143,1.7058,1.6292,1.5955,1.5754,1.5649,1.4729,1.4211,1.4236,1.2995,1.2138,1.1696,1.1126,1.0482,0.9728,0.9884,0.9782,0.9515,0.9015,0.8789,0.8761,0.808,0.7783,0.7783,0.7725,0.75,0.7178,0.7178,0.6969,0.6669,0.6669,0.6669,0.6669,0.6609,0.6336,0.5913,0.5515,0.5106,0.4718,0.4307,0.3881,0.3425,0.3014,0.2793,0.2356,0.0801,0.0267,-0.0234,-0.1778,-0.2217,-0.232,-0.239,-0.2483,-0.2706,-0.313,-0.3331,-0.3588,-0.4205,-0.4456,-0.4674,-0.4985,-0.5167,-0.5269,-0.5274,-0.5839,-0.6244,-0.6275,-0.7173,-0.7787,-0.7813,-0.8365,-0.9215,-1.0421,-1.0861,-1.1125,-1.123,-1.1749,-1.2341,-1.2986,-1.3294,-1.352,-1.3671,-1.3748,-1.3795,-1.381,-1.4568,-1.4988,2.1299,2.1367,2.1171,2.002,2.0284,2.1033,2.167,2.2248,2.2764,2.3195,2.3234,2.3247,2.3422,2.3747,2.3951,2.3766,2.3857,2.3733,2.3194,2.3165,2.283,2.182,2.1334,2.0434,1.8726,1.8102,1.7279,1.5972,1.5827,1.5559,1.4977,1.4773,1.4448,1.3882,1.3808,1.3529,1.3023,1.1966,1.1382,1.1265,1.0522,1.012,1.0052,0.9175,0.8789,0.8789,0.8393,0.8205,0.8176,0.7841,0.7666,0.7598,0.7598,0.7569,0.751,0.751,0.751,0.7471,0.7127,0.676,0.6328,0.5876,0.566,0.5529,0.5148,0.472,0.4311,0.3851,0.3233,0.263,0.2356,0.154,0.0701,0.0401,-0.0033,-0.0565,-0.107,-0.1563,-0.2095,-0.2686,-0.3385,-0.3709,-0.3093,-0.3793,-0.4366,-0.4215,-0.4486,-0.471,-0.472,-0.5125,-0.547,-0.5708,-0.6266,-0.6744,-0.6966,-0.778,-0.8385,-0.8612,-0.951,-1.0294,-1.093,-1.1476,-1.1707,-1.1599,-1.2353,-1.2699,-1.2639,-1.3143,-1.336,-1.3325,-1.3838,-1.3979,2.2547,2.2876,2.3095,2.2731,2.2529,2.2517,2.2862,2.3363,2.3817,2.3966,2.4039,2.4095,2.4189,2.4417,2.4563,2.4456,2.4441,2.4173,2.3462,2.327,2.2898,2.2073,2.1137,2.0217,1.9367,1.8082,1.7046,1.6398,1.6011,1.5514,1.4827,1.4453,1.4288,1.4333,1.3872,1.3825,1.427,1.331,1.2453,1.1644,1.0858,1.0269,0.9869,0.9125,0.8706,0.8523,0.8365,0.8321,0.8339,0.8359,0.8388,0.8386,0.8386,0.8386,0.8389,0.8164,0.793,0.7637,0.7246,0.699,0.6751,0.632,0.6045,0.5767,0.5349,0.4916,0.452,0.4065,0.349,0.2981,0.276,0.2286,0.1878,0.1878,0.117,0.04,0.0133,-0.0399,-0.0995,-0.1607,-0.204,-0.223,-0.1988,-0.2801,-0.3554,-0.3709,-0.3692,-0.369,-0.3679,-0.445,-0.5026,-0.515,-0.5936,-0.6505,-0.662,-0.7041,-0.7646,-0.8462,-0.9,-0.9572,-1.0271,-1.0688,-1.1036,-1.1283,-1.1791,-1.203,-1.1964,-1.2254,-1.2463,-1.2614,-1.2832,-1.3092,2.3572,2.3914,2.4284,2.4695,2.4252,2.3758,2.386,2.4288,2.464,2.46,2.4707,2.4803,2.4866,2.4949,2.4991,2.4972,2.4831,2.4435,2.3533,2.3298,2.2982,2.2377,2.0931,1.9959,1.9883,1.8077,1.6866,1.6686,1.6219,1.5583,1.4854,1.4318,1.4199,1.4543,1.3935,1.4022,1.5023,1.4369,1.3425,1.2213,1.1324,1.0595,1.0043,0.9378,0.8871,0.8561,0.8449,0.8513,0.8704,0.888,0.9118,0.9322,0.921,0.901,0.8803,0.8521,0.8164,0.7831,0.7626,0.7553,0.7491,0.7182,0.6819,0.6402,0.6066,0.5575,0.5093,0.4552,0.4097,0.3616,0.3117,0.2926,0.2856,0.2856,0.2075,0.1336,0.1338,0.0967,0.0499,0.0033,-0.0401,-0.0768,-0.0961,-0.1603,-0.2353,-0.3187,-0.3067,-0.2874,-0.2993,-0.3831,-0.4519,-0.4733,-0.5537,-0.6176,-0.6417,-0.6384,-0.6927,-0.8259,-0.8471,-0.8849,-0.9534,-0.9843,-1.0266,-1.0847,-1.115,-1.1314,-1.1314,-1.1461,-1.1627,-1.1828,-1.1938,-1.24,2.3909,2.4348,2.4796,2.5013,2.5014,2.5043,2.5286,2.5247,2.5151,2.5143,2.4956,2.4874,2.5032,2.5034,2.4972,2.4827,2.4647,2.4229,2.3333,2.3212,2.2982,2.2377,2.0931,1.9883,1.9561,1.8161,1.7027,1.6367,1.6301,1.5844,1.4854,1.4737,1.4453,1.3899,1.4397,1.4725,1.483,1.4592,1.4237,1.3723,1.2232,1.1495,1.1427,1.0314,0.9633,0.9289,0.8926,0.904,0.9485,0.9206,0.9591,1.0325,0.9791,0.9068,0.835,0.8397,0.8391,0.8389,0.8746,0.8873,0.8839,0.8839,0.8544,0.8226,0.8194,0.758,0.6743,0.5899,0.538,0.489,0.4113,0.3593,0.3261,0.3261,0.2904,0.258,0.256,0.2526,0.249,0.2456,0.1074,-0.0067,-0.01,-0.0134,-0.0772,-0.2493,-0.2719,-0.2838,-0.3212,-0.3334,-0.3723,-0.4535,-0.468,-0.5177,-0.6242,-0.6086,-0.6254,-0.6983,-0.7491,-0.8107,-0.8833,-0.9192,-0.9415,-0.9542,-1.0108,-1.043,-1.0481,-1.1047,-1.1199,-1.1001,-1.1432,-1.2043,2.442,2.4651,2.4879,2.5206,2.5321,2.5395,2.5527,2.5508,2.5453,2.5453,2.5323,2.5224,2.5236,2.5102,2.4991,2.4922,2.4685,2.4229,2.3484,2.3293,2.2814,2.1759,2.067,1.9672,1.888,1.7713,1.6815,1.6313,1.6123,1.5639,1.4854,1.4797,1.4677,1.4423,1.4663,1.4797,1.4797,1.4847,1.4586,1.3998,1.2706,1.179,1.1204,1.0448,0.9706,0.9058,0.948,0.9822,1.0038,1.0178,1.0321,1.0374,0.9538,0.9224,0.9182,0.9201,0.9198,0.9229,0.9394,0.9231,0.9004,0.9004,0.8728,0.8346,0.8094,0.7594,0.6981,0.6407,0.5952,0.5376,0.4274,0.3858,0.3723,0.3723,0.363,0.3434,0.3142,0.3072,0.3014,0.2763,0.2153,0.1308,0.0201,0.0,-0.0401,-0.1642,-0.232,-0.2794,-0.3016,-0.3202,-0.3516,-0.4051,-0.4648,-0.5228,-0.5642,-0.5914,-0.6226,-0.6502,-0.7019,-0.7559,-0.8078,-0.8473,-0.8778,-0.9008,-0.9254,-0.9375,-0.9413,-0.9894,-1.0133,-1.0221,-1.099,-1.17,2.5167,2.5289,2.5392,2.5721,2.5647,2.5503,2.5558,2.5603,2.5631,2.5603,2.5535,2.5434,2.5331,2.5107,2.4943,2.4943,2.4651,2.4174,2.3505,2.3293,2.2709,2.1368,2.05,1.9572,1.85,1.7541,1.6773,1.6313,1.6095,1.5702,1.5154,1.5124,1.5124,1.5124,1.5124,1.5124,1.5124,1.5111,1.4874,1.44,1.3512,1.2475,1.1374,1.0685,0.9857,0.9031,0.9666,1.0179,1.0541,1.0819,1.0979,1.0967,1.0195,0.997,1.0113,1.0135,1.0066,0.9953,1.0056,0.9807,0.9404,0.9404,0.9044,0.8527,0.8257,0.7775,0.7181,0.6646,0.6305,0.5813,0.4692,0.4318,0.4183,0.4183,0.4091,0.3923,0.3593,0.3523,0.3397,0.2981,0.2786,0.2295,0.1065,0.0378,-0.038,-0.1548,-0.2302,-0.273,-0.2824,-0.3065,-0.3325,-0.3597,-0.4461,-0.5061,-0.5176,-0.5645,-0.5952,-0.6115,-0.6592,-0.6994,-0.7296,-0.7598,-0.7907,-0.8217,-0.8378,-0.8501,-0.8601,-0.9008,-0.9292,-0.9506,-1.0311,-1.1133,2.6179,2.6339,2.6429,2.6644,2.6088,2.5493,2.5493,2.5603,2.5683,2.5607,2.5498,2.5387,2.5313,2.5012,2.4804,2.4804,2.4461,2.3958,2.3282,2.3189,2.2709,2.1368,2.05,1.9572,1.8517,1.7724,1.701,1.6355,1.6301,1.6136,1.5827,1.5799,1.5799,1.5799,1.5799,1.5799,1.5784,1.5359,1.509,1.509,1.469,1.3683,1.2184,1.1171,1.0242,0.9408,0.9408,1.0032,1.1001,1.1001,1.1546,1.2339,1.1943,1.1455,1.101,1.1079,1.0827,1.0492,1.0861,1.0687,1.0322,1.0322,0.9707,0.9014,0.9004,0.8408,0.7549,0.6738,0.6518,0.6336,0.5522,0.4953,0.4602,0.4602,0.4312,0.4026,0.3993,0.3993,0.3858,0.3392,0.2962,0.2686,0.2711,0.1201,-0.0593,-0.242,-0.2676,-0.2676,-0.2676,-0.2917,-0.3144,-0.3271,-0.3961,-0.451,-0.4843,-0.5137,-0.5412,-0.5693,-0.6062,-0.6357,-0.6504,-0.6488,-0.6652,-0.6996,-0.7453,-0.7868,-0.8189,-0.8601,-0.8789,-0.88,-0.9274,-1.0285,2.533,2.542,2.5534,2.5751,2.5647,2.5493,2.5493,2.5564,2.5605,2.5547,2.5344,2.5178,2.5102,2.4809,2.4575,2.4575,2.4174,2.3692,2.3259,2.2996,2.2435,2.1341,2.05,1.9478,1.8188,1.7371,1.667,1.6011,1.5955,1.5898,1.5799,1.5799,1.5799,1.5799,1.5799,1.5574,1.5109,1.5416,1.5358,1.49,1.4918,1.4076,1.2525,1.2237,1.1482,1.0487,1.0999,1.1414,1.17,1.1607,1.1536,1.1442,1.106,1.1166,1.1563,1.1586,1.1698,1.1895,1.2008,1.1505,1.0791,1.0791,1.0401,0.9785,0.9189,0.8828,0.8432,0.7581,0.7127,0.6811,0.6275,0.5813,0.5446,0.5144,0.4992,0.473,0.4123,0.3993,0.3765,0.3039,0.2867,0.2817,0.273,0.1724,0.0539,-0.0624,-0.133,-0.1724,-0.1724,-0.1991,-0.2427,-0.3102,-0.3576,-0.386,-0.3991,-0.4805,-0.524,-0.5146,-0.5599,-0.6013,-0.6339,-0.6434,-0.654,-0.6644,-0.708,-0.7316,-0.7424,-0.8117,-0.8449,-0.8471,-0.9569,-1.0307,2.5604,2.5677,2.5771,2.5894,2.5699,2.5471,2.5484,2.5503,2.5517,2.5477,2.5258,2.5056,2.5003,2.4737,2.4459,2.4318,2.3945,2.3544,2.3069,2.2822,2.2229,2.0891,2.0289,1.9336,1.7641,1.7055,1.6528,1.5856,1.5799,1.5799,1.5799,1.5799,1.5799,1.5799,1.5799,1.5604,1.5214,1.5604,1.5604,1.5186,1.533,1.4587,1.3115,1.2706,1.1994,1.1137,1.1618,1.1963,1.216,1.2316,1.2203,1.1894,1.1654,1.1892,1.235,1.235,1.2408,1.2508,1.2508,1.1982,1.1319,1.1319,1.0866,1.0227,0.951,0.9044,0.8581,0.769,0.7275,0.6999,0.6609,0.6213,0.5797,0.5404,0.5309,0.5119,0.4377,0.4248,0.4014,0.3196,0.3123,0.3126,0.2962,0.2017,0.1011,0.0124,-0.0455,-0.0782,-0.0767,-0.0943,-0.1283,-0.1816,-0.2459,-0.3067,-0.3558,-0.4212,-0.4638,-0.4698,-0.5147,-0.5558,-0.5892,-0.6084,-0.6136,-0.6037,-0.6427,-0.6691,-0.6871,-0.7501,-0.7988,-0.8348,-0.934,-0.9982,2.6476,2.6534,2.6579,2.6579,2.5998,2.5401,2.5477,2.5415,2.5364,2.5364,2.5168,2.4986,2.4962,2.4693,2.4372,2.4081,2.3806,2.3437,2.2822,2.2695,2.2057,2.0408,2.0086,1.9219,1.7213,1.6895,1.6528,1.5856,1.5799,1.5799,1.5799,1.5799,1.5799,1.5799,1.5799,1.5799,1.5799,1.5799,1.5799,1.5799,1.5799,1.5169,1.3964,1.2914,1.2154,1.1656,1.1764,1.2119,1.2646,1.3087,1.3267,1.3267,1.3232,1.3198,1.3198,1.3198,1.2943,1.2579,1.2579,1.2246,1.1799,1.1754,1.1118,1.0218,0.9739,0.902,0.8219,0.7396,0.7148,0.7059,0.6601,0.6213,0.5859,0.5404,0.5309,0.5182,0.4698,0.4619,0.4438,0.3721,0.364,0.3589,0.3358,0.2317,0.1154,0.0133,0.0,0.0,0.0,0.0,0.0,0.0,-0.0982,-0.2097,-0.3173,-0.347,-0.3814,-0.4303,-0.4656,-0.4948,-0.5186,-0.5454,-0.5538,-0.5316,-0.5703,-0.6068,-0.6457,-0.685,-0.747,-0.8299,-0.8723,-0.9407,2.5714,2.5627,2.5689,2.5689,2.5541,2.5391,2.5346,2.5197,2.5097,2.5139,2.4977,2.4799,2.4636,2.4426,2.4247,2.4172,2.3674,2.3277,2.3117,2.2669,2.2241,2.1854,2.0728,1.9603,1.8614,1.7482,1.6528,1.5856,1.5799,1.5799,1.5799,1.5799,1.5799,1.5799,1.5799,1.5799,1.5799,1.5799,1.5799,1.5799,1.5799,1.5649,1.5336,1.4578,1.3993,1.353,1.3544,1.3758,1.4038,1.3815,1.3735,1.3702,1.3323,1.3198,1.3198,1.3198,1.3129,1.306,1.306,1.2508,1.1743,1.1385,1.0588,0.9635,0.8895,0.8543,0.8281,0.7723,0.7569,0.7412,0.67,0.6427,0.6191,0.546,0.5309,0.5182,0.4698,0.4792,0.4711,0.3779,0.3847,0.3919,0.3392,0.3199,0.2385,0.0313,0.0,0.0,0.0,0.0,0.0,0.0,-0.0224,-0.0491,-0.0759,-0.2497,-0.366,-0.3751,-0.4231,-0.4417,-0.4271,-0.4771,-0.5129,-0.5284,-0.5703,-0.5944,-0.6037,-0.6427,-0.6893,-0.7393,-0.8172,-0.8803,2.5359,2.5216,2.5269,2.5346,2.5292,2.5197,2.5154,2.5018,2.4885,2.4841,2.4728,2.4623,2.4528,2.4339,2.4094,2.3774,2.3414,2.3111,2.2824,2.248,2.2175,2.182,2.1059,2.0083,1.8833,1.7861,1.6981,1.6111,1.587,1.5799,1.5799,1.5799,1.5799,1.5799,1.5799,1.5799,1.5799,1.5799,1.5799,1.5799,1.5799,1.5799,1.5784,1.4943,1.4198,1.3578,1.3578,1.3693,1.3868,1.3901,1.3769,1.3547,1.3547,1.3391,1.3198,1.3198,1.3198,1.3198,1.3198,1.2873,1.2425,1.2175,1.1284,1.02,0.9583,0.8941,0.8291,0.7822,0.7695,0.7608,0.7166,0.6798,0.6397,0.5975,0.5585,0.5222,0.4892,0.4861,0.4666,0.3926,0.3906,0.387,0.3385,0.3483,0.2973,0.1129,0.0391,0.0,0.0,0.0,0.0,0.0,0.0,0.0,0.0,-0.116,-0.2366,-0.3534,-0.388,-0.4015,-0.4004,-0.432,-0.4687,-0.5088,-0.53,-0.5584,-0.5913,-0.6121,-0.6509,-0.712,-0.7786,-0.8431,2.5374,2.5138,2.511,2.5215,2.5111,2.4979,2.4974,2.485,2.47,2.4526,2.4495,2.4495,2.4444,2.4266,2.3917,2.3369,2.3189,2.294,2.2426,2.2321,2.2073,2.1448,2.1288,2.0565,1.893,1.8253,1.7518,1.6557,1.6072,1.5799,1.5799,1.5799,1.5799,1.5799,1.5799,1.5799,1.5799,1.5799,1.5799,1.5799,1.5799,1.5799,1.5784,1.4933,1.4155,1.3473,1.3473,1.3552,1.3682,1.4,1.3835,1.3459,1.3769,1.3615,1.3198,1.3198,1.3198,1.3198,1.3198,1.3163,1.3082,1.2982,1.2043,1.0878,1.0393,0.9382,0.8276,0.7832,0.7695,0.7695,0.7598,0.7098,0.6579,0.6427,0.589,0.5344,0.5181,0.4949,0.4655,0.4219,0.3944,0.3711,0.3449,0.3524,0.328,0.2273,0.1265,0.0466,0.0042,0.0,0.0,0.0,0.0,0.0,0.0,0.0,-0.0848,-0.286,-0.3353,-0.3695,-0.3928,-0.392,-0.4205,-0.4752,-0.488,-0.5252,-0.5877,-0.5936,-0.6288,-0.6983,-0.7507,-0.8087,2.6026,2.5449,2.5015,2.5034,2.5022,2.4974,2.4855,2.4685,2.4545,2.4512,2.4495,2.4444,2.4266,2.3978,2.3753,2.3649,2.3141,2.2746,2.266,2.2453,2.2276,2.2175,2.1583,2.0969,2.0362,1.8838,1.7709,1.7296,1.6359,1.5799,1.5799,1.5799,1.5799,1.5799,1.5799,1.5799,1.5799,1.5799,1.5799,1.5799,1.5799,1.5799,1.5799,1.5651,1.5549,1.5447,1.5447,1.5433,1.5418,1.5074,1.469,1.431,1.4032,1.3615,1.3198,1.3198,1.3198,1.3198,1.3198,1.2943,1.2543,1.2109,1.1265,1.0274,0.9505,0.8831,0.823,0.7822,0.7695,0.7637,0.7275,0.7089,0.6841,0.616,0.5882,0.571,0.5356,0.5438,0.5399,0.4865,0.4256,0.3791,0.3738,0.3659,0.3563,0.3371,0.3224,0.2361,0.0266,0.0,0.0,0.0,0.0,0.0,0.0,0.0,-0.0134,-0.0447,-0.2455,-0.3615,-0.3635,-0.3635,-0.3805,-0.4128,-0.4854,-0.5408,-0.5719,-0.6018,-0.6237,-0.6409,-0.7134,-0.7563,2.5041,2.5214,2.5451,2.4991,2.4809,2.4708,2.4654,2.4478,2.4321,2.4321,2.4321,2.4303,2.4209,2.3917,2.3649,2.3437,2.3021,2.266,2.25,2.236,2.231,2.231,2.2023,2.1479,2.0631,1.9321,1.8199,1.741,1.6576,1.6095,1.6095,1.6095,1.6095,1.6095,1.5898,1.5799,1.5799,1.5799,1.5799,1.5799,1.5799,1.5799,1.5799,1.5799,1.5668,1.5418,1.5418,1.5285,1.5074,1.5104,1.4845,1.4501,1.4564,1.4181,1.3581,1.3581,1.3425,1.3198,1.3198,1.3047,1.2871,1.266,1.1761,1.0642,1.0064,0.9159,0.8279,0.7822,0.7695,0.7666,0.7471,0.7275,0.702,0.6661,0.6574,0.6434,0.5964,0.5786,0.5631,0.5392,0.4917,0.4555,0.4632,0.4316,0.4034,0.4034,0.3781,0.306,0.1555,0.1137,0.0741,0.0089,0.0,0.0,0.0,0.0,0.0,0.0,-0.0982,-0.2186,-0.3534,-0.3581,-0.372,-0.4,-0.4719,-0.5225,-0.5492,-0.5983,-0.6231,-0.6243,-0.6797,-0.7205,2.4504,2.5041,2.5536,2.5142,2.4779,2.4524,2.458,2.432,2.4094,2.417,2.4113,2.4074,2.4074,2.3795,2.35,2.3236,2.2865,2.2527,2.2321,2.231,2.231,2.231,2.231,2.1961,2.1043,1.9902,1.8818,1.7807,1.6908,1.6376,1.6301,1.6301,1.6301,1.6301,1.6067,1.5885,1.5799,1.5799,1.5799,1.5799,1.5799,1.5799,1.5799,1.5799,1.561,1.5285,1.5285,1.5043,1.469,1.4968,1.4783,1.4374,1.469,1.4374,1.3702,1.3702,1.348,1.3198,1.3198,1.3198,1.3198,1.3198,1.2323,1.1149,1.0658,0.9563,0.8406,0.7852,0.7695,0.7695,0.7695,0.7576,0.7402,0.7302,0.7349,0.7257,0.6624,0.6124,0.5809,0.5815,0.5488,0.5204,0.5239,0.4889,0.4517,0.4303,0.3895,0.3364,0.2796,0.243,0.1898,0.1026,0.0358,0.0,0.0,0.0,0.0,0.0,0.0,-0.0804,-0.2588,-0.3265,-0.3698,-0.3906,-0.4352,-0.4788,-0.5203,-0.5881,-0.6149,-0.6078,-0.6591,-0.697,2.5458,2.5208,2.4825,2.5487,2.5108,2.4626,2.4771,2.4234,2.3816,2.4133,2.3955,2.3714,2.3714,2.3437,2.3212,2.3189,2.2712,2.231,2.231,2.231,2.231,2.231,2.231,2.2265,2.2215,2.0849,1.9658,1.8977,1.7529,1.6562,1.6305,1.6301,1.6301,1.6301,1.6301,1.6108,1.5799,1.5799,1.5799,1.5799,1.5799,1.5799,1.5799,1.5799,1.5799,1.577,1.577,1.5507,1.5074,1.5104,1.4627,1.3934,1.3967,1.3648,1.3232,1.3232,1.3232,1.3198,1.3198,1.3198,1.3198,1.3198,1.2506,1.1529,1.0722,0.9741,0.8715,0.7931,0.7695,0.7695,0.7695,0.7997,0.8245,0.7854,0.8057,0.8087,0.7154,0.6557,0.6182,0.6172,0.5801,0.5382,0.5157,0.5094,0.4793,0.3948,0.3704,0.3591,0.353,0.3537,0.3503,0.343,0.1344,0.0,0.0,0.0,0.0,0.0,0.0,-0.0045,-0.0179,-0.2373,-0.3588,-0.3612,-0.3632,-0.4065,-0.4924,-0.5764,-0.6056,-0.5739,-0.66,-0.6875,2.3922,2.4134,2.4521,2.474,2.4597,2.4562,2.5131,2.4819,2.4383,2.4275,2.3947,2.3631,2.3414,2.3117,2.2873,2.2873,2.2554,2.231,2.231,2.231,2.231,2.231,2.231,2.218,2.1899,2.0969,2.0166,1.9672,1.8279,1.7424,1.7325,1.6655,1.6301,1.6301,1.608,1.5926,1.5799,1.5799,1.5799,1.5799,1.5799,1.5799,1.5799,1.5799,1.5799,1.5799,1.5799,1.5712,1.5551,1.5551,1.5195,1.4658,1.4658,1.4246,1.3648,1.3648,1.3459,1.3198,1.3198,1.3198,1.3198,1.3198,1.2738,1.2034,1.1104,1.059,1.0037,0.8808,0.8551,0.8521,0.8237,0.8262,0.8483,0.8881,0.8792,0.8629,0.8613,0.7747,0.6936,0.6753,0.6586,0.6433,0.633,0.6037,0.5711,0.538,0.4645,0.4125,0.4132,0.3799,0.3588,0.3592,0.2146,0.0848,0.0045,0.0,0.0,0.0,0.0,0.0,0.0,-0.0849,-0.1652,-0.241,-0.3211,-0.3931,-0.4593,-0.5267,-0.5567,-0.5445,-0.6174,-0.6428,2.3074,2.3475,2.4182,2.4634,2.4537,2.4609,2.5495,2.527,2.4761,2.4378,2.4016,2.3638,2.3122,2.2789,2.2599,2.2695,2.249,2.231,2.231,2.231,2.231,2.231,2.231,2.218,2.1869,2.1288,2.0747,2.0237,1.8961,1.8205,1.807,1.7051,1.6436,1.6301,1.5983,1.5799,1.5799,1.5799,1.5799,1.5799,1.5799,1.5799,1.5799,1.5799,1.5799,1.5799,1.5799,1.5712,1.5551,1.5418,1.5104,1.469,1.4533,1.4149,1.3682,1.3682,1.3459,1.3198,1.3198,1.3198,1.3173,1.2985,1.2604,1.208,1.1264,1.0921,1.0609,0.9489,0.915,0.9004,0.8674,0.8691,0.8975,0.9687,0.9545,0.9345,0.9464,0.8477,0.7506,0.7321,0.7147,0.6987,0.6894,0.6668,0.6362,0.6067,0.5433,0.487,0.4434,0.4092,0.3796,0.3622,0.2904,0.1739,0.0134,0.0,0.0,0.0,0.0,0.0,0.0,0.0,-0.0582,-0.1787,-0.2591,-0.3391,-0.4136,-0.4696,-0.5,-0.5,-0.561,-0.6007,0.0,0.0,0.0,2.5186,2.5,2.4737,2.5842,2.5512,2.4847,2.4435,2.4095,2.3621,2.2868,2.2508,2.2388,2.2634,2.2463,2.231,2.231,2.231,2.231,2.231,2.231,2.231,2.231,2.1899,2.1361,2.0697,1.9556,1.8787,1.8449,1.7381,1.6633,1.6301,1.5983,1.5799,1.5799,1.5799,1.5799,1.5799,1.5799,1.5799,1.5799,1.5799,1.5799,1.5799,1.5799,1.5551,1.5104,1.469,1.4278,1.3868,1.3391,1.3198,1.3198,1.3198,1.3198,1.3198,1.3198,1.3198,1.311,1.2572,1.2123,1.1652,1.118,1.0743,1.0297,0.9863,0.9478,0.9151,0.9074,0.9326,0.9736,1.0176,1.0283,1.0157,0.9637,0.8675,0.7953,0.7919,0.7447,0.6934,0.6693,0.6834,0.6719,0.5878,0.602,0.5787,0.4565,0.4391,0.4176,0.3667,0.3581,0.2635,0.0313,0.0045,0.0,0.0,0.0,0.0,0.0,0.0,-0.0539,-0.1703,-0.1787,-0.241,-0.3581,-0.4136,-0.4391,-0.4391,-0.5,-0.561,2.2564,0.0,0.0,0.0,0.0,0.0,2.5431,2.494,2.4395,2.5116,2.4063,2.3066,2.317,2.2705,2.2321,2.2415,2.2349,2.231,2.231,2.231,2.231,2.231,2.231,2.231,2.231,2.218,2.2022,2.1849,2.029,1.9301,1.9184,1.7666,1.6528,1.5955,1.608,1.6039,1.5799,1.5799,1.5799,1.5799,1.5799,1.5799,1.5799,1.5799,1.5799,1.5799,1.5799,1.5741,1.558,1.5134,1.469,1.4278,1.3868,1.348,1.3198,1.3198,1.3198,1.3198,1.3198,1.3198,1.3173,1.3023,1.2905,1.2691,1.218,1.2181,1.2234,1.1372,1.1097,1.0885,1.0186,1.0112,1.0211,1.0291,1.0283,1.0244,1.0118,0.9558,0.8958,0.8553,0.8028,0.7634,0.7546,0.7224,0.691,0.6665,0.6386,0.5916,0.513,0.4652,0.4176,0.3667,0.3581,0.3312,0.2642,0.0983,0.0,0.0,0.0,0.0,0.0,0.0,-0.0135,-0.0494,-0.1344,-0.2375,-0.3592,-0.3755,-0.384,-0.3836,-0.4395,-0.5216,2.2321,2.231,2.2496,2.3224,0.0,0.0,2.4864,2.4641,2.4252,2.4591,2.3846,2.3122,2.307,2.2709,2.2425,2.2425,2.2336,2.231,2.231,2.231,2.231,2.231,2.231,2.231,2.231,2.231,2.231,2.231,2.0998,1.9884,1.9095,1.7617,1.6554,1.6039,1.6052,1.6011,1.5799,1.5799,1.5799,1.5799,1.5799,1.5799,1.5799,1.5799,1.5799,1.5799,1.5799,1.5799,1.577,1.5285,1.4968,1.469,1.4117,1.3735,1.3459,1.3267,1.3198,1.3198,1.3198,1.3198,1.316,1.2935,1.286,1.2797,1.2472,1.263,1.2768,1.2183,1.1907,1.1641,1.0871,1.0652,1.0657,1.0588,1.0428,1.0283,1.0283,1.004,0.9677,0.9119,0.8602,0.816,0.7953,0.7621,0.728,0.7021,0.6725,0.6343,0.5744,0.5346,0.4831,0.4008,0.3921,0.384,0.3633,0.2008,0.0714,0.0045,0.0,0.0,0.0,0.0,0.0,0.0,-0.1661,-0.2918,-0.3592,-0.3585,-0.3581,-0.3626,-0.4132,-0.4913,2.2453,2.2377,2.2502,2.3146,2.3287,0.0,2.4157,2.4259,2.4025,2.3476,2.337,2.3211,2.267,2.254,2.2507,2.2425,2.2322,2.2264,2.2299,2.231,2.231,2.231,2.231,2.231,2.231,2.231,2.231,2.231,2.1532,2.0286,1.8491,1.7458,1.6712,1.6313,1.6067,1.5885,1.5799,1.5799,1.5799,1.5799,1.5799,1.5799,1.5799,1.5799,1.5799,1.5799,1.5799,1.5799,1.577,1.5285,1.5104,1.5013,1.4246,1.3934,1.3835,1.3425,1.3232,1.3198,1.3198,1.3198,1.3123,1.2622,1.2504,1.2504,1.2504,1.2504,1.2506,1.2553,1.2282,1.1854,1.1365,1.1212,1.1132,1.1019,1.0687,1.0351,1.0322,1.0283,1.0157,0.9677,0.9159,0.8635,0.816,0.7995,0.7704,0.7189,0.7021,0.681,0.6264,0.6184,0.5744,0.4517,0.4387,0.4176,0.3667,0.2943,0.1916,0.0492,0.0134,0.0,0.0,0.0,0.0,0.0,-0.2113,-0.3328,-0.3585,-0.3581,-0.3581,-0.3626,-0.4092,-0.4609,2.3038,2.2875,2.2721,2.2798,2.2668,0.0,2.2967,2.2576,2.2368,2.3095,2.2328,2.1649,2.2101,2.2164,2.1954,2.1392,2.173,2.2116,2.2264,2.231,2.231,2.231,2.231,2.231,2.231,2.231,2.231,2.231,2.1015,1.9689,1.8458,1.7878,1.7199,1.6328,1.6501,1.6355,1.5799,1.5799,1.5799,1.5799,1.5799,1.5799,1.5799,1.5799,1.5799,1.5799,1.5799,1.5799,1.577,1.5285,1.5104,1.5043,1.4564,1.4181,1.3901,1.3802,1.3514,1.3198,1.3198,1.3198,1.3185,1.3073,1.3035,1.3035,1.3035,1.3035,1.306,1.3057,1.3012,1.2814,1.2342,1.2212,1.2018,1.1196,1.0943,1.0764,1.039,1.0283,1.0283,1.0157,0.9716,0.9319,0.9199,0.848,0.787,0.7746,0.7321,0.681,0.6264,0.6184,0.5744,0.4517,0.4387,0.4176,0.3667,0.3442,0.322,0.2915,0.1073,0.0,0.0,0.0,0.0,0.0,-0.0448,-0.1658,-0.3609,-0.3588,-0.3581,-0.3626,-0.3711,-0.4052,2.3253,2.2989,2.2755,2.2695,2.25,0.0,0.0,2.1875,2.1704,2.2036,2.1591,2.1264,2.1645,2.1673,2.1544,2.1182,2.1353,2.1537,2.1634,2.1811,2.2032,2.2282,2.231,2.231,2.231,2.231,2.231,2.231,2.1245,2.0355,1.9813,1.8551,1.7639,1.7113,1.6581,1.6136,1.5799,1.5799,1.5799,1.5799,1.5799,1.5799,1.5799,1.5799,1.5799,1.5799,1.5799,1.5799,1.577,1.5551,1.5257,1.4906,1.4391,1.3896,1.3446,1.3532,1.3391,1.3198,1.3198,1.3198,1.3198,1.3198,1.3198,1.3198,1.3198,1.3198,1.3198,1.3198,1.3198,1.3163,1.2908,1.2685,1.2354,1.1872,1.1345,1.0943,1.0687,1.0467,1.0283,1.0283,1.0079,0.9725,0.9199,0.8635,0.8111,0.753,0.7196,0.6894,0.6647,0.6605,0.6167,0.4957,0.487,0.4526,0.3667,0.3581,0.3581,0.3588,0.2462,0.1252,0.0045,0.0,0.0,0.0,0.0,-0.0583,-0.1794,-0.2415,-0.2993,-0.3581,-0.3581,-0.388,2.3392,2.3045,2.2797,2.2797,2.2554,2.2192,0.0,0.0,0.0,2.0959,2.1072,2.1206,2.1029,2.1173,2.1255,2.1024,2.0967,2.0922,2.0878,2.1134,2.1617,2.2308,2.2382,2.2411,2.2485,2.2395,2.231,2.231,2.1617,2.1204,2.1204,1.9227,1.8028,1.7893,1.667,1.5926,1.5799,1.5799,1.5799,1.5799,1.5799,1.5799,1.5799,1.5799,1.5799,1.5799,1.5799,1.5799,1.5799,1.5712,1.5207,1.4485,1.4335,1.3772,1.313,1.3362,1.3323,1.3198,1.3198,1.3198,1.3198,1.3198,1.3198,1.3198,1.3198,1.3198,1.3198,1.3198,1.3198,1.3198,1.3198,1.2908,1.2615,1.2508,1.1799,1.1132,1.1019,1.0649,1.0283,1.0283,1.0283,1.0,0.9159,0.8837,0.839,0.7474,0.7147,0.6979,0.6979,0.6979,0.6592,0.5567,0.5346,0.4874,0.384,0.3667,0.3581,0.3581,0.3592,0.2642,0.0447,0.0135,0.0,0.0,0.0,0.0,-0.0,-0.1206,-0.2413,-0.3581,-0.3581,-0.3836,2.3735,2.3392,2.3141,2.3141,2.2721,2.2248,2.2074,0.0,2.1352,2.055,0.0,2.0791,2.0015,0.0,0.0,2.005,2.0339,2.0643,2.0407,2.0416,2.1003,2.2485,2.2661,2.2801,2.3228,2.2682,2.231,2.231,2.1617,2.1204,2.1204,1.9672,1.8518,1.792,1.7114,1.6394,1.5799,1.5799,1.5799,1.5799,1.5799,1.5799,1.5799,1.5799,1.5799,1.5799,1.5799,1.5799,1.577,1.5359,1.45,1.361,1.502,1.4716,1.3523,1.4124,1.3868,1.3198,1.3198,1.3198,1.3198,1.3198,1.3198,1.3198,1.3198,1.3198,1.3198,1.3198,1.3198,1.3198,1.3198,1.3163,1.3012,1.2615,1.2102,1.159,1.1094,1.0649,1.0283,1.0283,1.0283,1.0244,1.0118,0.9319,0.8635,0.8513,0.7641,0.6979,0.6979,0.6979,0.6768,0.6179,0.561,0.5043,0.4347,0.388,0.3581,0.3581,0.3592,0.3004,0.165,0.0583,0.0,0.0,0.0,0.0,-0.0,-0.121,-0.2417,-0.3581,-0.3581,-0.3622,2.4229,2.4006,2.3795,2.3552,2.31,2.2591,2.219,2.1845,2.143,2.0813,0.0,0.0,0.0,0.0,0.0,0.0,1.9929,2.0077,1.9975,2.0158,2.0886,2.2521,2.2116,2.1776,2.1997,2.1947,2.1899,2.1899,2.1849,2.1837,2.1837,2.0585,1.9571,1.8849,1.7936,1.7002,1.6095,1.608,1.5983,1.5799,1.5799,1.5799,1.5799,1.5799,1.5799,1.5799,1.5799,1.5799,1.577,1.558,1.4976,1.4278,1.5367,1.4427,1.2636,1.3987,1.4029,1.3419,1.3815,1.3802,1.3547,1.3301,1.3198,1.3198,1.3198,1.3198,1.3198,1.3198,1.3198,1.3198,1.3198,1.3198,1.3163,1.2943,1.2354,1.1737,1.1505,1.084,1.0283,1.0283,1.0283,1.0283,1.0283,0.9686,0.8958,0.8316,0.7821,0.7405,0.7063,0.6979,0.681,0.6264,0.5653,0.5043,0.4434,0.3921,0.3581,0.3581,0.2951,0.2012,0.0804,0.0269,0.0,0.0,0.0,0.0,-0.0,-0.0493,-0.1746,-0.3602,-0.3595,-0.3588,2.4565,2.4417,2.4251,2.3894,2.3469,2.3024,2.2522,2.2141,2.1774,2.1275,2.115,0.0,0.0,0.0,2.0004,1.9747,0.0,1.9551,1.9839,2.0124,2.0852,2.2361,2.1891,2.144,2.1311,2.1482,2.1582,2.1582,2.2032,2.231,2.231,2.1329,2.0423,1.964,1.8496,1.7409,1.6412,1.6256,1.6039,1.5799,1.5799,1.5799,1.5799,1.5799,1.5799,1.5799,1.5799,1.5799,1.5799,1.5799,1.5409,1.4857,1.5544,1.4348,1.2434,1.3878,1.3993,1.3569,1.407,1.4078,1.3835,1.348,1.3301,1.3198,1.3198,1.3198,1.3198,1.3198,1.3198,1.3198,1.3198,1.3198,1.3198,1.3198,1.2579,1.1957,1.1811,1.1105,1.0467,1.0322,1.0283,1.0283,1.0283,0.9716,0.8999,0.8234,0.787,0.7489,0.7063,0.6979,0.6852,0.6477,0.591,0.5303,0.4691,0.4136,0.3751,0.3626,0.2771,0.1607,0.0045,0.0,0.0,0.0,0.0,0.0,0.0,0.0,-0.0896,-0.2613,-0.2962,-0.309,2.4576,2.4454,2.435,2.4137,2.3785,2.3426,2.32,2.2923,2.2459,2.1715,2.1582,2.1321,2.0483,1.9939,1.9636,1.9675,1.9244,0.0,0.0,2.028,2.0767,2.1968,2.2427,2.2506,2.2116,2.1791,2.1582,2.1582,2.2032,2.231,2.231,2.16,2.0827,2.001,1.8615,1.749,1.6712,1.6113,1.5799,1.5799,1.5799,1.5799,1.5799,1.5799,1.5799,1.5799,1.5799,1.5799,1.5799,1.5799,1.5409,1.4857,1.5544,1.4947,1.3753,1.4022,1.3854,1.3514,1.3528,1.3709,1.3901,1.3868,1.3581,1.3198,1.3198,1.3198,1.3198,1.3198,1.3198,1.3198,1.3198,1.3198,1.3198,1.3198,1.2826,1.2354,1.1884,1.1356,1.0829,1.04,1.0283,1.0283,1.0283,0.9439,0.8716,0.8675,0.7724,0.7021,0.7021,0.6979,0.6979,0.6979,0.6477,0.5916,0.5308,0.4739,0.4132,0.3622,0.3544,0.2464,0.0089,0.0,0.0,0.0,0.0,0.0,0.0,0.0,-0.0045,-0.0135,-0.1297,-0.1875,2.5026,2.5004,2.4974,2.4651,2.4292,2.3989,2.3773,2.3206,2.2643,2.2361,2.1931,2.1305,2.0405,2.0131,1.9884,1.9266,1.9543,1.9919,0.0,2.055,2.0695,2.0489,2.1302,2.1618,2.096,2.1086,2.1306,2.1582,2.2032,2.231,2.231,2.2073,2.1446,2.0368,1.9448,1.8359,1.7119,1.6445,1.6011,1.5799,1.5799,1.5799,1.5799,1.5799,1.5799,1.5799,1.5799,1.5799,1.5769,1.5334,1.5274,1.5439,1.5229,1.4857,1.4528,1.5031,1.4846,1.4369,1.4512,1.4446,1.4246,1.4,1.3581,1.3267,1.3581,1.3459,1.3267,1.3581,1.3459,1.3198,1.3198,1.3198,1.3198,1.3198,1.2838,1.2473,1.2282,1.1616,1.0943,1.0791,1.0505,1.0283,1.0283,0.9725,0.9119,0.8756,0.839,0.7848,0.7105,0.6979,0.6979,0.6979,0.652,0.5959,0.5351,0.4443,0.3796,0.3626,0.3585,0.2996,0.1647,0.1339,0.0805,0.0,0.0,0.0,0.0,0.0,0.0,-0.0,-0.0403,-0.0627,2.5332,2.5185,2.4897,2.4601,2.4505,2.4302,2.3676,2.3195,2.2848,2.2764,2.2017,2.118,2.0586,2.0097,1.9707,1.9456,1.9778,2.0162,0.0,2.0797,2.0715,1.9939,2.0577,2.0791,2.0104,2.0616,2.115,2.1552,2.2032,2.231,2.231,2.231,2.1888,2.092,1.9992,1.8924,1.771,1.6766,1.6136,1.5799,1.5799,1.5679,1.5454,1.5694,1.5679,1.5469,1.5709,1.5664,1.5424,1.4989,1.5064,1.5409,1.4989,1.4932,1.5169,1.5124,1.4812,1.4531,1.514,1.5074,1.4658,1.4406,1.4019,1.3682,1.3835,1.3682,1.3514,1.3802,1.3547,1.3232,1.3425,1.3323,1.3198,1.3198,1.2978,1.2685,1.2544,1.1872,1.1244,1.1057,1.0611,1.0283,1.0283,1.0,0.9518,0.8797,0.8561,0.8062,0.7105,0.6979,0.6979,0.6979,0.6689,0.6173,0.5346,0.4443,0.3792,0.3626,0.3581,0.3353,0.2854,0.2591,0.2057,0.1297,0.0447,0.0,0.0,0.0,0.0,0.0,0.0,0.0]}]]